GFSSE_700_rhum_000.txt.gz
RH
31 32 31 30 30 32 32 29 14 7 5 4 2 3 3 3 2 2 3 3 4 5 6 6 7 7 7 8 8 8 8 8 8 9 9 10 8 9 11 12 11 12 12
32 35 34 33 33 34 34 33 36 28 12 6 5 4 2 2 3 2 3 4 5 6 6 6 7 8 8 8 9 10 8 8 8 10 10 9 9 10 12 12 11 12 11
35 38 36 36 35 36 36 36 35 37 38 29 12 6 6 5 3 2 3 5 6 6 6 6 7 7 8 10 10 9 8 8 9 10 10 9 9 11 12 12 12 12 12
37 39 38 37 36 35 33 32 33 37 38 37 37 30 12 6 6 6 6 7 7 7 8 8 8 9 9 9 8 8 9 9 9 9 10 10 10 11 12 12 12 12 13
40 39 38 36 36 36 34 32 31 32 33 34 36 36 34 28 12 6 6 8 7 8 8 8 8 8 8 7 7 8 8 8 8 8 9 10 10 11 12 12 12 12 13
41 40 39 38 37 38 36 33 33 30 30 28 28 30 34 33 30 25 11 6 7 7 7 7 7 7 7 7 7 8 8 9 10 11 12 11 11 12 12 12 13 13 13
41 40 39 40 40 40 38 36 35 30 24 22 20 18 22 27 31 28 24 19 12 10 8 8 8 9 9 10 10 12 13 14 14 15 14 14 14 13 14 14 14 14 14
39 40 40 40 41 40 39 38 37 32 23 21 18 12 10 14 24 27 25 22 20 18 16 15 15 15 14 15 16 16 17 18 19 19 20 19 19 18 18 18 20 18 17
40 40 41 40 42 40 39 39 37 33 25 22 18 15 13 11 17 20 22 21 22 21 22 23 25 26 26 26 26 26 27 27 27 31 35 38 37 38 32 27 24 22 22
40 41 40 40 42 40 39 39 36 33 28 25 21 18 20 15 14 14 16 18 18 20 21 22 25 27 29 29 29 30 31 31 32 35 38 41 41 41 42 44 41 41 39
41 41 39 40 42 40 39 39 37 34 32 29 23 17 23 22 21 20 21 23 23 24 24 26 28 29 30 30 29 28 28 28 28 29 31 34 36 37 37 38 41 43 41
44 40 39 41 42 40 41 40 36 35 34 32 27 19 23 24 24 25 27 27 26 27 28 31 31 28 26 25 25 27 27 27 26 26 26 28 31 32 34 36 39 41 43
44 43 41 42 42 40 42 40 36 35 34 33 33 31 20 26 25 26 26 26 28 29 31 29 27 27 26 22 20 19 18 19 20 21 23 25 25 26 28 30 39 58 60
42 42 41 43 43 44 45 41 38 36 34 34 37 34 28 24 26 26 27 28 29 29 28 26 22 19 19 21 21 22 24 28 30 30 29 28 28 29 29 29 29 29 42
44 42 43 44 45 46 46 41 36 35 34 35 36 35 32 27 28 28 29 30 29 30 27 23 23 25 26 26 28 30 32 32 30 22 16 13 12 11 11 10 12 12 17
43 41 44 44 44 45 46 40 34 36 35 36 36 36 34 31 28 30 31 31 30 29 27 28 29 29 31 33 32 28 20 12 6 4 4 5 5 5 6 6 6 6 8
37 37 41 43 44 47 46 34 32 37 37 35 34 37 34 32 31 32 31 31 30 31 31 30 34 36 32 21 7 4 5 5 5 5 5 5 5 5 6 6 8 8 10
25 32 35 41 44 43 37 26 33 39 37 34 36 34 36 33 33 31 31 32 32 32 33 37 33 20 6 3 4 6 6 5 5 5 5 5 5 6 7 7 7 6 5
28 26 30 29 32 30 26 30 41 39 33 34 36 37 34 35 32 31 33 33 34 39 37 26 12 2 3 6 6 6 6 5 5 5 5 5 6 6 5 5 5 4 4
27 24 24 25 24 24 31 42 40 34 32 32 34 35 34 31 32 34 37 42 41 34 22 8 2 7 8 8 7 6 5 5 5 6 7 7 6 6 5 5 4 4 4
27 25 25 27 26 36 42 40 31 27 28 32 33 32 31 32 35 44 45 39 32 19 4 5 9 9 8 7 6 6 5 7 7 8 8 7 7 6 6 6 6 6 6
30 26 29 31 42 43 37 30 29 31 34 34 33 32 34 42 48 46 40 29 11 4 8 10 10 8 7 7 8 8 8 9 8 9 9 8 8 7 7 7 7 7 7
34 38 43 44 41 33 30 30 33 34 31 30 34 43 50 51 49 42 28 12 6 8 10 10 10 10 8 7 7 8 8 10 11 10 9 9 9 9 8 8 8 8 9
41 45 43 38 33 32 32 34 32 27 35 42 46 50 53 50 41 28 15 8 7 8 10 10 10 10 9 8 8 8 9 9 9 10 10 10 10 10 9 9 9 10 10
44 43 38 34 33 34 34 28 32 38 42 45 49 49 44 36 28 18 10 7 7 8 10 10 11 10 10 9 9 10 10 10 11 11 10 10 10 10 10 10 10 9 10
43 40 36 34 34 34 29 36 41 44 46 47 46 43 37 31 25 16 11 8 8 10 11 11 12 11 11 11 12 12 12 12 11 11 11 11 12 11 12 11 10 9 9

GFSSE_700_rhum_003.txt.gz
RH
31 29 31 30 30 32 33 34 36 30 15 7 6 4 3 3 3 3 3 3 4 5 6 6 6 7 8 7 7 7 7 8 8 8 9 10 10 9 10 12 12 11 12
30 30 34 33 32 33 33 34 35 34 36 32 16 7 7 5 3 3 3 4 5 6 6 6 7 8 8 8 8 9 9 8 8 9 10 11 10 10 11 12 12 12 12
34 33 37 35 33 32 30 30 30 33 35 36 37 32 14 7 6 5 4 5 6 7 6 6 7 7 8 9 10 9 9 9 9 10 10 10 10 10 11 12 12 12 12
35 37 38 36 35 33 31 31 30 30 30 30 32 34 34 27 10 7 7 8 8 8 8 8 9 9 9 9 8 8 8 9 9 9 9 9 10 10 10 11 12 12 13
39 40 39 38 36 35 34 33 31 29 26 23 22 25 30 33 31 18 8 7 7 8 8 8 8 8 8 8 7 7 7 8 8 8 9 10 10 11 11 11 12 12 13
40 41 40 40 40 38 36 35 34 28 22 20 18 15 18 25 31 29 26 15 9 8 7 7 7 7 7 7 7 8 9 10 12 13 14 14 14 13 13 13 13 13 13
40 40 40 41 41 40 38 37 34 30 24 21 17 12 9 13 23 29 26 24 20 16 14 12 11 11 11 12 12 13 14 15 16 16 17 17 17 17 17 16 16 16 16
40 40 40 41 42 40 38 38 34 31 27 25 19 16 14 9 12 20 23 23 21 20 19 19 19 19 20 20 20 22 24 25 26 26 27 28 26 24 23 23 22 21 22
40 40 41 41 42 41 39 37 35 32 31 29 23 19 20 15 12 12 12 14 16 16 19 20 22 23 25 26 26 27 28 30 32 34 34 36 37 36 34 33 34 34 32
40 40 41 41 42 41 39 37 36 34 34 33 27 20 23 22 20 19 19 20 22 23 23 25 26 28 30 31 28 28 27 27 28 28 30 32 33 34 35 36 37 36 38
41 40 41 41 42 41 39 39 37 35 33 33 30 26 20 26 24 25 26 28 30 30 30 31 32 29 28 26 25 25 26 27 26 26 27 27 27 26 28 32 36 40 38
45 43 41 39 42 42 40 41 40 36 36 33 32 31 25 22 26 25 26 28 29 30 29 29 28 28 28 29 28 23 22 21 21 22 24 24 24 23 23 25 33 56 58
47 44 43 40 43 42 41 42 41 38 36 34 34 35 32 26 24 27 27 27 28 29 30 29 29 28 26 25 24 25 25 26 27 28 29 29 29 29 29 30 31 32 32
44 44 42 41 42 42 42 44 42 39 35 35 36 38 36 35 27 28 28 29 30 31 31 29 26 26 28 27 28 31 30 30 29 28 24 19 14 12 11 12 14 17 21
44 44 42 42 42 43 43 45 44 39 36 35 37 39 39 38 36 33 30 32 31 32 30 29 30 29 29 33 33 28 18 8 5 5 5 5 5 6 6 6 6 6 6
38 45 46 43 42 43 44 44 44 38 36 37 38 41 40 39 39 36 32 32 32 32 32 32 29 34 35 26 14 6 4 5 6 6 6 6 6 5 5 6 6 6 6
56 53 50 44 43 43 43 45 44 35 36 38 40 40 40 41 43 36 34 33 33 34 31 33 37 31 16 4 2 5 6 6 6 6 6 5 5 5 5 6 6 6 6
44 41 43 40 38 42 44 45 40 33 38 40 39 38 40 43 41 36 34 33 33 31 38 39 29 17 4 4 8 7 6 6 6 6 5 5 5 6 6 6 6 6 5
55 48 37 33 36 37 41 40 30 37 43 41 34 34 41 40 38 34 32 31 34 41 39 30 18 3 6 8 8 7 7 6 6 6 6 7 8 8 8 7 7 6 6
42 40 34 31 35 34 30 29 30 44 42 35 33 36 37 38 35 32 32 40 44 40 30 12 4 8 9 10 9 8 7 7 6 7 8 9 9 8 8 8 7 7 6
43 42 36 30 29 30 29 28 45 43 36 31 32 36 35 34 32 36 47 47 42 29 9 6 9 10 10 11 10 8 8 7 8 8 9 9 9 9 9 9 9 8 8
42 43 34 33 30 29 34 48 43 33 28 32 35 35 31 35 44 49 50 43 26 12 8 9 10 10 11 13 14 14 13 11 10 10 10 10 9 9 9 9 10 10 10
42 38 35 31 31 41 47 43 32 29 32 35 31 32 42 48 52 52 41 26 14 9 8 9 11 13 14 14 14 14 13 13 14 13 13 13 12 11 10 10 10 10 10
49 36 38 36 46 46 37 31 32 35 34 31 39 44 48 52 47 37 28 20 12 9 10 13 16 17 18 17 15 12 12 12 13 16 16 14 12 12 10 9 9 10 11
49 39 46 46 43 34 32 33 35 30 35 41 44 48 45 42 38 33 27 19 13 12 13 16 19 19 19 18 16 14 13 13 14 14 15 13 11 8 8 8 7 8 10
51 42 47 44 37 33 34 34 30 38 44 46 46 46 47 48 48 44 35 24 17 15 16 18 20 20 19 17 14 14 14 14 14 13 12 10 8 7 6 6 6 8 9

GFSSE_700_rhum_006.txt.gz
RH
32 31 29 31 30 29 29 31 33 35 34 25 11 7 6 4 3 3 3 3 4 5 6 6 7 8 8 8 8 8 8 7 7 8 8 9 10 10 9 10 12 12 11
31 31 32 34 31 30 28 29 32 34 33 35 35 24 9 7 5 3 3 4 5 7 7 7 7 8 8 9 8 9 10 10 9 8 9 10 11 10 9 9 11 12 12
35 32 32 35 32 31 29 28 28 27 27 30 33 35 33 14 7 7 5 6 7 8 8 7 7 7 8 8 9 10 10 9 9 10 10 10 10 10 9 9 10 11 12
35 35 38 36 33 32 31 30 26 22 21 21 22 27 33 33 19 8 7 8 8 9 9 9 9 9 9 9 9 9 8 8 9 9 9 9 8 8 8 9 10 11 12
39 40 40 38 36 34 33 32 30 24 20 18 17 16 20 30 31 27 14 8 8 8 8 8 8 8 8 8 8 8 7 7 8 8 8 8 9 10 10 10 11 11 12
40 40 40 40 40 38 34 34 32 27 25 22 16 12 9 17 28 29 27 20 14 10 9 8 8 8 8 8 9 9 9 10 10 11 13 14 15 14 14 13 12 12 12
40 40 41 41 42 40 36 35 32 29 29 26 20 17 14 10 15 25 26 24 22 20 18 17 16 14 14 13 14 14 15 16 17 18 19 18 18 18 17 17 17 16 15
41 40 40 42 43 41 38 36 33 31 32 30 25 19 19 14 10 14 21 21 21 20 19 20 21 21 22 24 25 26 26 25 24 23 24 24 24 26 26 24 23 22 20
41 41 40 42 43 42 39 36 35 34 33 33 29 22 22 22 18 16 16 16 17 18 20 21 22 22 23 24 26 27 27 27 27 27 27 28 26 26 26 28 29 30 30
41 41 41 42 43 43 40 38 37 35 34 33 32 29 23 26 26 26 27 28 30 30 30 32 32 32 30 30 29 27 26 27 27 27 27 27 25 24 23 24 26 29 32
46 42 41 42 42 43 41 40 40 37 37 35 34 32 30 24 27 27 29 31 31 31 32 32 32 28 28 27 26 25 24 24 22 22 22 23 22 23 22 23 22 38 81
45 41 42 42 42 43 42 41 42 40 38 36 35 34 34 32 25 27 30 30 30 30 31 31 30 29 25 24 23 23 24 24 24 24 26 28 29 30 30 29 30 29 30
49 46 42 41 41 42 44 43 44 42 39 37 36 36 37 36 33 25 29 30 31 32 32 32 30 30 28 29 28 28 28 30 30 30 29 29 30 30 28 27 29 30 30
48 47 45 42 42 44 45 44 45 44 41 39 37 37 39 39 37 35 33 32 32 33 33 32 30 30 30 26 28 32 31 26 17 11 8 7 7 6 6 6 6 7 9
46 46 45 43 43 44 44 44 44 45 43 41 39 39 40 41 40 42 39 35 34 34 32 32 32 29 27 32 29 17 7 3 3 5 6 6 6 6 6 6 6 6 6
46 46 46 46 45 44 44 44 44 45 45 43 41 40 42 43 40 44 42 37 34 33 34 32 28 31 33 23 11 3 3 6 7 7 6 6 6 6 6 6 6 6 6
46 50 50 51 51 50 45 43 44 49 46 43 42 43 44 44 43 42 42 38 35 34 32 29 36 33 24 9 2 8 8 8 8 7 7 6 6 6 5 6 6 6 6
40 42 57 55 53 50 44 44 49 55 53 44 43 45 46 43 42 43 40 37 34 31 36 39 35 26 8 4 9 9 9 9 8 7 7 6 6 7 8 8 8 8 8
39 45 53 49 46 44 43 43 47 53 52 38 45 47 39 39 42 44 39 34 32 42 40 37 26 6 5 9 10 10 10 9 8 8 8 8 8 9 9 9 9 9 8
46 51 53 53 45 40 38 41 41 45 38 41 48 40 35 41 40 37 33 36 44 43 38 28 8 8 9 10 11 12 12 12 10 10 9 9 9 9 10 9 9 9 9
43 54 45 43 42 38 36 36 38 35 39 51 41 36 38 41 37 33 44 46 45 38 24 9 8 9 10 12 14 14 14 14 14 13 11 11 11 11 10 10 10 10 10
50 46 42 43 45 40 40 37 39 40 51 44 35 38 40 36 38 47 47 42 33 20 13 10 9 11 14 18 19 19 18 16 15 14 14 13 13 13 13 13 12 12 12
45 44 43 43 42 42 39 40 44 51 46 32 37 38 34 44 46 44 37 29 24 19 13 10 12 16 19 21 21 21 19 18 18 17 17 16 16 16 14 13 12 11 10
46 48 48 46 41 38 38 45 51 43 33 36 35 38 45 46 42 38 33 31 26 19 15 14 16 20 22 23 23 22 22 20 19 18 18 19 18 15 13 11 10 9 8
50 50 51 43 43 37 48 47 38 32 34 34 39 44 48 46 45 49 53 50 39 28 21 18 19 22 24 25 25 23 21 20 18 18 20 17 14 12 9 8 7 6 6
51 52 52 43 48 48 44 35 32 35 34 41 46 48 50 52 53 55 56 55 51 41 30 21 18 21 24 25 23 22 21 20 18 15 15 14 10 8 7 7 7 7 7

GFSSE_700_rhum_009.txt.gz
RH
32 32 30 31 31 29 28 28 29 31 33 33 26 10 7 5 3 3 3 3 4 5 6 7 7 8 8 8 7 7 7 8 8 8 8 8 9 11 10 9 9 11 11
32 33 34 32 32 29 28 27 26 28 30 32 33 33 16 7 6 3 3 4 6 7 7 7 7 8 8 9 9 8 8 8 9 9 8 9 10 11 11 10 9 10 11
35 35 35 34 33 30 29 27 24 22 22 23 26 31 33 20 7 7 5 6 7 7 7 7 7 7 8 8 9 9 10 11 11 10 10 10 10 11 10 9 9 9 10
36 35 37 37 34 31 30 30 26 21 19 17 17 20 29 32 23 8 8 8 8 8 9 9 10 10 10 10 10 10 10 10 9 9 9 9 9 9 8 7 7 8 9
39 39 40 39 37 35 32 31 29 27 26 21 14 11 14 29 31 24 12 8 8 8 8 8 8 8 8 8 8 8 8 8 8 7 7 7 8 8 9 10 10 10 11
45 41 40 40 40 38 34 32 30 30 30 27 19 15 10 12 27 29 26 21 14 10 9 9 8 8 8 8 8 9 9 9 10 9 10 12 14 14 15 15 14 14 13
43 42 40 41 42 41 36 34 31 31 31 30 25 19 16 11 11 23 26 23 22 21 20 20 19 18 18 17 17 17 17 18 18 19 19 20 20 20 20 20 18 17 16
42 42 40 41 42 43 39 35 34 33 32 31 29 23 21 19 14 12 15 20 20 20 19 19 20 21 20 21 22 23 22 24 23 24 22 22 22 23 25 25 25 24 24
42 42 41 41 43 44 41 38 36 34 33 32 31 29 24 24 22 21 21 22 23 24 26 27 28 29 28 30 31 30 28 24 25 25 25 24 24 24 26 26 25 27 31
41 41 41 41 42 44 42 39 38 37 36 35 34 32 31 26 25 26 28 29 30 31 32 32 34 35 32 30 28 27 27 25 24 25 23 21 20 21 21 21 21 25 69
47 42 42 42 43 43 43 40 40 40 38 36 35 34 34 34 29 27 29 29 30 31 32 33 32 30 29 29 26 23 22 21 20 21 21 21 22 23 24 25 26 26 26
44 43 42 42 43 43 43 42 41 42 40 39 36 36 37 37 36 33 30 32 32 31 32 32 32 31 29 26 26 27 27 27 26 27 27 27 28 30 31 31 30 29 27
50 43 42 42 43 44 44 44 42 44 43 41 40 38 38 39 39 38 36 32 32 31 32 32 32 32 31 31 31 30 29 32 32 31 28 21 17 18 20 18 15 12 13
50 48 45 42 42 42 43 44 44 44 45 44 42 42 40 40 41 40 39 36 34 32 32 32 33 33 34 29 32 33 28 18 8 4 3 4 5 6 6 6 6 6 7
47 49 47 46 44 44 45 46 46 45 46 46 45 44 43 42 42 41 40 39 39 34 33 33 34 33 30 33 31 22 11 2 4 7 7 7 7 6 6 6 6 6 6
41 45 49 49 48 45 44 45 47 46 46 46 48 47 45 45 44 44 41 42 40 37 35 34 31 34 37 31 22 8 3 8 8 8 8 8 7 6 6 6 6 6 6
49 49 49 49 54 52 50 49 46 48 48 48 53 49 46 47 47 45 43 44 41 37 34 31 39 37 31 16 4 5 9 9 10 10 9 9 8 8 8 8 8 8 9
47 43 43 43 52 57 56 53 53 50 52 54 55 54 47 49 48 44 43 42 39 34 33 42 39 32 13 5 8 9 10 11 12 12 11 10 10 10 9 9 9 9 10
52 44 38 39 45 56 56 56 52 51 50 52 55 54 44 49 45 41 45 41 34 35 42 40 32 16 8 9 10 11 12 13 14 15 14 14 12 11 10 10 10 10 10
53 49 44 40 49 53 52 50 45 47 48 46 52 44 50 46 40 43 43 34 41 42 39 28 15 9 9 10 11 13 16 17 17 17 16 15 14 13 12 12 12 11 12
57 59 48 50 58 57 57 46 46 42 46 44 44 47 50 39 40 41 34 44 43 34 25 19 13 10 10 12 16 19 20 20 19 18 17 17 16 15 14 14 14 14 14
64 62 49 57 62 51 46 44 45 44 44 48 47 51 41 40 40 34 44 41 33 27 23 19 16 12 12 16 19 20 20 21 21 21 20 20 19 17 16 16 16 15 14
63 57 46 55 48 46 51 47 44 47 46 48 54 43 40 40 37 44 40 36 36 38 37 31 22 16 17 20 22 23 23 22 22 21 22 21 20 19 18 16 15 14 12
60 55 52 46 46 49 52 46 45 46 52 56 41 42 40 40 45 41 44 53 56 55 53 44 30 19 17 21 25 26 27 26 24 21 20 20 20 18 16 14 12 10 8
55 55 47 49 51 51 44 43 41 50 55 38 38 39 41 45 44 48 52 52 53 53 52 50 43 23 14 16 23 27 27 26 25 25 22 20 18 15 12 10 8 8 8
53 52 49 50 51 47 45 39 48 50 38 35 37 42 47 46 48 50 52 55 58 59 53 50 48 26 9 12 21 26 26 26 26 23 20 16 14 11 8 8 9 10 10

GFSSE_700_rhum_012.txt.gz
RH
32 32 32 32 30 29 27 26 25 28 31 33 32 18 7 6 3 3 3 3 4 5 6 6 7 7 8 7 6 6 7 7 7 8 8 8 8 9 11 11 10 9 9
33 34 35 32 30 30 28 26 24 23 23 27 31 33 23 8 6 3 3 4 5 7 7 7 7 8 8 9 8 8 8 8 8 8 10 10 10 10 11 12 11 10 9
35 37 36 34 32 30 28 27 22 19 18 18 20 29 33 24 8 6 4 5 7 7 8 8 8 8 8 9 9 9 9 10 10 11 11 10 10 10 11 11 10 9 8
38 36 37 37 34 32 30 29 27 26 25 18 14 14 24 31 22 8 8 8 8 8 9 9 9 10 10 10 10 10 10 11 11 10 10 9 9 9 9 8 7 7 8
40 38 38 38 37 36 33 31 29 29 29 25 17 13 10 22 30 20 11 8 8 8 8 8 8 9 9 9 9 9 9 9 9 8 8 8 8 8 8 9 10 11 12
41 43 43 40 39 38 35 32 30 30 30 29 23 17 12 11 25 28 24 19 13 11 10 10 9 9 8 8 8 8 8 8 9 10 10 12 13 14 15 15 15 15 15
44 44 42 41 41 40 37 34 31 32 31 29 28 23 18 13 12 23 25 24 22 21 20 20 20 19 19 19 18 18 19 20 21 22 22 22 22 21 19 21 21 20 18
44 43 42 42 41 42 40 36 34 33 31 29 29 28 23 20 17 12 14 16 18 18 18 17 17 19 21 21 22 21 21 22 21 21 22 23 24 26 25 26 27 27 26
44 43 43 42 40 42 42 38 36 34 34 34 32 30 29 24 23 23 24 25 26 26 27 28 29 31 30 31 30 30 28 27 26 26 26 25 25 25 25 24 25 26 54
42 44 43 43 42 42 43 41 38 37 36 36 34 33 32 32 28 26 28 29 30 29 29 30 31 32 32 29 28 28 28 26 24 23 20 20 20 19 19 20 21 21 21
42 42 42 43 43 44 44 43 40 40 39 38 36 35 34 34 34 32 28 29 30 29 30 31 31 31 31 30 27 26 24 24 24 25 24 25 25 26 26 26 26 27 27
49 48 44 44 43 44 44 44 42 42 42 41 40 37 36 36 37 37 35 31 31 32 32 32 32 33 33 31 30 30 30 29 27 28 26 29 29 28 26 25 24 26 27
52 47 44 43 48 49 45 47 44 43 44 44 42 41 39 38 38 39 38 37 36 35 34 33 33 33 34 34 33 31 28 30 30 29 20 14 7 4 5 5 6 7 7
52 51 47 44 44 45 45 44 45 45 44 45 45 44 43 42 40 40 40 40 39 39 35 34 33 34 34 33 31 34 32 24 14 4 2 5 6 7 7 7 6 6 6
50 51 49 47 44 47 49 47 48 45 46 46 47 47 46 44 44 42 42 41 41 41 40 35 34 34 31 32 36 31 23 8 4 8 8 8 8 7 7 7 7 6 6
46 48 51 50 49 47 45 46 46 49 49 47 47 48 47 48 46 46 44 44 42 42 41 37 34 31 36 37 32 18 5 6 9 9 9 9 9 9 10 10 10 9 9
43 50 51 51 51 51 51 48 46 46 47 47 48 48 51 54 50 48 47 45 42 43 40 34 31 39 38 32 17 5 8 9 10 11 11 12 13 13 13 13 12 12 11
46 46 50 49 50 51 54 56 55 54 52 49 50 50 55 55 51 48 49 45 44 44 36 33 40 36 28 13 8 9 10 11 12 14 15 16 16 15 15 14 14 13 12
45 49 50 48 45 43 49 58 58 56 55 53 50 50 51 54 48 48 45 41 45 37 36 40 33 22 12 9 9 10 12 14 16 18 18 17 17 16 16 15 15 14 14
44 45 48 47 45 42 44 51 60 58 54 50 49 50 48 52 44 50 41 47 38 39 39 28 20 16 12 10 11 14 17 19 20 20 20 19 19 20 19 18 17 17 16
45 45 46 46 45 45 46 50 58 56 52 44 42 45 45 44 47 42 46 40 41 38 28 25 23 18 15 13 15 17 20 22 22 22 22 22 21 21 21 20 19 19 18
41 46 46 48 45 44 57 64 64 67 54 47 41 46 48 46 48 43 43 41 39 33 40 48 46 40 28 19 17 20 22 24 24 24 24 23 23 22 22 21 20 19 18
34 36 41 52 49 51 63 66 65 57 54 44 41 47 54 61 47 45 40 41 40 49 50 49 48 48 43 26 16 16 20 24 26 25 26 24 24 23 21 19 17 16 15
34 32 36 60 52 51 62 62 57 55 53 52 51 56 71 52 53 40 45 44 49 48 50 52 50 47 46 34 13 10 15 21 23 23 22 22 22 21 18 16 14 12 10
39 36 36 59 55 52 53 54 59 58 51 54 53 58 50 54 43 46 46 50 50 53 55 56 56 55 50 48 19 10 12 18 23 25 24 23 21 18 17 14 11 9 9
35 40 48 58 56 49 50 53 56 51 52 50 52 46 45 44 47 46 49 51 54 57 59 59 59 59 56 50 29 17 15 20 26 27 25 22 19 16 13 10 9 11 13

GFSSE_700_rhum_015.txt.gz
RH
32 32 31 32 30 27 28 26 24 23 24 27 30 30 16 7 4 3 3 3 4 4 4 5 6 7 7 7 6 6 6 6 7 7 8 8 8 8 8 9 11 11 10
33 33 34 33 28 29 29 26 23 19 18 19 22 28 31 18 7 3 3 4 5 6 7 7 7 8 8 9 8 8 8 8 8 8 8 9 10 9 9 10 11 11 10
34 34 35 31 29 30 29 28 25 23 22 16 15 17 26 31 14 7 4 5 6 7 8 8 8 8 8 9 9 9 9 9 9 10 10 10 10 10 10 10 10 10 9
36 36 34 34 34 33 32 29 28 28 28 24 16 12 13 26 29 12 7 7 8 8 8 9 9 9 9 9 9 9 10 10 10 10 10 10 10 10 9 9 8 8 8
38 38 38 37 37 36 34 32 29 29 29 28 22 15 10 13 28 24 12 8 8 8 8 8 9 9 9 9 10 10 10 9 9 9 9 9 8 9 9 9 11 12 13
41 41 40 41 39 38 36 33 31 30 31 29 27 21 16 10 20 27 24 19 15 12 10 10 9 9 9 9 9 9 9 9 9 9 9 10 11 13 15 16 18 18 17
42 42 43 43 41 41 39 35 32 32 31 28 27 27 22 17 10 18 25 24 23 22 21 21 21 20 20 20 20 20 20 20 20 20 20 20 20 20 19 18 19 19 19
44 44 44 42 41 42 41 38 34 33 32 31 29 28 27 23 20 16 13 13 14 14 16 16 18 20 20 21 21 22 22 23 23 24 25 23 24 24 24 23 23 23 23
43 43 43 42 42 43 41 40 36 34 34 34 33 31 29 29 25 23 25 25 26 27 26 27 27 28 29 29 29 28 27 27 26 25 23 22 22 21 21 20 21 21 21
44 44 44 43 43 44 43 42 40 36 36 36 35 33 32 31 31 30 25 26 28 28 28 28 29 29 29 29 28 28 26 24 23 21 20 21 21 22 22 21 21 21 22
43 42 44 44 43 46 45 44 42 39 39 39 38 36 35 34 32 32 32 30 26 29 29 30 31 31 30 30 30 28 27 28 28 28 26 26 26 26 26 26 25 25 26
47 44 44 43 43 47 45 44 44 42 40 42 41 40 39 37 36 35 35 35 34 31 32 32 32 32 32 31 31 31 31 29 27 26 23 29 28 25 18 8 5 5 6
48 49 48 48 44 44 44 43 45 46 44 43 44 43 42 41 40 38 37 38 37 36 35 34 33 33 33 32 32 31 27 27 30 28 22 13 5 2 3 6 6 7 7
45 51 50 47 45 44 47 51 51 46 44 44 44 46 46 44 44 42 41 40 40 39 38 38 35 34 33 32 29 28 31 32 27 18 7 4 7 7 7 7 7 7 7
39 49 52 50 47 45 45 46 51 46 49 48 45 46 47 47 47 46 44 43 42 42 40 40 37 34 33 29 29 34 32 25 11 5 7 8 9 9 9 9 9 9 10
39 45 51 51 49 48 46 47 56 54 51 48 48 46 48 47 48 49 48 45 45 44 41 40 37 34 29 33 34 32 24 8 7 8 9 10 11 12 13 14 14 14 14
45 44 46 50 52 52 52 49 47 48 49 50 48 50 49 48 49 54 54 46 47 45 40 39 36 30 36 34 29 22 8 8 10 10 12 14 15 16 16 16 15 14 14
45 51 49 48 50 50 52 53 54 54 54 51 49 48 48 50 50 56 54 47 46 42 39 37 31 36 32 22 14 9 9 10 12 13 16 18 18 17 16 17 17 17 17
60 48 48 50 50 48 49 51 52 58 59 60 54 53 52 50 52 53 53 46 46 40 41 33 37 29 19 14 11 10 11 13 16 19 19 19 19 19 19 20 20 19 19
68 52 52 45 48 50 48 46 45 50 57 60 56 56 55 50 50 48 48 46 42 41 36 38 28 23 23 19 15 13 13 15 17 20 20 21 21 21 22 21 21 20 19
40 44 42 47 43 48 48 43 43 42 48 58 57 58 52 46 45 45 45 48 43 39 39 31 36 40 41 41 37 25 16 16 19 22 24 24 24 24 24 23 22 21 20
31 32 35 41 45 45 47 42 44 45 54 59 63 60 52 46 46 46 52 48 44 40 35 43 40 39 38 37 38 34 20 15 16 21 24 25 25 25 23 23 22 21 20
24 27 36 41 45 45 42 41 44 50 58 59 63 62 50 46 50 53 57 53 42 40 45 44 48 49 48 47 44 41 27 13 10 12 16 20 22 24 24 24 22 19 17
25 27 32 33 42 48 41 37 41 48 60 64 61 58 56 51 53 91 63 46 45 45 46 50 54 54 54 54 52 51 45 33 21 17 16 19 23 25 24 21 19 16 14
36 36 29 37 37 42 44 46 49 60 68 61 60 60 56 60 84 94 66 49 46 49 50 55 57 57 57 56 56 56 51 43 25 16 18 24 25 23 21 19 17 14 10
29 48 30 36 38 39 49 53 57 62 63 55 58 55 51 58 99 68 52 51 51 51 55 59 60 58 58 58 59 59 54 41 19 19 25 26 24 21 18 15 11 10 12

GFSSE_700_rhum_018.txt.gz
RH
32 32 32 32 31 25 26 27 25 21 19 21 25 29 30 15 7 3 3 3 4 4 4 4 5 6 7 7 6 6 5 6 7 8 8 8 8 9 9 9 9 11 12
33 33 33 34 28 26 28 27 26 21 20 16 16 20 26 30 11 6 3 4 4 5 6 7 7 8 8 9 9 8 8 8 8 8 8 8 8 10 10 10 10 11 11
35 33 34 30 28 29 30 28 27 27 27 25 17 13 14 25 28 9 5 4 6 7 8 8 8 8 8 9 9 9 9 9 8 8 9 10 10 10 10 10 10 10 10
35 34 34 32 32 33 33 31 29 28 29 28 24 16 11 13 27 25 9 7 7 8 8 8 9 9 9 9 9 10 10 10 10 10 10 10 10 10 9 9 8 8 8
35 36 34 35 35 37 36 33 30 29 30 29 27 24 16 9 16 27 20 10 8 8 8 9 9 9 9 10 10 10 10 10 10 9 9 9 8 9 9 9 11 12 14
37 38 38 38 39 40 38 35 32 32 32 29 27 26 23 15 9 21 27 24 19 14 12 11 11 11 10 11 11 11 11 11 12 13 14 16 18 19 20 21 21 20 20
40 40 42 41 42 40 40 37 35 33 32 29 27 26 26 21 16 12 20 24 24 22 21 20 19 18 16 17 16 17 16 17 17 16 17 16 17 18 18 20 20 22 21
43 43 43 43 44 41 40 40 37 34 33 33 31 28 26 26 24 21 20 18 19 21 22 23 24 24 24 24 25 24 24 24 23 24 22 21 22 21 21 21 22 21 21
46 46 44 44 44 42 41 42 40 36 34 34 32 31 28 26 26 27 24 24 25 26 26 25 26 26 26 26 26 25 25 24 24 23 21 20 19 18 18 18 19 18 18
46 45 44 44 44 42 42 44 43 40 36 36 36 36 35 33 30 29 29 29 26 25 27 27 27 28 28 28 28 27 27 26 25 24 24 24 24 24 24 24 23 23 24
45 44 44 45 45 44 43 43 44 44 39 38 39 40 39 38 36 34 32 32 32 31 29 28 28 28 28 29 30 30 29 29 28 26 25 24 23 22 24 23 22 18 11
46 45 43 42 42 43 43 47 47 44 43 40 40 42 42 41 40 38 36 34 35 35 34 32 31 31 30 29 29 30 29 28 25 22 23 26 24 18 9 2 2 3 5
46 48 46 45 43 42 42 44 44 44 44 44 44 42 45 44 44 43 42 39 37 37 36 34 33 32 31 31 31 30 26 25 26 26 26 22 13 4 5 7 7 8 8
37 42 47 49 49 46 47 45 45 46 47 47 46 44 44 46 46 46 45 44 41 38 38 37 34 33 32 32 30 26 26 30 30 26 20 8 6 8 8 9 9 9 9
75 38 36 48 51 50 47 48 47 51 51 53 46 49 45 45 47 48 47 47 47 44 39 39 37 35 33 32 27 28 31 30 26 19 8 7 8 10 10 11 12 14 14
58 45 39 38 49 51 50 48 49 48 50 52 52 52 48 48 47 47 49 52 52 48 42 40 38 35 33 29 29 31 27 24 15 10 8 9 11 12 14 15 16 16 15
49 46 43 40 41 52 51 51 50 50 53 54 50 49 54 55 48 51 52 53 54 50 44 42 38 35 33 30 31 23 17 12 10 10 10 12 14 16 17 17 16 16 17
65 55 50 44 43 44 52 53 53 54 55 51 52 50 49 47 48 50 51 54 55 51 45 42 37 34 31 31 22 16 12 10 10 12 14 17 19 19 18 18 18 19 20
65 67 70 62 40 41 44 52 52 54 54 55 58 57 53 52 54 53 52 52 54 51 45 41 36 33 33 26 26 24 17 12 12 13 15 18 20 20 20 20 21 21 21
50 67 70 69 58 44 44 49 51 50 50 49 49 50 55 56 56 56 52 50 50 49 46 41 35 33 31 34 32 30 33 31 23 15 14 16 19 23 24 24 24 24 23
29 57 69 70 66 57 47 45 43 45 48 47 43 41 49 58 58 57 49 43 48 50 47 39 36 34 36 34 35 34 33 32 27 19 14 15 17 20 23 24 24 23 22
23 30 62 70 67 50 51 50 52 49 48 44 41 50 54 59 60 60 49 45 52 52 47 40 37 39 40 44 44 45 46 43 42 34 24 17 12 12 14 16 20 22 22
25 28 37 66 71 49 47 52 52 52 48 43 42 51 56 64 68 60 49 47 59 56 44 41 42 42 46 49 50 51 51 51 51 46 42 30 22 19 20 23 24 23 22
23 26 41 41 52 50 47 42 45 50 48 44 47 54 66 72 69 58 55 50 67 58 45 45 46 49 52 52 52 53 52 54 56 54 47 32 21 20 24 24 23 21 19
35 40 30 48 57 50 32 43 44 49 47 43 53 66 73 72 63 59 65 74 89 52 48 49 50 55 56 56 55 54 54 55 58 58 53 34 22 24 25 23 21 19 16
32 43 48 54 65 66 45 39 41 51 47 43 56 69 72 66 64 60 69 95 86 53 52 52 54 59 60 59 57 57 58 58 60 60 52 29 23 24 24 21 17 13 12

GFSSE_700_rhum_021.txt.gz
RH
31 33 33 33 32 27 32 26 26 22 19 17 16 19 26 28 12 6 3 3 4 4 4 4 5 6 7 7 7 5 5 5 6 8 8 8 8 9 9 9 9 10 11
33 33 33 34 31 30 33 30 27 26 26 24 19 14 16 25 27 8 4 4 4 5 6 7 7 8 8 9 9 8 8 8 8 7 8 8 8 9 10 10 10 11 11
38 34 34 33 29 30 31 30 29 28 27 27 24 18 11 15 27 22 7 4 6 7 8 8 8 8 9 9 9 9 9 9 9 9 9 10 10 11 11 11 10 10 9
40 35 35 32 32 32 34 33 31 29 29 28 27 24 16 9 17 27 16 8 7 8 8 9 9 9 9 10 10 10 10 10 10 10 11 10 10 10 10 9 8 8 8
38 35 35 32 34 36 38 36 33 32 32 30 28 26 23 13 9 22 25 16 9 8 8 9 9 9 9 9 9 9 9 9 9 9 9 9 8 8 9 10 12 14 16
37 36 36 36 35 41 37 38 35 34 33 31 28 25 25 22 12 12 24 26 23 20 17 16 16 15 16 16 17 18 18 18 18 18 19 19 19 19 19 19 18 17 16
39 38 39 41 40 42 37 39 37 36 34 33 30 26 24 24 22 16 13 16 19 19 18 16 15 16 16 16 17 18 19 20 21 17 18 20 19 20 20 21 21 21 20
40 41 43 43 42 44 39 40 41 38 35 34 30 27 26 24 24 24 22 21 22 22 22 22 22 22 23 24 24 23 22 23 23 22 22 21 20 20 19 19 18 18 18
46 43 44 45 44 44 42 41 42 41 37 35 32 35 36 34 29 26 26 26 25 24 23 24 24 25 25 25 25 24 25 24 22 22 22 21 21 22 22 23 23 23 23
48 47 47 46 44 44 44 43 42 43 41 37 36 38 41 40 38 35 32 30 28 28 28 26 25 26 26 26 26 27 27 26 25 26 26 25 25 24 22 21 22 22 21
45 45 47 46 44 44 44 44 44 44 44 42 40 40 42 42 41 40 38 35 33 32 31 30 29 28 28 28 27 28 29 28 26 25 24 23 23 22 22 20 14 8 4
46 45 45 45 45 46 45 45 44 47 47 44 42 42 43 44 44 44 44 42 39 36 34 34 33 31 30 30 29 28 29 27 24 23 25 27 26 22 15 6 3 5 6
42 47 46 45 45 44 43 43 43 46 47 44 45 45 45 43 45 46 46 46 45 44 42 38 35 34 33 31 30 29 27 24 25 29 27 25 20 11 6 7 7 8 8
40 37 41 46 47 45 44 44 44 44 45 45 46 48 47 45 44 45 46 47 47 47 47 44 39 36 33 31 30 30 26 26 29 27 24 17 10 7 8 8 9 10 11
39 33 32 35 39 42 43 44 43 48 46 47 52 52 48 49 48 46 47 47 48 51 49 48 43 37 34 32 30 27 29 29 25 22 16 9 7 8 10 11 12 13 15
63 51 42 36 39 40 39 42 46 50 50 49 52 53 51 52 51 50 50 48 48 50 51 50 45 38 36 33 30 29 29 23 17 13 11 9 10 11 12 14 16 16 16
66 65 54 43 41 43 40 40 45 51 51 49 47 50 54 51 50 56 52 49 50 52 53 52 46 40 38 33 30 30 24 20 14 11 10 12 13 14 17 18 18 17 17
50 70 65 50 40 46 45 44 50 52 54 53 50 50 49 50 52 50 47 49 51 52 54 52 47 42 38 33 31 29 28 26 20 13 12 13 15 18 20 20 20 20 20
48 49 72 64 44 40 49 49 51 56 56 55 55 55 52 54 54 52 52 54 54 52 51 52 49 43 38 33 31 33 30 27 28 29 24 17 14 14 17 20 23 23 23
29 50 66 73 66 50 41 53 55 58 57 55 54 53 53 52 53 55 56 58 57 51 49 54 51 45 37 33 35 33 34 33 33 31 28 23 17 14 15 17 20 21 22
24 45 65 73 73 69 54 45 50 53 51 51 50 48 47 45 45 47 56 59 59 51 47 54 52 45 37 37 38 40 42 43 44 44 45 42 38 34 27 18 14 14 15
34 35 46 70 73 72 69 61 56 59 57 54 56 54 48 45 43 48 60 60 61 53 51 56 54 43 40 41 44 46 47 47 47 47 48 49 48 45 38 27 20 19 20
31 33 38 51 71 72 71 65 61 55 59 58 56 52 48 44 42 57 66 70 62 51 53 61 54 42 44 46 49 50 50 49 49 50 50 51 51 49 42 28 23 23 23
20 26 38 50 59 70 70 70 72 57 52 49 54 56 55 49 52 63 74 74 60 56 63 68 51 45 46 49 52 53 53 52 52 53 53 54 54 51 41 26 24 24 23
10 18 27 38 57 61 64 66 69 61 60 53 57 59 57 57 63 71 80 71 64 83 77 71 50 48 48 51 54 55 54 53 54 56 55 57 57 48 34 25 25 24 22
16 20 35 47 44 67 63 64 66 58 47 54 60 59 56 55 67 75 80 73 78 89 88 84 51 51 51 56 58 57 57 58 58 58 57 56 54 49 30 26 24 20 16

GFSSE_700_rhum_024.txt.gz
RH
33 33 33 33 33 32 36 31 26 26 25 23 17 15 20 26 25 8 3 3 3 4 4 4 5 6 7 7 6 4 4 5 6 8 9 9 9 9 9 9 10 10 11
32 33 34 34 33 32 34 31 29 28 27 25 24 18 13 18 26 20 6 4 4 5 5 6 6 7 8 9 9 8 7 7 7 7 8 8 8 9 9 11 11 11 11
33 34 34 34 31 33 34 34 32 29 28 27 25 24 17 10 21 26 10 5 6 7 8 8 8 9 9 9 10 10 10 9 9 9 9 9 10 11 11 11 11 10 10
37 34 34 33 31 34 36 35 34 32 32 32 29 27 23 12 12 25 19 8 8 8 9 9 9 9 10 10 10 10 10 10 10 10 11 11 11 11 10 10 9 8 9
39 36 36 33 33 35 40 34 35 34 34 33 30 26 25 20 10 16 25 22 14 9 8 8 8 8 9 9 9 9 9 9 9 9 9 9 9 9 10 14 16 17 19
40 36 36 34 36 40 40 36 37 35 35 33 32 28 24 24 17 11 16 25 26 25 24 22 21 21 20 20 20 19 19 18 18 17 17 17 17 16 18 17 16 16 18
42 37 38 37 39 42 40 37 38 38 36 35 32 26 24 22 23 20 17 15 15 16 16 17 17 17 18 18 18 19 19 18 20 21 21 21 21 21 21 22 21 20 20
43 39 39 42 42 43 44 38 40 41 38 36 34 31 33 30 24 23 24 23 23 22 22 22 23 23 23 22 22 22 22 22 22 22 22 21 20 20 20 20 20 21 21
45 41 41 43 44 45 44 43 41 41 41 38 36 36 40 40 39 34 29 26 25 25 25 25 25 25 25 25 24 24 23 23 24 24 24 23 24 24 25 25 24 24 23
48 46 43 45 46 46 45 44 43 43 43 41 38 38 41 41 40 39 37 34 32 31 30 28 28 28 28 27 27 26 25 25 26 25 26 26 24 22 21 23 24 22 23
43 54 53 49 47 46 45 45 44 44 44 44 42 40 42 43 44 44 44 42 41 38 36 35 32 30 30 30 30 28 28 28 27 26 24 24 24 23 24 23 18 12 6
46 49 51 48 48 46 46 45 45 45 45 47 46 43 41 43 44 46 46 46 46 45 44 44 41 36 33 31 31 30 30 28 25 26 28 29 27 24 21 12 6 5 6
46 45 48 50 48 46 46 46 46 45 45 48 47 45 44 46 44 44 46 47 47 46 46 46 45 43 38 34 31 29 29 26 26 30 28 27 24 18 10 7 8 8 8
44 43 42 44 50 50 48 45 44 43 44 45 46 46 46 48 47 46 45 47 48 48 49 49 48 46 41 36 34 30 29 28 30 26 23 20 14 10 8 8 9 10 10
43 44 42 41 37 39 52 52 50 48 48 46 46 46 49 52 50 48 48 48 50 48 48 50 50 49 44 39 35 31 29 29 26 19 15 13 10 9 9 10 11 12 14
50 38 36 33 28 28 33 35 40 50 48 48 49 48 50 53 50 51 51 52 53 51 50 50 51 51 48 41 37 32 30 28 23 17 12 11 11 11 12 13 14 16 17
56 56 47 37 34 30 34 37 40 40 47 50 51 52 50 54 55 52 51 54 53 51 50 51 52 53 50 43 39 33 30 28 29 25 18 12 12 14 16 18 20 20 19
60 61 55 51 46 41 34 40 40 44 49 50 52 52 50 53 51 50 52 52 49 50 52 53 53 53 51 46 40 34 31 33 30 29 29 26 20 15 15 18 20 21 21
53 64 65 54 46 49 44 47 47 45 51 48 51 50 53 52 52 52 56 54 53 55 57 56 53 53 53 49 41 34 34 33 33 33 33 31 28 23 17 15 16 18 19
53 62 69 71 58 56 63 57 55 52 52 54 46 47 54 54 54 53 55 52 56 59 60 58 52 54 58 51 41 36 36 39 41 43 43 43 44 43 42 38 34 28 22
40 46 62 71 68 58 54 59 55 52 49 53 48 46 48 53 51 49 47 47 60 65 64 61 54 57 60 51 40 39 41 44 46 46 46 46 46 46 47 47 45 38 31
24 24 21 26 63 72 60 63 77 67 55 61 60 56 56 56 54 51 47 50 62 67 67 65 56 60 62 49 42 42 44 47 48 48 48 48 49 49 48 47 46 45 41
24 28 29 25 66 74 73 70 68 74 71 57 53 56 57 57 55 52 49 51 64 71 70 66 59 66 64 48 45 46 49 50 50 50 48 49 51 51 51 51 48 45 41
20 30 35 40 37 62 70 72 71 71 65 59 60 58 62 64 64 60 52 49 70 80 75 66 71 78 63 50 49 51 54 55 54 52 50 53 56 57 57 56 52 47 38
11 17 28 38 48 50 47 61 70 72 74 74 72 67 65 66 66 64 57 64 76 84 84 70 76 88 62 54 53 55 58 58 56 56 56 59 60 62 61 60 55 41 28
18 13 12 22 45 57 62 59 62 70 71 74 77 70 67 67 65 64 58 62 93 90 85 97 96 88 71 57 57 56 60 60 58 58 58 61 62 63 65 62 47 30 25

GFSSE_700_rhum_030.txt.gz
RH
31 34 33 34 33 33 35 32 30 30 28 28 26 22 16 13 21 25 10 4 4 4 4 4 5 8 8 7 5 5 6 8 8 9 10 10 10 9 9 9 10 11 12
32 35 34 34 34 33 36 34 30 32 33 32 30 26 20 13 18 25 13 5 6 7 7 7 7 8 9 10 8 7 6 5 6 7 8 8 8 8 9 10 11 12 12
37 33 34 35 35 35 37 35 29 33 33 34 30 28 24 15 14 24 16 8 7 8 8 9 9 9 9 10 10 10 10 10 10 10 10 10 10 11 11 11 11 11 11
38 33 34 34 34 36 38 33 31 32 33 34 32 28 25 19 12 20 22 14 9 9 9 10 10 10 10 10 10 11 11 11 11 11 11 11 11 11 10 10 10 10 11
39 33 34 34 32 37 39 35 35 35 35 34 34 29 25 23 16 14 24 25 22 18 14 13 13 14 15 16 16 17 17 17 17 17 17 17 18 18 19 19 19 19 18
38 34 35 35 33 38 39 36 38 36 37 36 36 28 24 23 22 18 14 17 21 22 22 20 18 18 17 17 18 19 20 20 20 20 20 19 19 19 19 18 19 20 18
46 40 36 36 35 38 40 38 39 38 37 38 36 36 38 37 28 22 22 22 20 20 20 20 20 21 22 22 23 23 23 23 23 23 22 22 21 21 20 20 19 19 19
44 42 38 38 36 41 43 40 39 40 39 40 38 38 40 39 39 35 27 24 24 23 23 23 24 25 25 25 26 25 24 24 24 24 24 24 24 24 24 25 24 24 24
41 42 41 40 38 41 45 45 42 41 41 40 40 38 42 42 41 43 42 40 39 38 37 35 33 30 27 26 26 26 26 26 26 26 25 24 24 24 24 23 23 23 23
40 45 44 42 41 42 46 46 45 44 43 42 43 41 41 44 44 44 41 42 44 44 43 44 43 41 37 33 30 28 27 27 26 26 24 24 25 26 27 27 25 24 22
34 34 42 45 43 44 45 47 47 46 45 44 44 44 43 42 45 46 47 46 47 47 46 47 47 46 45 42 37 33 30 28 27 26 26 26 28 28 27 25 23 18 11
39 38 38 48 48 47 46 48 48 47 46 46 46 46 47 44 43 45 46 48 48 48 48 48 49 49 49 48 46 41 36 30 28 27 28 27 26 24 22 18 13 10 8
50 44 42 40 50 55 52 54 49 48 48 47 47 47 48 47 46 45 46 46 47 48 48 49 50 50 50 50 49 47 42 35 30 28 27 24 20 16 15 13 10 8 8
38 44 50 48 49 51 54 51 50 49 49 48 48 48 49 48 47 47 48 48 48 48 49 51 50 51 52 51 52 50 46 41 34 30 28 25 21 14 12 11 10 10 10
39 38 41 45 44 46 48 52 51 50 50 50 49 48 48 48 48 47 49 49 49 50 50 52 52 52 52 53 54 53 50 45 37 32 30 30 28 23 15 13 12 13 14
39 39 39 38 39 41 44 44 47 51 54 53 51 50 50 50 49 48 50 52 50 52 52 54 56 55 53 54 55 54 53 49 42 34 32 32 30 27 25 21 17 15 16
41 43 44 43 43 39 38 44 47 48 44 48 51 53 53 53 53 52 52 54 53 55 54 57 58 57 56 56 56 54 54 52 46 36 34 33 32 31 30 28 27 25 24
45 43 46 48 47 39 37 40 40 44 43 42 44 50 48 50 55 56 56 56 60 60 56 58 55 58 59 59 57 55 54 54 47 38 35 37 39 40 39 39 39 40 40
50 50 49 51 49 45 38 41 52 53 52 48 47 45 45 48 54 55 56 59 64 59 58 57 59 60 62 61 58 56 56 57 48 38 38 41 43 43 43 43 43 44 44
54 55 56 56 56 52 46 43 46 51 56 52 50 47 47 49 55 57 58 57 56 57 61 62 60 58 63 61 60 60 59 59 48 40 42 46 46 46 46 45 44 45 46
37 51 54 58 57 60 61 59 53 43 44 48 51 51 51 52 57 58 62 63 62 62 57 54 53 58 58 62 64 64 61 59 50 44 47 49 50 49 48 46 48 49 50
26 27 35 49 54 61 69 69 72 72 62 62 66 62 58 56 60 63 62 63 57 58 53 52 52 54 59 66 69 65 60 58 53 48 49 52 52 52 51 50 51 52 53
33 33 33 30 30 39 40 64 70 75 76 71 64 59 52 58 60 59 59 62 60 55 56 55 55 57 70 71 73 69 67 63 56 53 52 54 57 56 55 54 55 56 57
19 29 37 38 41 43 36 33 50 67 69 71 74 68 63 49 62 62 62 66 68 62 63 63 60 66 77 83 81 72 72 69 60 56 56 58 59 61 60 59 58 59 58
14 16 18 34 40 49 57 58 50 42 44 56 60 62 68 66 68 80 78 75 73 73 75 72 81 73 82 85 91 81 78 75 65 61 60 62 64 66 65 62 61 61 61
22 21 22 21 25 30 33 38 50 66 63 53 48 52 65 66 71 74 73 76 74 72 71 78 80 81 71 100 87 89 91 86 77 66 65 65 67 68 68 66 65 65 66

GFSSE_700_rhum_033.txt.gz
RH
34 31 33 37 33 31 33 28 29 31 32 31 29 25 20 13 18 24 10 5 6 5 5 6 7 8 8 6 5 5 7 8 10 11 11 11 10 10 9 9 9 10 11
31 32 34 37 35 32 33 33 27 28 33 33 30 28 23 15 14 23 13 6 7 8 8 15 9 9 9 9 8 7 6 5 6 7 8 8 9 9 9 10 11 12 12
34 33 34 35 35 36 37 37 30 30 32 33 31 28 24 17 14 21 14 8 8 8 9 10 9 9 10 10 10 10 10 10 10 10 10 11 11 11 11 12 12 11 11
38 33 34 34 35 37 37 36 32 32 33 34 33 27 25 20 14 21 19 11 9 9 9 9 10 10 10 10 11 11 11 11 11 11 11 11 11 11 11 12 12 14 16
40 33 34 34 34 38 37 37 35 34 36 37 33 26 23 22 17 17 23 25 22 19 17 16 18 19 19 19 19 18 18 18 18 18 18 18 18 18 17 17 17 17 16
44 33 34 35 32 38 38 37 37 35 35 38 35 36 35 27 22 20 16 16 16 17 17 18 18 18 20 21 21 21 21 21 21 20 20 20 20 20 20 20 20 19 18
43 35 34 35 33 38 39 38 39 39 39 38 38 38 38 38 34 24 23 22 22 22 22 22 22 23 24 24 24 23 23 23 23 23 22 22 22 22 22 21 20 20 20
46 45 38 36 35 37 42 38 39 40 40 39 39 39 39 40 39 40 38 34 31 30 28 26 26 26 26 26 26 26 25 25 24 24 24 25 25 25 24 23 23 22 23
36 44 41 38 37 38 44 42 40 40 41 40 40 39 42 41 41 39 40 43 42 41 41 40 39 36 33 31 29 28 26 25 25 25 24 24 24 24 23 23 23 24 24
41 40 43 41 40 39 44 46 45 43 42 42 40 40 41 44 43 43 44 42 44 43 44 44 44 44 44 42 38 34 30 28 26 24 24 24 26 27 27 26 26 25 22
41 38 43 45 42 41 42 47 47 46 45 44 44 43 43 43 45 46 47 46 47 47 47 48 47 48 48 48 46 44 40 34 30 27 26 25 26 25 24 24 22 19 13
44 41 37 43 47 46 44 45 48 48 47 46 46 46 43 44 45 44 46 47 48 48 48 48 49 50 50 50 50 49 47 42 35 31 28 26 24 21 18 17 15 12 10
40 49 42 38 42 51 51 49 51 50 48 48 48 47 47 46 43 46 45 46 47 48 48 49 50 50 51 51 50 50 50 48 43 36 31 28 26 22 18 14 12 11 10
40 41 44 47 46 47 54 57 56 56 51 48 49 48 48 49 48 46 47 48 48 48 48 49 51 51 52 52 52 52 52 51 48 42 35 31 30 28 25 18 14 12 12
38 39 38 41 48 49 51 54 55 52 51 50 50 49 48 49 50 48 47 47 49 49 49 50 51 53 54 54 53 53 53 53 52 48 40 34 32 31 28 25 21 17 15
40 38 37 35 38 41 44 49 52 53 53 52 51 51 50 49 50 50 49 48 49 51 51 52 52 55 56 56 55 55 55 54 52 50 44 35 33 33 32 30 28 27 26
43 42 40 40 36 36 39 41 46 47 51 53 56 56 53 52 52 52 52 50 50 53 53 53 54 56 58 56 56 57 57 55 52 50 46 37 35 37 38 38 37 38 38
40 40 40 41 41 37 37 41 42 44 48 47 46 50 53 54 56 56 55 54 56 58 56 59 58 58 58 58 58 59 58 54 52 51 47 38 37 40 41 40 41 40 41
43 42 42 43 44 40 42 44 46 42 49 52 47 45 45 51 54 50 54 59 62 61 61 65 60 59 58 61 60 60 57 56 55 53 48 40 39 43 44 44 44 43 43
49 51 48 47 46 45 40 46 46 45 44 51 57 53 46 48 48 48 54 60 59 61 65 64 59 60 62 60 57 57 58 58 58 55 50 42 42 45 47 46 46 45 45
41 49 52 53 54 53 54 51 47 49 44 41 45 52 57 54 49 49 55 59 62 61 64 61 61 62 57 54 54 55 58 60 58 56 52 45 45 48 50 50 50 48 48
18 18 24 31 41 52 56 56 57 58 57 57 53 54 57 54 56 54 55 60 59 62 66 67 65 57 54 53 52 57 59 63 60 58 56 49 48 50 53 54 53 53 51
28 26 24 23 22 24 33 50 55 60 61 70 59 52 56 49 55 60 60 62 64 65 66 69 64 57 55 54 54 61 64 65 66 63 59 54 52 52 55 57 58 57 56
22 28 30 30 30 29 28 28 30 35 42 47 56 65 72 73 73 72 61 60 68 68 68 65 66 62 59 56 60 60 76 78 73 69 65 61 57 56 59 60 61 61 60
21 18 16 15 18 31 38 41 48 42 37 36 40 55 68 70 70 75 74 67 57 68 71 63 74 71 72 72 68 68 81 86 86 76 73 67 63 60 60 62 63 62 61
22 22 20 19 16 24 44 48 49 56 54 53 53 57 54 55 58 63 72 74 66 69 86 90 88 93 83 85 84 75 83 97 87 86 88 82 71 66 65 64 64 63 64

GFSSE_700_rhum_036.txt.gz
RH
33 30 33 37 30 27 31 25 26 30 32 31 29 25 20 14 18 21 8 6 7 6 5 7 8 8 6 5 5 7 8 9 11 12 11 11 11 10 9 9 9 10 11
31 30 34 37 34 32 33 32 29 26 31 32 30 27 23 15 14 20 10 7 8 9 10 9 9 9 9 8 6 6 5 6 7 7 7 8 9 9 9 10 11 12 12
34 31 34 36 36 37 36 37 32 30 32 32 30 27 24 18 14 19 13 8 8 9 21 10 10 10 10 10 10 10 10 9 9 9 10 10 11 11 12 12 11 11 10
36 32 34 35 35 38 36 36 35 32 33 30 30 25 23 20 15 20 21 15 10 9 10 10 10 10 11 11 11 11 11 11 11 11 11 11 11 12 13 16 17 19 20
35 32 34 33 35 37 36 36 36 35 35 34 30 28 24 22 17 17 23 24 22 19 17 18 18 18 18 17 16 16 16 17 17 18 18 18 17 17 17 18 18 18 18
37 33 34 34 33 38 37 37 37 39 37 37 36 37 36 29 22 20 17 16 17 18 18 18 19 19 20 20 20 20 19 20 20 20 20 20 20 20 20 20 20 19 19
41 38 34 35 32 38 38 38 38 40 39 38 38 38 39 36 34 26 23 23 23 23 23 23 24 24 24 24 24 24 23 23 23 23 23 23 23 23 22 23 22 22 22
46 38 34 36 34 37 40 38 39 40 40 38 39 40 40 38 37 40 40 37 34 31 30 28 27 27 26 26 26 26 26 26 26 26 25 24 23 23 23 22 22 22 22
35 46 40 37 36 35 42 39 40 40 41 41 38 39 42 41 40 40 38 39 40 40 41 41 40 39 37 34 32 30 28 27 26 25 24 24 24 24 24 24 25 26 25
40 41 43 39 39 37 40 42 40 41 41 41 41 39 38 43 44 42 43 44 44 44 43 43 43 43 44 44 43 40 36 32 29 27 26 25 25 26 25 25 24 23 21
40 40 43 44 41 39 39 44 45 43 43 43 42 43 40 41 44 45 46 46 46 47 47 48 47 46 46 47 47 47 46 43 38 32 28 26 25 23 21 20 19 17 14
47 43 38 38 46 43 41 42 47 47 45 45 44 43 44 41 40 44 45 47 47 48 48 48 49 49 49 48 47 47 48 48 46 40 36 31 26 24 21 17 15 13 11
34 43 44 38 40 48 47 44 44 48 48 47 46 46 44 44 44 42 44 45 46 47 48 48 49 50 50 51 50 50 49 48 49 47 44 39 32 28 26 21 15 12 11
33 32 45 42 39 37 50 55 50 48 52 50 48 48 47 46 47 46 46 46 47 48 48 48 49 50 51 52 52 52 52 51 50 50 48 44 36 32 30 27 23 17 14
34 35 36 44 44 45 46 49 58 59 58 57 52 51 48 48 48 49 48 47 46 48 48 48 49 50 52 54 54 54 53 54 52 52 50 46 40 33 32 30 27 25 23
38 35 36 37 37 35 42 48 48 54 57 55 54 51 50 49 48 48 50 49 48 48 49 49 50 51 52 55 57 55 55 56 55 52 49 47 42 35 34 34 34 34 34
42 42 39 38 38 39 35 33 40 43 52 57 55 53 52 52 51 50 50 50 50 49 49 50 52 52 53 54 58 57 57 57 56 52 50 47 43 36 37 38 38 38 39
44 42 42 40 40 37 35 39 40 39 43 49 55 57 57 57 57 56 52 51 52 52 51 52 56 54 57 57 59 59 60 59 55 51 52 50 45 38 39 41 41 41 40
38 41 42 43 42 40 35 36 36 43 45 46 46 49 52 52 54 54 57 56 55 54 55 57 60 58 62 60 60 60 62 57 54 51 53 52 47 41 39 43 44 44 43
23 33 39 40 42 42 40 37 38 34 47 48 43 37 44 47 50 51 52 56 54 52 57 60 63 63 69 62 60 63 60 53 52 53 55 55 50 44 41 44 46 46 46
16 18 24 35 40 47 47 44 40 36 32 37 47 44 47 57 59 54 53 52 51 52 59 63 63 64 65 60 64 63 57 53 49 51 56 56 53 47 44 45 48 49 49
14 15 18 24 35 39 42 42 40 46 47 42 48 52 54 51 57 63 61 56 56 55 60 63 61 63 62 64 66 60 54 51 46 53 59 58 56 52 47 47 49 51 52
21 19 17 16 17 19 24 30 36 41 40 44 48 53 55 56 56 56 59 57 62 64 60 64 62 64 69 72 67 62 55 51 51 59 63 63 60 56 52 50 51 53 55
22 22 25 28 28 26 25 23 22 21 24 30 46 52 55 60 66 62 55 63 67 64 61 65 66 68 69 66 68 62 59 57 58 59 66 67 65 61 58 56 55 56 56
23 22 21 20 21 21 23 25 28 29 28 28 35 40 44 53 69 74 70 63 66 66 68 68 71 69 69 71 71 69 70 72 68 68 71 75 74 70 67 64 61 60 59
25 23 21 19 18 16 16 15 22 37 44 43 44 47 52 49 48 53 60 66 67 73 71 69 70 66 73 82 79 81 81 90 86 86 89 94 85 78 75 76 70 67 65

GFSSE_700_rhum_039.txt.gz
RH
33 31 33 36 31 28 29 30 24 25 28 29 28 25 20 14 18 18 8 7 7 5 7 8 8 7 5 5 7 8 9 11 14 15 13 11 11 10 10 9 9 10 11
31 31 33 35 34 34 35 36 30 26 28 30 28 26 22 15 16 18 10 7 9 10 8 8 9 8 8 6 5 5 6 7 9 10 8 8 8 8 9 10 11 12 12
32 31 33 35 36 36 36 36 35 31 27 30 28 26 24 18 14 18 14 9 9 24 26 10 10 10 10 10 10 9 8 7 8 8 9 10 10 11 11 11 11 11 12
38 32 33 35 36 37 36 35 37 37 30 29 28 24 23 19 16 18 21 15 10 10 10 10 10 10 10 10 10 11 11 11 11 11 11 11 11 12 14 16 17 16 15
41 32 33 34 36 37 37 36 36 39 36 31 35 33 26 22 18 16 20 24 22 18 16 16 16 16 16 16 15 15 15 15 16 17 17 17 16 16 17 18 19 18 18
41 32 33 33 35 37 37 37 38 39 37 35 36 36 35 32 22 21 17 15 17 18 18 18 18 18 18 18 18 18 19 20 20 19 19 19 19 19 19 20 19 20 20
42 32 33 34 32 38 37 37 38 39 39 36 38 39 38 35 36 29 23 22 22 22 22 22 23 23 23 23 23 23 23 23 23 23 22 22 22 22 22 22 22 22 23
41 39 35 34 34 35 38 38 38 40 40 39 38 40 40 39 38 38 39 38 36 32 30 29 28 27 27 26 25 24 24 24 24 24 23 23 22 22 22 23 24 24 24
45 45 36 35 35 34 40 38 39 40 40 41 39 37 40 42 41 41 41 40 39 39 39 39 39 39 39 38 35 32 30 28 27 26 25 24 23 23 22 24 26 25 25
27 35 44 38 37 35 36 41 39 40 40 41 41 39 37 41 43 43 43 44 45 44 44 44 42 41 41 42 43 43 43 41 36 31 28 26 25 24 22 22 22 21 20
31 40 42 43 40 38 37 40 42 40 40 41 41 41 40 38 38 44 45 46 46 46 47 47 48 47 47 44 42 42 44 44 44 43 39 34 30 26 23 21 18 16 15
39 38 38 40 44 43 40 39 44 44 42 42 42 42 43 42 41 37 41 45 46 47 47 48 48 49 49 49 48 47 46 46 43 44 45 44 38 32 28 25 21 16 13
33 44 41 40 36 41 46 43 41 45 46 45 44 44 44 44 44 43 42 42 44 46 47 48 48 48 50 50 51 51 50 50 50 45 46 45 44 38 32 29 26 21 15
29 28 42 43 41 38 42 51 47 44 45 48 48 46 46 46 46 46 45 44 45 46 47 48 48 48 49 50 52 53 52 52 52 52 47 47 46 41 35 31 29 26 22
34 32 30 34 44 41 39 38 47 55 52 51 53 52 48 48 48 46 47 48 47 46 46 47 48 49 49 50 52 54 55 54 54 54 51 46 46 43 37 33 32 30 28
34 34 34 35 40 46 44 44 44 45 50 58 58 57 56 51 50 48 48 48 49 48 47 47 48 49 50 50 51 53 57 56 54 56 53 47 46 45 39 34 35 35 35
39 40 39 37 36 36 38 37 40 43 47 46 51 55 55 55 51 50 50 49 49 50 49 49 48 48 50 52 52 54 56 58 57 57 55 44 48 47 42 36 37 38 38
34 37 40 38 34 32 34 34 34 34 39 40 41 45 54 56 55 54 54 52 51 51 50 50 50 50 50 53 54 55 57 59 58 59 55 47 48 50 45 38 38 40 41
22 37 42 43 40 39 36 38 37 37 39 40 44 45 47 52 56 56 57 59 56 57 54 53 54 54 53 56 58 59 61 60 59 60 52 50 49 53 49 42 39 41 42
11 16 27 39 45 45 43 43 40 41 37 42 40 40 46 49 47 48 50 53 51 50 57 58 59 59 58 60 61 62 65 61 61 60 49 49 50 56 52 46 41 41 44
9 10 11 17 33 37 44 45 32 34 40 39 39 42 51 52 51 46 53 57 55 54 52 56 54 54 59 61 61 63 65 62 63 59 49 46 52 58 55 51 46 43 44
10 11 11 13 16 22 28 33 34 25 30 37 39 38 46 43 49 52 55 59 65 64 61 57 55 56 60 63 62 65 62 63 63 58 53 50 52 59 58 55 51 47 46
12 13 14 14 14 14 16 20 25 27 19 22 28 29 36 45 53 59 59 62 60 64 68 66 65 64 64 70 67 67 68 67 64 59 57 56 56 57 62 60 57 53 50
16 17 18 19 20 21 22 22 23 24 25 23 23 25 27 39 49 57 60 61 66 63 62 60 64 69 73 71 73 67 68 69 68 62 60 62 62 63 65 66 63 60 57
24 23 22 19 18 18 21 25 28 30 31 31 29 28 29 27 35 56 71 77 74 66 69 70 66 62 68 72 75 76 78 73 72 69 65 65 68 76 80 78 73 68 65
24 23 22 22 21 20 19 18 18 17 16 19 27 38 43 44 40 38 48 60 68 72 70 72 70 68 69 76 73 72 73 76 78 80 85 84 83 84 88 82 88 80 76

GFSSE_700_rhum_042.txt.gz
RH
33 31 35 32 32 32 31 32 25 24 26 28 27 25 20 14 16 16 8 7 7 5 6 7 7 5 5 7 8 10 12 13 14 15 13 12 11 10 9 9 9 10 11
30 30 34 32 34 35 36 35 31 26 27 28 27 26 22 16 14 16 10 8 9 8 7 8 8 8 6 5 6 7 8 10 11 10 10 8 8 9 9 10 11 12 11
31 32 33 34 36 36 35 35 35 33 25 29 27 25 23 18 15 17 15 11 10 11 9 10 10 10 10 10 9 7 6 7 7 8 9 10 11 11 12 11 11 13 16
35 32 32 35 37 37 36 36 35 32 30 29 28 25 23 20 16 19 20 17 12 9 9 9 10 10 10 10 11 11 11 11 11 11 11 11 11 13 15 16 14 14 15
37 33 32 35 37 37 37 36 35 34 30 31 33 33 31 22 20 16 19 23 23 22 22 20 20 19 18 18 16 16 16 16 16 17 17 16 16 16 17 17 16 17 17
35 38 32 34 35 37 37 37 38 37 33 28 34 33 33 34 24 22 19 16 16 16 16 16 16 17 17 17 18 18 19 19 19 18 18 19 18 19 18 18 18 20 20
36 41 33 33 34 36 37 37 39 39 38 34 31 39 40 33 36 35 28 23 22 22 22 22 23 23 23 23 23 23 23 23 22 21 20 20 20 19 19 20 19 20 20
41 40 33 33 34 34 37 38 38 40 40 40 38 33 40 41 40 39 37 37 37 37 36 36 34 33 32 30 29 28 26 26 24 23 22 20 20 20 21 21 22 21 22
44 40 37 34 34 33 37 38 38 39 40 41 41 41 37 41 43 42 42 44 43 39 38 38 38 38 39 40 40 39 38 36 34 31 28 26 25 24 22 22 22 22 22
40 46 44 37 35 35 34 40 39 39 40 41 42 40 39 39 39 44 44 45 46 46 46 46 45 44 43 40 38 38 37 38 38 40 40 38 34 28 24 22 20 19 19
27 29 33 41 40 37 36 37 41 40 40 41 42 42 41 39 38 37 43 46 46 47 48 48 48 49 48 47 46 46 44 43 41 35 35 39 40 38 34 27 24 20 17
26 26 27 38 42 43 40 38 38 42 41 40 41 41 42 42 41 39 38 39 44 46 48 48 48 48 49 50 50 50 50 49 49 47 42 38 37 37 35 32 28 26 21
26 25 29 35 39 41 44 44 41 40 44 44 43 43 43 44 44 43 41 41 42 42 45 47 48 48 49 50 51 52 52 52 52 51 51 47 42 41 38 35 31 29 26
29 27 28 31 34 34 36 39 46 46 43 43 47 47 46 45 46 46 45 44 43 43 43 43 47 48 49 50 50 51 53 55 54 53 53 53 47 41 41 38 33 31 29
36 35 32 30 32 37 37 37 36 39 47 48 45 46 48 49 48 47 46 46 47 47 46 44 45 45 47 48 50 51 52 54 56 55 54 54 53 42 44 41 35 33 33
38 37 36 35 33 31 39 43 37 38 37 40 49 54 54 53 54 53 50 49 48 47 48 48 48 46 46 46 48 51 52 53 55 57 55 56 56 43 41 43 38 34 35
34 36 37 38 36 32 34 40 42 43 44 46 48 48 50 54 57 57 56 52 50 49 49 49 50 50 49 47 48 49 52 54 55 57 57 57 57 46 42 45 43 37 36
34 38 25 24 33 36 34 36 37 37 36 35 33 36 40 43 51 57 57 56 54 53 53 52 51 50 50 50 51 50 52 55 56 59 59 57 59 49 44 46 47 41 37
18 21 31 32 22 26 36 37 36 40 40 38 39 35 34 34 40 51 60 61 59 58 61 61 58 58 56 54 55 55 54 58 59 61 61 59 58 51 45 47 51 46 40
16 14 16 24 34 35 31 35 37 36 40 44 42 42 42 40 36 42 51 56 53 52 50 53 52 53 63 65 63 60 57 60 62 63 64 61 61 53 44 49 54 51 45
14 11 10 11 13 18 33 47 43 35 41 45 48 50 48 45 42 38 46 55 54 50 50 59 58 56 60 62 61 58 62 68 66 67 67 62 63 55 48 43 57 55 51
11 9 9 9 10 13 19 23 35 33 24 24 28 36 50 51 46 42 42 45 53 57 56 59 62 66 64 61 60 63 67 67 67 67 65 65 65 59 53 50 56 56 56
10 11 11 12 12 13 13 14 16 19 17 14 14 16 22 38 52 50 48 45 51 55 62 65 64 64 70 71 67 68 68 67 68 68 68 70 69 62 58 56 57 59 60
11 12 14 15 16 17 17 17 17 18 21 24 22 22 22 24 26 46 54 53 56 60 61 63 70 70 71 68 70 68 71 71 74 71 71 71 67 65 63 62 65 67 69
17 17 19 21 22 21 19 18 18 20 24 30 36 34 28 25 26 27 30 38 57 67 65 72 72 69 68 74 71 70 75 77 74 75 78 74 73 73 66 73 78 78 78
25 24 24 23 21 20 18 18 18 18 17 18 18 17 16 15 18 22 32 37 39 44 57 62 74 81 78 74 72 74 72 76 80 77 79 80 81 81 79 81 85 87 90

GFSSE_700_rhum_045.txt.gz
RH
32 36 33 32 36 37 32 30 27 22 23 27 26 24 19 14 16 14 8 7 6 5 6 6 5 6 7 8 10 12 12 12 14 16 22 20 10 10 9 9 10 11 11
31 33 34 32 36 38 38 31 29 27 24 26 26 25 21 15 15 15 12 8 8 6 7 8 8 6 5 6 7 8 9 9 10 9 9 8 8 9 10 11 11 11 11
32 32 35 34 36 36 37 38 33 25 25 26 26 24 22 17 16 18 16 12 10 9 9 10 10 10 10 9 8 7 6 6 7 7 9 10 11 11 11 12 14 15 14
32 32 34 36 37 36 37 37 38 35 24 29 32 27 23 20 17 18 20 20 16 11 9 9 9 10 10 10 10 11 11 11 11 11 12 12 13 15 16 14 15 15 15
33 32 33 36 38 37 37 37 38 39 33 23 26 31 31 24 21 18 16 18 22 23 23 22 21 20 20 19 18 18 18 18 17 17 16 15 16 17 17 16 17 16 17
36 32 33 35 37 37 38 38 38 38 40 33 24 29 30 34 28 23 21 20 17 16 16 17 17 18 18 19 19 20 20 19 19 20 18 19 19 19 18 18 18 18 18
35 36 33 33 35 37 37 38 39 39 39 40 33 28 39 32 35 35 34 31 27 24 24 23 23 23 23 23 22 22 22 21 20 20 19 19 19 19 18 18 19 20 20
31 44 37 33 34 35 37 38 39 40 40 40 40 35 33 42 40 36 36 35 35 35 35 35 35 35 36 35 35 34 33 32 31 29 28 26 25 24 22 20 20 20 21
43 43 38 33 34 33 35 37 38 40 40 41 42 42 41 38 40 44 41 42 45 44 44 42 40 38 35 32 31 30 31 32 32 38 38 37 35 31 26 23 22 20 19
43 43 39 35 34 35 34 37 38 39 40 41 42 42 42 42 41 37 44 46 46 47 48 48 48 48 47 46 45 46 44 41 38 34 29 27 31 35 36 31 25 23 20
39 41 46 43 37 36 36 35 38 39 40 41 42 41 42 42 42 41 40 40 45 47 48 48 49 49 50 50 50 50 51 50 50 49 47 41 32 31 31 31 30 27 24
28 26 29 32 38 42 40 38 37 38 41 40 41 41 41 41 42 42 40 40 40 42 44 47 49 49 49 50 50 52 53 53 52 52 52 51 48 37 36 34 31 29 27
29 26 23 22 31 37 44 44 42 40 39 42 43 41 42 42 43 43 43 42 41 42 42 42 43 46 48 50 51 51 52 53 53 53 54 54 52 50 36 36 36 32 29
31 30 28 24 21 24 31 37 41 45 45 42 41 45 47 46 45 44 44 44 44 43 43 43 43 44 42 42 43 48 52 53 53 55 56 56 55 53 48 35 38 35 31
35 33 33 34 31 28 24 29 33 36 38 45 48 46 45 47 48 49 48 47 46 46 46 47 46 46 45 45 45 45 46 49 50 53 55 57 56 56 55 38 39 39 35
38 38 37 36 36 35 28 26 24 28 33 34 38 43 49 54 53 51 52 54 51 49 48 47 47 48 48 48 48 47 48 48 49 50 53 56 58 57 57 47 40 43 40
38 39 39 40 39 36 31 29 30 33 32 32 39 41 41 43 45 46 51 55 58 58 54 52 50 50 50 50 50 50 50 50 50 52 53 55 59 59 58 56 40 43 45
25 31 35 36 36 36 29 34 35 38 37 35 36 36 35 35 35 38 42 46 52 58 60 59 57 55 55 55 54 52 52 53 54 54 55 56 60 61 60 58 45 43 47
25 24 23 24 22 26 32 28 37 40 39 38 36 36 35 35 36 37 38 39 42 53 58 60 61 60 59 58 61 62 60 57 59 57 57 58 60 64 62 61 52 45 46
23 21 22 19 14 12 14 24 30 43 45 43 44 45 45 39 42 42 41 42 38 40 48 53 53 52 51 52 56 57 62 62 62 60 59 62 63 64 65 65 57 49 46
26 23 19 18 18 15 12 12 12 16 30 50 55 54 52 51 48 47 44 43 47 42 45 58 58 54 52 66 69 63 64 63 59 58 59 63 63 69 66 66 62 55 49
25 23 21 18 15 13 12 13 13 11 10 12 20 38 54 60 54 48 42 38 45 48 50 50 51 58 61 64 68 78 75 68 62 60 65 68 68 68 67 69 66 60 57
16 18 18 15 12 12 12 12 13 12 12 12 13 14 16 20 30 48 46 45 48 49 50 54 56 60 63 66 70 73 78 74 70 68 69 70 70 71 72 74 73 67 64
14 14 12 12 12 12 14 14 14 16 17 17 16 18 19 21 23 25 32 34 32 39 43 49 54 59 73 68 67 71 75 77 77 75 72 74 73 74 76 77 77 72 74
13 14 13 13 14 15 17 18 19 18 18 19 22 21 21 21 23 27 31 37 41 41 43 40 42 58 66 79 74 75 81 79 77 79 78 72 74 76 84 97 98 84 85
19 20 20 21 21 21 21 21 20 19 18 17 17 18 18 18 16 14 14 15 26 39 46 53 56 59 57 66 64 66 73 83 83 81 80 82 84 88 95 97 99 96 91

GFSSE_700_rhum_048.txt.gz
RH
36 38 38 38 38 37 31 29 28 23 23 25 25 23 18 14 16 12 9 7 5 6 7 6 6 7 9 11 13 16 16 15 12 13 18 17 10 9 9 9 11 11 11
36 39 37 37 39 40 39 36 27 22 23 25 26 24 19 15 16 15 12 9 7 7 8 8 7 6 6 7 8 8 8 9 9 10 9 8 9 10 11 12 11 12 14
34 37 36 36 38 39 39 40 39 29 20 24 25 24 22 17 16 18 17 11 9 9 10 10 10 10 9 9 8 8 7 8 9 10 11 11 12 11 12 14 15 14 13
33 34 36 36 37 37 38 39 39 39 28 20 27 26 23 21 18 16 19 21 17 13 10 10 9 10 10 10 10 10 11 11 12 12 13 14 16 16 15 16 16 15 14
33 32 35 36 37 37 37 38 38 39 40 28 24 29 30 24 22 19 16 16 18 20 21 20 20 20 19 19 18 18 17 17 17 18 17 17 18 18 17 17 17 16 16
32 33 34 36 37 37 38 38 38 39 40 40 31 24 28 32 31 25 22 22 21 20 20 20 21 21 21 21 21 21 21 20 20 20 20 20 19 18 18 18 18 17 18
34 33 33 35 37 36 38 38 39 39 39 40 41 35 28 30 32 34 34 34 32 32 31 31 31 30 31 30 30 30 30 30 29 28 28 27 25 24 22 21 19 19 20
37 34 33 34 36 37 37 38 39 40 40 41 41 42 38 35 34 36 34 35 35 35 34 33 33 33 32 31 32 31 31 32 32 31 32 34 34 31 27 24 23 21 20
32 41 36 33 34 35 36 37 38 39 40 42 42 42 42 41 39 38 40 40 41 44 44 45 44 44 44 43 44 45 44 43 41 39 34 27 25 28 31 32 28 24 22
40 43 45 37 34 34 34 36 38 39 41 42 41 41 42 42 43 43 41 40 43 46 47 49 49 50 50 49 50 50 50 51 50 48 45 44 42 32 28 27 27 28 26
42 44 41 36 34 34 35 34 36 39 39 41 41 41 41 42 43 43 42 43 42 43 44 47 48 48 49 50 49 50 52 53 53 49 50 49 47 44 37 30 30 28 26
36 38 42 45 43 40 37 37 37 36 39 40 41 42 41 41 41 42 41 42 43 43 43 43 44 47 48 48 51 52 52 53 54 54 54 53 52 50 47 39 32 32 29
31 29 27 26 28 31 40 42 42 40 39 39 42 41 41 42 42 42 42 43 43 43 44 44 44 44 44 44 43 46 47 49 51 54 56 57 57 56 53 52 35 35 35
32 30 28 26 24 26 32 37 41 44 45 44 42 43 45 46 45 44 44 44 44 44 44 44 45 45 46 46 45 46 47 47 47 49 53 55 57 58 57 56 54 36 39
34 33 32 31 30 29 26 25 27 32 36 39 44 47 46 45 47 49 49 49 48 46 46 45 45 46 47 47 47 48 48 48 48 49 50 53 55 58 59 58 57 46 38
39 38 37 36 36 35 34 30 26 26 26 32 37 38 43 48 51 52 52 54 56 57 57 51 49 49 48 48 49 49 50 50 50 50 50 50 54 56 60 60 59 56 41
39 41 40 39 38 38 37 35 31 21 26 32 38 33 36 41 42 41 43 44 47 51 56 59 60 57 53 52 52 52 51 52 52 52 52 53 53 56 58 62 61 60 48
33 39 40 40 40 39 38 36 31 22 22 30 35 38 40 38 36 34 32 30 31 36 42 47 57 61 60 61 62 64 66 63 60 56 55 56 57 58 60 62 64 63 57
22 21 25 32 36 39 39 37 38 35 26 30 35 37 37 36 37 38 37 35 34 35 35 36 39 49 55 55 55 56 58 58 59 61 62 64 62 59 62 65 67 66 65
25 24 22 21 21 25 27 23 23 24 21 28 34 40 41 42 43 42 43 45 51 48 43 41 39 41 47 53 54 52 57 57 58 59 61 61 61 60 64 69 73 71 70
31 31 30 26 22 20 19 18 17 17 23 31 39 47 45 47 44 46 45 47 52 49 49 52 50 47 50 53 57 55 59 70 70 66 65 62 60 65 72 73 80 77 74
35 34 34 30 27 24 22 19 15 12 11 13 17 29 38 46 45 44 48 46 43 42 44 48 58 59 56 58 60 64 66 66 62 65 76 73 70 70 73 75 74 78 77
33 29 27 28 29 26 23 18 14 11 9 9 10 12 14 18 21 27 36 34 29 26 25 29 40 56 57 63 67 72 77 72 69 69 71 74 76 78 78 73 76 79 84
23 20 19 22 22 20 16 14 13 13 12 12 11 12 13 15 18 20 23 26 29 30 28 28 32 37 44 50 64 66 72 82 84 78 73 75 76 75 77 80 82 84 89
18 16 16 16 14 13 13 12 13 14 15 16 16 15 16 17 18 19 23 28 33 43 48 46 44 50 52 54 53 59 89 79 77 82 80 86 87 84 82 85 80 90 99
15 16 15 14 14 14 15 16 16 16 16 17 17 18 17 16 16 14 14 16 18 18 21 61 52 52 52 68 72 63 62 68 94 98 93 95 85 81 84 84 97 98 96

GFSSE_700_rhum_051.txt.gz
RH
34 33 34 40 39 37 34 26 22 24 24 25 25 21 16 14 15 13 9 7 6 7 6 6 7 8 9 10 12 21 27 17 14 13 14 12 9 9 9 11 11 11 11
36 34 35 38 40 40 40 38 28 20 23 25 24 23 18 15 16 16 12 8 8 8 8 8 6 6 6 7 8 9 10 9 8 8 8 8 10 11 11 12 13 14 13
37 36 37 38 40 39 39 39 38 31 18 20 25 24 22 18 16 18 15 10 9 10 10 10 10 10 10 10 10 10 10 11 11 11 11 12 12 14 15 15 15 15 14
37 37 38 38 39 39 38 38 38 38 31 18 21 25 24 22 19 16 18 21 21 19 17 15 13 12 12 12 13 14 15 16 16 16 16 16 16 16 16 16 16 16 16
35 36 37 38 38 38 38 38 38 38 38 35 22 24 28 26 23 21 19 16 16 16 17 17 17 17 17 17 18 18 19 20 20 20 20 19 18 18 18 17 17 17 17
34 34 35 37 38 38 38 39 39 39 39 40 39 29 25 29 32 31 27 24 24 23 23 23 23 23 24 24 24 25 26 27 28 28 28 27 26 25 23 21 20 19 19
33 35 34 35 38 38 38 39 40 40 40 41 40 40 31 27 29 31 33 34 34 34 34 33 32 32 32 31 31 30 29 29 28 28 28 30 31 32 30 26 24 22 21
31 33 34 34 37 37 38 39 40 40 41 41 42 41 41 36 34 32 32 35 38 41 41 41 42 42 42 42 44 46 45 44 43 42 40 36 28 24 25 29 29 27 23
37 33 32 34 36 37 37 38 39 40 41 42 42 43 42 42 41 41 40 36 33 38 43 46 47 48 48 47 47 50 52 52 51 47 46 45 44 41 32 29 26 25 26
36 36 35 33 34 36 36 37 38 40 41 42 42 42 42 43 43 42 42 43 42 41 38 40 45 47 47 47 45 44 49 51 50 48 50 51 49 48 44 37 31 30 27
31 34 37 40 34 34 35 35 36 38 40 41 42 41 41 42 43 43 43 44 44 45 44 43 43 44 45 44 47 46 48 51 52 53 54 55 55 54 53 50 44 33 34
45 46 45 43 36 35 35 35 36 36 38 40 40 42 42 41 42 43 43 43 44 44 45 45 45 46 45 46 45 45 46 47 50 52 53 55 56 56 57 56 52 46 35
41 43 42 43 42 42 42 40 40 39 38 38 40 41 41 41 42 41 42 43 43 43 44 44 46 46 47 48 48 47 47 48 48 50 51 52 52 55 57 58 58 54 44
32 32 30 28 27 30 33 39 43 44 45 44 42 41 42 44 44 43 43 43 42 43 44 44 44 45 46 46 47 47 47 48 48 49 51 52 52 53 55 56 59 59 56
34 33 31 29 27 27 26 26 29 31 35 36 40 45 47 46 46 47 49 50 50 50 49 48 47 46 46 46 46 47 48 49 49 50 50 50 52 53 54 56 58 61 60
38 35 34 33 32 34 34 33 31 29 27 26 28 36 38 40 46 52 53 54 56 60 63 64 64 61 58 55 52 51 50 50 50 51 52 52 52 53 55 57 58 61 62
42 40 38 36 36 36 37 37 37 35 31 23 30 38 42 38 37 41 43 46 47 46 45 45 48 54 59 62 62 61 60 59 58 57 56 54 54 55 56 58 61 62 64
38 39 38 37 37 38 39 39 39 38 33 27 25 32 40 46 44 40 37 36 35 34 32 31 34 37 44 54 64 68 68 66 64 63 62 62 63 60 61 61 64 65 66
30 27 30 31 33 38 40 40 39 38 36 31 27 28 35 38 40 38 35 33 36 36 37 38 37 38 38 36 40 47 51 53 53 52 53 58 61 66 69 68 68 72 71
29 25 24 24 23 24 26 28 30 31 29 21 21 24 30 36 42 41 40 42 42 43 44 46 47 44 42 43 41 38 42 48 55 54 59 69 68 67 67 68 75 80 79
31 27 25 26 26 25 23 22 22 22 22 20 20 22 24 29 39 48 48 49 51 51 48 48 46 43 43 50 53 50 55 57 53 53 63 66 71 75 72 73 76 84 87
32 27 26 29 31 31 29 26 24 21 19 18 16 14 16 19 22 27 37 43 46 41 43 45 41 40 44 48 60 71 71 66 62 64 66 71 69 73 79 81 81 82 86
37 32 32 33 34 33 30 29 27 24 21 18 15 13 13 13 14 16 33 30 35 36 26 23 21 21 30 31 33 56 64 58 60 66 65 68 75 75 76 81 83 82 84
44 43 37 31 26 23 22 23 21 18 17 15 13 12 12 14 15 17 18 20 23 25 26 27 27 29 32 36 42 41 45 53 60 55 58 70 75 81 82 80 85 84 83
39 37 31 26 22 20 18 16 15 14 13 13 12 12 14 17 19 20 22 22 23 26 31 35 42 42 39 39 43 48 50 52 62 64 63 61 67 88 90 86 81 84 89
32 30 28 23 18 16 15 13 13 13 14 16 17 18 19 20 21 20 18 18 18 19 20 22 28 34 54 54 60 62 64 70 71 78 76 73 70 77 94 86 90 91 99

GFSSE_700_rhum_054.txt.gz
RH
30 27 32 39 38 37 31 22 19 22 24 24 23 19 16 15 16 13 8 7 7 7 6 6 7 9 10 11 14 22 24 14 11 10 9 8 9 10 11 11 12 13 13
33 33 29 36 40 40 39 34 24 18 22 24 24 22 18 16 17 14 9 9 9 9 9 8 7 6 7 8 8 8 8 8 9 11 11 12 12 12 14 14 14 14 14
36 36 34 34 40 39 39 38 37 26 18 22 24 23 21 18 16 18 16 13 11 10 10 10 10 10 11 11 11 12 12 13 15 16 16 16 16 16 16 16 16 16 16
38 37 34 34 40 39 39 39 38 38 30 19 19 25 24 22 20 16 17 19 20 20 20 19 18 18 18 18 18 18 18 19 20 20 20 20 19 18 18 18 18 18 17
39 38 36 37 40 39 39 39 39 38 38 34 23 21 26 27 24 23 22 21 21 21 21 21 22 22 22 22 23 24 25 27 29 30 29 29 28 26 25 23 21 20 19
37 37 36 37 39 39 39 39 39 39 40 40 37 27 23 27 30 32 32 32 32 32 32 32 32 32 32 33 33 32 31 30 28 27 25 25 27 28 29 28 25 23 22
36 36 36 36 38 39 39 39 40 41 41 42 41 39 30 29 29 30 33 34 35 34 34 34 32 32 33 36 39 42 44 46 46 42 39 36 33 26 23 23 27 28 24
33 35 35 35 37 38 38 39 40 41 42 42 43 42 42 40 34 36 35 32 35 37 38 39 40 42 43 45 47 49 50 51 48 44 45 43 42 42 39 31 27 25 26
32 33 35 35 36 38 38 39 40 41 41 42 43 44 44 43 42 42 42 42 42 39 32 30 34 37 36 37 40 40 42 44 45 47 50 51 50 49 47 44 36 31 31
35 32 33 34 35 37 37 37 39 41 42 42 42 43 43 44 44 44 44 44 44 45 45 44 44 43 44 43 42 43 42 42 44 46 47 48 48 47 51 53 47 44 32
38 37 35 34 34 36 37 36 37 39 41 42 42 42 41 43 43 44 45 45 45 45 46 46 46 46 47 47 47 46 47 48 48 50 50 49 50 52 53 56 57 54 48
28 32 36 36 36 35 36 36 36 37 38 40 41 42 42 42 42 43 44 44 45 45 46 46 46 46 47 48 48 47 47 48 49 49 50 51 51 52 52 52 54 58 58
45 42 42 44 44 37 35 35 36 36 37 38 39 40 40 41 41 41 41 42 43 44 44 45 45 46 46 47 47 47 48 48 48 49 50 51 52 52 52 53 53 55 60
50 48 47 45 42 40 40 41 42 41 41 40 40 41 42 43 43 43 42 42 42 42 43 43 44 44 45 45 46 47 47 48 48 49 53 50 51 51 52 53 54 55 55
37 34 33 31 32 33 33 34 37 40 40 42 43 45 47 47 47 47 48 49 50 51 52 53 54 54 52 51 50 49 50 50 49 50 50 51 52 53 53 53 55 57 58
35 34 32 31 29 28 28 29 28 27 27 26 26 28 34 40 42 46 49 52 56 58 60 60 60 59 60 62 63 62 60 58 56 54 53 53 53 54 54 55 56 57 60
39 38 35 34 32 32 35 35 36 36 35 32 29 24 26 31 37 37 37 44 49 48 45 42 39 37 39 44 53 62 66 68 68 68 67 66 65 65 63 61 59 60 61
46 45 42 42 40 37 37 38 38 38 39 38 36 30 22 28 38 45 48 45 41 38 35 35 35 35 34 37 40 45 51 58 63 63 61 60 59 60 64 68 70 72 68
43 42 41 40 38 38 39 40 40 40 40 40 39 36 31 30 36 40 41 41 41 39 36 38 42 46 48 47 44 42 43 42 46 52 58 58 56 59 64 68 72 74 73
38 36 35 30 26 26 30 32 34 36 36 37 38 36 35 33 30 32 34 39 42 43 46 46 49 49 48 49 46 42 47 50 49 46 51 54 58 64 72 76 75 73 73
43 41 37 32 26 24 24 24 23 23 23 24 25 24 24 24 25 28 26 29 47 52 53 54 51 45 42 50 50 42 40 49 53 62 65 66 64 66 70 73 78 82 80
44 37 35 34 32 30 30 32 31 29 27 24 23 22 22 20 17 16 18 19 22 29 37 48 56 62 47 33 29 27 30 29 27 43 60 64 66 69 70 75 80 83 86
41 35 33 33 33 33 35 35 33 32 31 30 28 26 23 20 18 24 26 22 23 17 31 43 24 21 21 24 30 35 36 40 38 39 42 49 56 61 61 70 90 90 89
44 40 39 39 38 38 38 32 26 22 21 19 19 20 19 19 17 15 15 16 17 19 20 22 26 32 60 45 35 44 46 47 50 50 57 50 56 70 70 80 78 84 86
41 36 36 36 37 36 30 26 23 20 16 14 12 12 13 13 13 14 15 16 18 21 21 23 25 41 35 25 26 22 29 41 48 56 52 61 64 67 69 71 75 80 98
44 38 34 35 34 31 28 26 21 16 14 13 12 12 13 13 15 16 18 19 20 20 20 20 21 22 22 23 24 29 40 46 61 78 76 67 60 62 54 55 54 51 61

GFSSE_700_rhum_060.txt.gz
RH
26 26 25 24 19 15 16 18 21 22 22 19 16 16 15 10 9 9 9 7 6 7 8 15 18 13 12 13 15 12 9 9 10 11 12 13 14 15 15 15 16 15 15
34 34 29 32 31 28 20 16 19 22 22 21 19 16 16 14 12 10 9 9 9 8 7 8 8 8 8 8 9 11 13 14 15 16 16 16 17 17 17 17 17 18 18
37 32 34 37 37 37 36 29 19 20 23 23 21 18 17 18 20 20 19 17 14 11 10 10 10 11 12 13 16 18 18 19 19 19 20 20 20 20 20 19 20 19 19
36 31 34 39 39 39 39 38 32 22 20 24 24 23 21 19 17 16 16 17 18 18 17 17 17 17 18 20 22 24 26 28 28 28 28 28 28 27 26 25 25 24 23
36 31 32 38 40 39 40 40 39 36 24 20 24 27 27 26 24 24 24 24 23 23 23 23 24 26 28 29 29 27 26 26 25 24 23 22 20 19 20 22 23 24 23
36 32 31 34 39 40 40 40 40 40 39 30 22 22 26 29 30 31 31 30 30 30 30 30 29 29 29 31 34 37 37 36 34 34 32 32 32 31 28 24 22 21 22
38 34 34 32 38 39 40 40 41 42 42 41 37 27 26 29 28 29 30 33 34 35 37 37 38 37 38 40 42 42 40 38 37 37 37 36 37 38 38 38 32 28 28
39 37 36 36 36 38 40 40 41 42 42 43 42 42 38 35 35 40 40 36 32 32 33 33 33 33 34 36 37 38 38 38 38 39 40 40 39 39 40 42 44 43 34
37 38 38 38 38 38 39 40 41 42 42 43 44 44 43 43 43 42 40 43 45 45 45 45 46 45 46 47 46 46 47 47 47 47 48 48 47 44 43 42 40 43 46
35 35 37 38 38 38 38 39 40 40 42 43 44 44 45 45 44 44 45 45 45 44 45 46 47 47 48 48 48 48 48 49 49 50 50 50 51 52 52 52 51 47 44
35 34 35 36 37 37 38 38 39 40 40 40 41 42 44 44 44 45 45 46 46 46 46 46 46 46 47 48 48 48 48 48 48 49 49 49 50 50 52 52 53 54 54
35 34 35 35 36 36 37 37 37 39 40 41 41 42 41 42 43 43 44 44 45 46 46 47 47 46 47 47 47 47 48 48 48 48 48 50 50 54 52 51 52 53 54
44 36 34 35 35 36 36 37 37 38 38 39 40 41 41 41 41 41 41 42 42 43 44 44 44 45 45 45 46 46 46 46 47 47 48 49 49 51 51 50 53 53 54
57 54 41 35 35 35 36 36 37 37 37 37 37 38 39 40 40 41 41 41 41 41 41 42 43 44 45 48 50 51 52 54 53 52 52 52 51 51 52 50 50 53 54
43 45 48 45 38 36 36 36 36 36 36 36 37 38 40 42 43 44 45 46 46 47 48 49 51 52 54 55 57 58 59 57 57 58 59 60 59 58 58 58 59 59 61
49 60 63 58 54 48 44 38 36 36 38 42 43 44 44 42 41 42 44 48 50 50 51 51 51 50 47 44 43 40 36 33 36 41 47 53 59 64 66 67 66 64 64
61 63 60 54 49 46 42 40 42 43 41 34 29 26 26 28 27 25 29 37 38 36 36 39 41 41 39 35 34 33 32 33 35 38 38 38 42 48 54 57 57 55 56
65 60 57 45 45 45 44 40 33 28 29 31 33 35 36 38 38 35 24 26 30 32 37 41 41 38 37 37 36 39 42 43 48 47 45 44 43 43 44 49 53 54 57
64 56 48 46 42 41 37 34 33 34 35 36 37 38 40 41 42 42 39 31 30 32 35 38 40 40 40 41 44 49 50 53 54 54 49 48 48 49 54 55 56 58 59
67 56 48 47 44 43 42 40 38 39 40 41 41 42 43 44 44 42 39 36 33 33 33 37 39 40 41 48 56 59 63 64 58 58 52 44 36 39 53 65 74 75 70
66 63 58 55 56 53 52 51 48 41 39 39 38 37 36 36 36 34 30 29 28 26 26 25 30 34 42 42 48 41 45 57 62 34 24 26 34 36 41 43 56 75 74
52 48 45 44 43 41 39 36 33 29 26 25 25 25 25 25 25 25 24 24 23 23 23 22 25 32 31 30 36 37 25 22 23 23 48 37 39 47 47 48 48 52 57
54 48 47 45 42 40 39 38 36 34 32 30 29 30 30 31 31 30 30 29 27 26 28 31 34 40 39 29 42 34 46 35 35 26 31 26 27 31 36 44 49 52 53
55 50 49 47 45 41 38 34 33 32 32 30 31 31 31 28 25 21 18 16 16 17 19 22 20 20 21 21 23 29 45 45 25 31 20 22 26 36 37 49 68 69 68
59 54 53 48 45 40 37 36 35 35 36 37 36 32 28 24 21 17 14 12 12 13 14 15 16 18 20 21 22 22 22 25 24 23 22 29 50 45 63 69 66 72 54
61 60 55 41 40 41 41 42 44 45 42 36 31 28 24 21 17 14 12 12 12 14 16 18 19 20 21 22 22 22 21 23 38 42 38 63 73 66 54 52 42 39 39

GFSSE_700_rhum_063.txt.gz
RH
26 23 18 13 12 14 17 20 21 20 18 16 16 12 10 9 8 7 6 7 8 13 55 61 37 14 13 12 12 8 9 10 12 12 14 14 15 15 15 16 16 16 16
33 28 22 17 14 12 14 18 21 21 20 18 16 15 13 11 9 9 9 8 6 8 10 10 9 8 8 8 10 12 13 15 16 17 17 17 18 17 17 17 17 18 18
36 29 26 27 27 23 18 15 19 21 21 20 17 17 18 20 19 17 14 11 10 9 9 10 10 11 12 14 17 17 19 20 22 22 23 25 25 25 24 24 23 22 22
32 31 32 33 35 34 31 23 17 20 23 22 21 19 17 17 17 17 17 18 17 17 16 16 17 18 19 21 24 26 27 26 24 23 21 22 21 21 21 22 23 23 25
33 31 36 38 38 38 38 36 28 20 20 25 27 26 24 24 24 24 23 22 21 21 22 23 25 27 28 28 27 26 27 28 30 29 31 29 27 24 22 19 18 18 20
34 34 36 37 39 39 39 39 39 37 26 21 24 27 29 30 30 31 30 30 30 30 29 29 28 29 32 37 38 36 35 35 33 34 33 32 33 32 32 29 25 24 24
35 32 36 35 39 40 40 40 40 41 40 35 24 24 25 26 28 31 32 33 34 36 36 37 38 40 39 38 35 33 31 32 32 34 34 33 33 33 33 33 34 33 29
36 34 37 35 37 39 40 41 41 41 42 42 40 37 31 31 34 35 32 30 31 31 32 31 31 32 33 35 37 39 40 42 42 44 44 45 46 45 42 40 36 36 37
37 34 38 37 36 39 40 41 41 42 42 43 43 43 43 42 41 40 36 42 45 45 46 46 46 47 48 48 48 48 49 49 49 50 50 50 51 51 52 52 52 51 47
38 36 39 38 38 39 39 40 41 41 42 43 44 44 44 44 44 44 45 45 45 42 45 46 47 47 47 48 48 48 48 48 49 49 49 49 49 50 51 51 52 52 53
37 39 40 38 38 38 38 39 40 40 41 42 43 44 44 44 44 45 45 45 46 46 46 46 46 46 47 47 47 47 48 48 48 48 48 49 49 49 52 53 52 52 53
34 36 41 38 38 39 38 38 39 39 39 40 40 41 42 42 43 43 44 44 45 45 46 46 46 47 47 46 46 46 47 47 47 47 48 48 49 50 50 52 51 49 53
38 34 34 38 39 40 39 37 38 39 39 40 40 41 41 41 41 41 41 42 42 43 43 44 44 44 44 45 45 46 47 48 49 52 52 52 52 53 53 52 52 51 49
48 42 35 34 35 36 39 37 36 37 38 38 38 39 39 40 40 40 40 41 41 41 41 41 42 43 45 47 51 52 54 56 58 58 57 58 58 57 57 58 58 58 58
56 52 46 39 36 37 36 37 37 37 37 37 37 37 37 38 39 40 42 43 44 45 46 47 48 50 51 52 51 47 45 42 38 34 34 35 38 43 48 46 51 62 64
54 56 55 53 45 37 37 38 37 38 37 37 36 37 38 42 44 45 42 41 43 45 47 49 50 48 48 44 40 37 33 30 30 32 34 36 38 38 39 38 42 43 47
44 46 53 56 49 49 44 38 39 38 37 36 38 43 44 36 28 27 27 25 26 28 33 34 34 36 41 41 37 34 32 33 38 41 42 46 43 42 43 42 43 42 42
46 45 47 50 52 51 50 50 45 39 37 43 42 34 29 32 35 37 38 38 31 23 25 29 35 39 40 39 38 38 38 39 47 50 53 54 50 43 47 48 48 48 50
54 55 60 57 55 52 48 45 42 42 42 32 31 34 36 38 39 40 41 42 41 37 30 30 34 36 36 35 37 36 40 47 55 59 61 58 59 58 40 37 36 50 59
68 64 64 56 50 49 46 43 40 35 35 37 38 38 40 41 42 42 42 43 42 39 35 33 32 30 29 30 34 36 43 40 42 44 52 61 55 25 24 26 35 36 43
68 66 67 53 48 46 43 42 38 38 40 42 43 42 41 41 40 39 37 33 33 33 32 29 27 26 24 35 42 38 36 35 42 38 27 25 30 40 46 35 40 41 45
74 70 67 56 51 49 46 46 48 48 48 41 32 29 29 27 25 24 25 26 26 28 28 29 30 34 32 37 36 53 53 42 42 41 32 35 33 37 27 32 38 40 43
71 68 68 65 59 54 54 50 46 43 39 36 33 29 27 28 29 30 31 32 32 33 30 28 26 28 35 39 41 36 28 29 30 33 34 26 32 25 21 23 37 44 44
66 61 56 52 47 46 43 41 40 38 37 36 34 33 33 33 33 33 32 29 25 21 18 16 15 16 17 19 20 21 24 28 29 26 23 25 25 25 29 58 47 55 68
66 62 60 50 47 46 46 45 43 40 38 37 38 38 36 36 36 34 29 26 23 19 15 12 12 13 15 17 20 22 21 23 24 25 24 23 39 44 48 74 64 50 47
70 67 60 55 53 53 55 49 50 45 41 42 43 42 41 37 31 27 23 20 16 13 12 12 13 15 17 19 22 23 22 21 22 23 25 28 41 52 63 96 79 56 42

GFSSE_700_rhum_066.txt.gz
RH
25 18 13 11 12 14 17 18 18 16 15 14 11 9 8 7 6 6 6 9 42 81 75 74 38 20 13 12 9 10 12 12 13 14 15 15 16 16 16 17 17 17 17
30 20 14 10 11 13 15 17 17 18 16 14 13 12 10 9 8 7 6 7 10 25 19 11 8 8 8 11 12 15 16 17 18 18 19 19 21 21 21 20 20 20 20
31 23 17 13 12 11 12 15 18 18 17 16 15 16 17 17 14 11 9 8 8 8 9 9 10 12 15 17 18 20 22 24 25 26 24 23 23 23 24 24 24 25 26
28 27 24 24 22 18 14 13 16 19 19 19 17 16 16 16 16 17 17 16 14 13 14 16 17 19 22 25 26 26 24 22 22 20 20 20 20 19 18 17 18 19 21
31 31 31 32 32 30 27 19 15 17 20 22 22 22 22 22 22 20 19 19 18 19 20 23 27 28 27 27 28 29 28 29 28 25 26 26 26 25 26 27 25 24 22
34 34 37 36 36 36 36 36 32 20 18 21 25 27 27 28 29 29 28 28 28 28 28 28 29 32 34 34 34 31 28 28 25 25 26 26 27 27 27 28 28 30 28
32 35 37 37 38 38 38 39 40 38 32 22 20 23 24 26 28 30 30 30 30 30 31 32 33 33 31 29 28 29 32 36 35 37 39 43 46 47 46 43 38 35 32
35 34 38 38 38 38 39 39 40 41 41 40 37 30 24 25 26 27 26 27 28 28 28 29 31 35 38 41 44 46 47 48 49 48 50 50 50 51 52 52 52 53 52
36 35 38 39 38 39 39 40 40 41 42 42 43 42 41 41 40 38 36 39 42 44 44 45 46 47 47 47 48 48 49 50 50 50 50 50 50 50 52 52 52 52 53
37 38 38 39 40 40 40 40 41 41 42 43 43 43 44 44 45 45 45 45 45 45 44 45 46 47 48 48 48 48 49 49 49 49 49 49 50 50 51 51 53 51 51
37 38 39 39 39 40 41 41 41 41 42 42 43 44 44 44 44 45 46 46 46 46 47 47 47 47 47 47 48 48 48 48 48 48 48 48 49 49 50 51 52 52 50
38 38 39 39 39 39 39 40 41 42 41 42 42 42 42 43 43 44 44 44 45 46 46 46 47 47 47 47 47 46 46 47 48 51 54 56 57 57 57 58 57 56 55
46 40 41 40 41 40 39 39 38 39 39 40 40 40 41 41 42 42 42 42 42 42 42 43 43 44 44 44 45 46 50 52 53 52 52 50 42 40 42 45 48 54 56
49 40 41 42 40 39 39 39 39 39 39 39 39 40 40 40 40 40 40 41 41 42 42 42 43 44 45 48 50 52 50 45 42 38 31 29 28 29 31 34 36 39 40
43 52 38 36 38 40 40 40 40 38 38 38 38 38 38 38 38 39 40 42 44 45 46 47 48 49 49 50 48 42 38 33 30 28 28 32 36 37 39 36 34 34 36
54 50 43 43 40 41 38 38 37 38 37 37 38 37 37 37 38 42 42 36 29 29 30 34 38 38 37 34 34 35 33 30 30 32 36 40 42 44 44 43 39 41 39
64 58 51 48 48 46 39 37 37 37 38 37 37 37 36 38 44 32 27 31 32 32 28 21 22 24 28 33 36 37 34 32 32 34 37 46 51 52 51 56 55 48 44
47 52 59 57 56 55 51 47 40 38 37 37 37 37 40 43 29 31 36 37 38 38 37 36 28 24 25 28 32 31 29 28 29 37 40 45 40 39 47 58 48 31 26
49 48 49 52 49 53 48 45 45 43 44 42 38 42 38 30 34 36 38 39 40 41 40 36 36 33 28 26 28 31 32 38 41 46 43 40 45 43 25 22 24 29 30
59 52 51 52 51 49 48 46 49 50 45 42 44 35 34 36 36 38 39 40 39 40 35 32 28 28 28 27 29 28 33 39 37 32 42 40 38 35 34 31 30 43 32
65 61 59 59 61 59 56 52 48 47 46 44 39 39 38 39 39 39 39 34 28 26 26 26 27 28 28 30 34 36 49 46 43 50 41 40 37 38 38 28 39 25 24
75 67 66 66 63 58 52 52 51 49 45 43 44 45 44 38 31 27 25 25 26 28 30 32 33 34 33 31 27 28 34 34 34 32 24 20 20 26 30 28 24 23 30
73 73 68 66 65 60 51 50 49 45 45 50 49 48 32 32 30 29 28 29 29 30 31 31 28 24 20 17 19 20 36 26 21 21 25 24 23 25 29 27 29 34 63
64 77 75 70 66 66 61 53 54 54 52 49 46 56 38 38 35 33 33 31 32 33 30 27 24 22 18 15 14 15 20 25 33 24 23 24 25 25 24 28 42 47 70
53 58 74 72 71 68 67 60 52 48 44 42 40 40 38 36 35 35 36 37 35 31 28 23 19 16 14 13 16 17 18 20 22 24 24 24 28 25 26 39 38 53 78
54 59 72 72 65 61 51 49 50 48 48 46 44 42 41 39 39 42 41 34 31 30 26 22 17 13 13 14 16 18 19 19 17 20 24 28 31 36 45 96 92 49 90

GFSSE_700_rhum_072.txt.gz
RH
23 18 17 18 18 17 16 15 14 14 11 8 6 5 5 8 31 64 68 73 76 73 68 64 30 10 8 11 13 16 18 19 21 21 21 21 21 22 22 22 22 23 26
23 17 16 17 17 17 16 15 14 13 11 9 8 6 6 7 18 81 72 73 74 68 30 9 8 11 14 17 20 22 22 22 21 18 17 17 16 15 15 15 15 15 15
19 16 14 15 15 16 16 16 14 13 12 11 10 9 8 7 10 42 36 21 21 10 9 11 15 17 20 23 23 22 21 21 21 22 21 21 21 21 20 20 21 21 20
18 13 12 14 14 14 15 16 15 14 15 15 16 15 13 10 8 9 10 10 10 13 17 18 21 23 24 23 24 25 25 23 22 21 21 22 23 23 23 23 23 23 23
16 13 12 12 12 13 15 16 16 16 15 15 14 15 16 16 16 15 15 16 18 19 22 24 25 25 26 25 23 21 23 23 26 32 37 40 43 43 44 44 42 39 33
17 16 15 14 12 12 13 14 17 18 19 19 19 19 19 19 19 19 20 23 26 26 26 26 27 26 24 24 28 33 40 46 46 48 48 47 48 48 50 50 49 49 50
25 24 23 22 20 18 15 13 15 17 19 20 21 22 24 25 25 26 26 27 26 26 26 25 25 28 33 36 40 44 50 51 52 52 52 52 52 52 52 52 52 53 50
32 32 32 31 31 30 29 26 22 19 17 18 18 20 20 21 21 22 22 22 24 25 30 34 38 42 44 46 49 50 50 51 51 51 51 51 51 51 52 52 54 54 54
35 37 37 36 38 38 38 38 38 37 35 31 29 30 32 32 31 31 31 32 33 34 38 41 44 46 47 48 49 50 50 50 50 50 49 50 53 54 55 55 55 55 54
43 38 39 39 40 41 40 41 41 42 42 42 41 41 41 42 43 43 44 45 46 47 48 48 49 49 49 49 49 49 49 48 49 50 53 54 55 54 49 46 42 40 42
54 41 40 40 41 41 41 41 41 42 42 42 42 42 43 44 44 45 46 46 47 48 48 48 48 48 48 48 47 47 47 48 52 51 45 43 39 32 30 30 32 35 35
66 45 40 40 41 42 42 42 41 42 42 42 43 43 43 44 44 44 45 46 46 46 46 46 46 45 45 45 45 46 48 51 48 40 34 33 29 29 32 34 36 35 33
96 81 49 42 41 42 42 43 42 42 42 42 42 43 43 43 42 43 43 43 43 43 43 43 43 43 44 45 47 49 50 45 37 32 31 30 31 36 38 40 42 44 43
82 96 87 64 41 42 42 43 43 43 43 43 42 41 42 42 42 42 41 41 41 41 40 41 42 43 44 45 48 47 38 34 30 30 29 30 31 34 41 46 47 44 43
69 61 90 80 52 41 41 42 42 43 42 42 40 40 40 40 40 40 40 40 41 32 28 26 26 24 25 26 25 22 24 27 28 27 25 24 26 32 37 36 36 35 42
74 68 68 84 70 47 40 40 40 40 40 39 40 39 39 39 39 38 38 41 38 27 29 30 31 30 29 24 19 18 18 18 18 19 22 26 37 41 44 38 42 36 36
71 75 73 74 87 74 55 42 40 39 40 41 41 39 39 39 39 38 38 43 29 31 31 31 29 28 27 25 26 25 21 21 22 27 31 34 42 37 34 63 51 38 29
62 69 72 76 82 72 72 59 48 42 43 42 40 39 38 38 39 38 39 39 30 34 34 34 31 29 26 23 23 23 22 23 23 26 28 36 40 41 47 61 57 40 27
68 63 57 75 78 76 80 64 50 48 46 43 40 38 39 40 39 38 43 32 34 37 38 37 32 28 25 25 26 26 26 28 29 25 22 24 36 40 49 43 35 23 23
56 58 66 74 76 73 73 63 60 60 55 52 50 49 46 42 40 40 42 33 36 38 38 34 28 25 26 28 27 26 26 24 21 18 16 15 17 24 31 38 24 24 24
66 62 67 74 70 64 60 62 60 56 55 52 49 49 48 47 42 46 36 38 39 40 33 27 26 28 27 28 27 26 24 24 23 21 16 15 17 21 23 18 22 22 23
71 66 62 59 67 64 58 59 58 57 56 55 53 57 60 47 48 42 42 43 44 34 30 30 31 31 29 30 29 27 23 22 19 18 16 15 17 19 18 18 21 23 24
68 64 68 66 60 68 66 67 65 62 60 55 53 51 50 51 50 48 46 44 34 34 35 34 32 32 32 30 30 28 24 20 17 15 13 13 16 19 21 23 24 22 23
63 62 61 64 68 74 75 68 66 65 65 62 67 73 64 55 56 52 51 48 43 38 37 36 35 35 34 31 30 30 29 25 20 15 14 16 19 21 24 23 22 24 26
66 60 62 62 64 62 62 64 72 74 73 75 74 71 73 83 82 75 68 52 46 41 42 42 41 38 37 42 42 38 32 26 20 18 16 16 20 21 23 24 26 28 32
67 68 66 64 68 66 72 76 79 89 85 94 85 74 72 83 81 78 69 62 52 52 52 54 45 39 43 42 39 37 35 30 22 18 17 18 20 24 28 28 33 30 36

GFSSE_700_rhum_075.txt.gz
RH
22 18 16 16 18 19 16 14 14 13 9 7 5 5 13 24 46 78 73 73 70 60 57 60 21 8 11 15 18 19 21 21 21 20 19 18 18 17 17 17 16 15 15
22 19 17 17 19 18 16 15 14 12 9 7 6 6 15 76 87 77 76 77 76 69 29 8 10 14 19 21 22 21 20 19 18 19 20 21 20 20 20 20 20 19 18
22 18 17 19 17 17 17 15 13 11 10 9 7 6 10 63 79 70 71 74 52 10 10 13 17 22 22 22 22 22 22 21 20 20 20 21 21 22 21 21 22 22 21
21 17 14 18 17 17 16 15 13 13 12 11 10 8 8 22 54 25 17 11 9 12 17 20 23 23 24 24 23 21 21 21 24 27 32 36 41 42 41 39 38 35 30
20 16 14 16 18 17 16 15 14 15 16 16 16 14 11 10 10 11 11 14 17 20 24 25 25 24 24 22 22 27 32 35 38 42 44 46 47 46 47 46 46 46 47
18 15 13 16 17 17 16 16 15 15 15 16 16 16 16 16 16 17 18 20 24 26 26 25 24 23 25 28 32 37 43 48 50 51 52 52 52 52 52 52 51 52 50
18 16 14 15 16 16 18 17 17 17 19 20 21 21 21 21 22 24 25 26 27 26 23 23 25 30 34 39 45 48 49 50 51 51 51 51 51 52 52 52 53 52 52
20 17 17 16 16 17 17 18 18 18 19 22 23 24 24 25 25 25 25 25 24 25 28 31 32 34 37 40 44 48 48 49 50 49 50 51 53 54 53 49 48 48 45
30 21 19 20 19 18 17 17 16 16 16 17 19 20 21 22 23 24 27 29 32 34 38 40 42 45 47 48 49 49 50 49 49 49 51 50 48 46 39 32 31 33 34
43 38 26 29 29 29 30 29 29 29 27 26 29 31 33 34 36 39 41 42 45 46 48 49 49 50 50 49 49 49 48 48 49 47 42 39 37 30 26 27 29 32 32
64 61 44 34 35 38 39 40 41 42 42 41 41 41 41 42 41 43 44 45 46 48 48 49 49 49 48 47 47 46 47 49 51 45 36 30 27 26 29 33 34 35 35
84 72 53 35 35 39 42 42 43 43 44 44 43 43 44 44 44 45 46 46 46 46 46 46 46 45 45 45 45 46 48 50 49 37 30 27 25 27 33 37 40 42 42
94 97 64 46 36 38 41 43 43 44 44 44 44 45 45 45 45 45 45 45 44 44 43 43 43 44 44 45 46 45 42 40 35 31 29 26 25 25 27 34 39 38 33
93 96 92 71 51 38 39 42 44 44 44 43 44 44 45 45 45 44 44 43 42 42 42 42 41 40 38 35 33 31 30 24 24 27 28 26 23 22 27 35 37 33 37
75 79 96 89 78 49 44 41 43 44 44 45 45 44 44 43 42 42 42 42 42 42 36 30 28 28 27 25 21 19 19 20 22 21 20 22 24 32 40 43 35 42 42
83 72 74 88 87 74 67 41 42 43 44 44 43 43 42 41 41 41 42 40 40 42 29 29 31 32 33 32 31 28 25 21 20 22 25 30 33 35 42 35 40 60 58
79 64 74 80 71 90 67 62 44 42 43 43 42 41 40 40 40 40 40 39 40 40 29 32 32 32 32 29 27 25 24 24 24 24 25 28 30 36 41 46 51 58 55
86 70 76 87 78 78 78 93 78 47 43 42 40 40 41 41 40 39 40 39 40 38 32 34 34 32 29 26 25 25 26 26 27 29 28 22 18 18 23 33 45 36 34
73 80 73 80 80 84 76 88 79 71 69 61 45 44 44 43 41 40 40 39 42 36 34 36 36 32 25 25 25 26 27 28 26 24 23 21 19 16 16 22 56 30 31
63 59 72 66 70 98 98 94 93 78 62 59 54 48 45 42 43 42 41 39 44 34 36 39 40 31 26 27 27 26 26 26 26 25 25 23 19 17 16 22 28 25 32
58 70 70 64 74 82 86 78 90 91 80 60 61 60 59 55 55 47 42 41 46 36 40 42 38 29 30 30 28 27 26 27 26 25 22 18 16 17 18 22 24 20 62
70 65 64 74 85 81 73 61 70 77 82 74 64 50 48 51 54 56 46 49 42 41 44 43 32 34 33 32 33 32 28 26 26 25 24 21 17 15 16 19 19 20 23
69 72 79 81 76 71 77 68 61 75 74 62 52 49 49 54 65 59 50 52 48 50 48 34 37 36 34 35 36 34 33 31 30 30 28 25 19 16 16 19 21 22 23
66 68 70 73 74 78 71 61 70 72 77 85 82 74 74 70 66 57 61 61 64 59 52 48 43 42 41 41 37 37 43 42 40 35 32 29 23 18 17 18 21 24 24
65 67 67 69 70 71 69 69 69 70 72 82 96 99 99 96 88 75 74 81 82 82 80 84 59 52 63 65 56 46 43 42 38 34 33 30 26 22 20 19 21 24 28
63 57 62 69 68 69 68 75 78 73 78 88 93 98 100 98 95 99 99 99 100 99 92 89 79 72 74 80 78 60 48 47 39 32 28 27 26 24 24 23 25 29 31

GFSSE_700_rhum_078.txt.gz
RH
21 18 16 15 19 19 14 13 13 13 9 6 5 5 5 56 59 44 62 83 90 88 58 52 10 10 15 19 20 20 20 18 17 17 18 18 18 18 19 18 18 18 17
22 20 18 16 20 19 16 14 14 12 8 6 9 39 20 33 65 69 73 72 67 56 33 9 12 17 20 20 20 19 20 20 19 19 20 19 19 20 20 20 20 20 20
23 20 18 18 26 18 16 14 14 10 8 6 9 75 80 77 77 76 74 71 60 13 11 16 19 21 21 21 21 21 20 19 19 21 24 28 31 30 29 30 30 28 25
23 20 18 47 23 18 16 15 12 10 9 8 7 40 72 77 69 58 53 31 10 14 19 22 23 22 21 21 20 20 23 26 30 33 36 36 38 38 38 38 38 39 41
24 21 19 45 18 18 16 14 13 12 12 10 8 11 57 62 32 13 10 12 17 22 24 24 24 22 21 21 24 32 37 39 40 41 43 45 48 45 43 41 42 43 42
23 22 22 33 18 17 16 15 16 16 16 16 13 10 20 24 11 13 17 20 24 26 26 25 23 24 27 31 38 42 42 42 44 47 48 49 50 49 47 45 45 42 44
24 24 38 52 18 17 16 16 16 16 16 16 16 16 15 16 17 19 23 26 26 26 24 25 28 32 34 38 41 44 46 47 48 48 49 49 50 49 44 39 37 36 33
32 44 30 58 18 18 18 17 17 19 20 20 19 19 19 20 24 25 26 24 23 24 28 32 33 35 41 45 49 49 48 47 45 43 43 43 42 38 31 27 27 30 30
53 56 38 48 19 20 20 21 20 23 26 25 24 24 24 23 23 23 22 25 28 30 34 36 39 44 47 49 49 48 47 46 45 43 36 32 32 27 24 25 28 30 29
55 56 46 50 20 20 21 21 22 22 24 23 22 21 21 22 24 31 36 40 42 43 45 48 49 50 49 48 49 48 47 46 44 39 31 26 26 25 27 30 33 34 35
62 53 44 22 20 20 20 19 20 19 21 24 27 30 31 34 34 38 41 44 46 48 49 50 50 49 48 47 46 46 46 45 42 36 28 25 24 24 26 32 36 39 39
65 59 54 36 24 24 25 27 29 33 35 38 39 41 42 43 44 44 45 45 47 48 48 48 47 46 46 45 45 46 46 44 39 32 28 27 24 22 22 24 30 32 32
72 72 65 49 31 29 31 36 40 42 43 44 45 45 45 46 46 46 47 47 47 46 46 45 44 43 43 43 42 41 39 35 32 28 27 26 22 18 20 30 37 38 32
96 80 74 79 50 34 33 36 42 44 45 45 45 46 46 47 47 47 47 46 45 44 42 42 42 41 38 34 30 26 23 22 23 24 24 22 20 24 30 36 41 31 42
91 96 84 83 78 45 37 36 39 43 45 45 46 46 46 47 47 46 45 44 43 42 42 37 32 30 30 30 29 27 24 22 21 21 22 24 28 29 30 33 37 37 62
87 98 91 92 97 72 45 39 39 41 44 45 46 46 46 46 45 44 43 43 43 42 42 32 30 32 32 33 33 31 28 27 26 26 26 26 27 30 31 35 40 43 51
74 76 79 69 79 92 90 66 49 40 43 45 46 46 46 44 43 42 42 43 43 41 43 32 32 34 34 34 32 29 27 26 27 27 28 30 30 23 20 18 20 22 30
67 76 72 66 85 77 87 95 74 65 56 44 44 44 44 43 42 42 42 43 43 41 43 34 34 35 37 33 28 26 26 26 27 27 27 24 23 22 20 18 18 25 47
78 83 94 80 77 82 82 82 84 82 71 64 45 43 44 43 43 43 42 42 42 40 42 37 35 38 40 33 27 26 26 28 28 27 26 26 24 21 18 16 17 24 25
93 79 88 96 81 97 91 91 93 82 76 75 78 71 58 51 48 47 44 43 42 40 42 40 38 40 41 32 28 30 30 29 28 28 27 26 23 21 19 17 17 19 23
77 75 79 96 97 90 89 85 100 98 81 78 89 88 64 65 61 51 46 46 44 43 46 42 39 42 44 31 33 33 32 33 31 30 29 30 29 25 21 17 15 16 20
68 73 73 74 86 96 99 100 84 82 85 86 76 83 75 73 71 69 64 60 50 48 51 43 44 48 36 36 37 37 37 34 34 33 34 34 34 30 25 21 18 17 18
58 67 65 72 78 80 77 82 99 88 84 94 98 82 84 80 64 91 75 84 71 73 58 59 57 45 40 42 44 43 39 37 34 35 33 33 33 33 30 25 21 19 21
71 67 78 80 78 78 83 79 100 99 99 99 98 86 86 92 82 82 89 95 85 75 70 73 73 61 60 47 52 66 74 71 67 61 49 40 35 32 31 28 25 22 23
73 72 76 75 78 82 79 83 84 84 87 86 99 81 81 87 92 97 98 95 96 98 96 92 77 73 67 61 76 75 74 73 67 60 51 44 37 30 26 26 26 26 25
66 72 73 73 74 72 76 79 80 85 94 91 96 91 80 88 88 97 98 99 100 100 98 97 99 96 92 95 89 81 76 74 68 56 52 42 32 29 26 23 23 28 28

GFSSE_700_rhum_081.txt.gz
RH
22 19 20 17 19 21 14 13 12 12 10 7 5 5 19 44 55 63 85 100 94 82 64 37 9 13 16 19 19 18 17 16 16 17 18 16 17 17 18 18 18 17 17
22 20 22 18 20 20 15 13 13 12 8 6 5 5 66 69 70 52 84 85 77 66 40 9 14 18 19 19 18 18 18 18 17 17 16 16 17 19 19 20 19 18 19
23 21 24 26 19 18 16 14 14 10 7 7 17 22 42 49 55 59 74 73 61 28 10 15 19 20 21 20 20 19 19 19 20 22 24 29 30 28 28 30 31 30 29
24 21 22 42 32 17 16 14 12 9 7 16 56 60 59 69 75 72 72 65 15 12 18 21 21 21 21 20 20 22 24 28 31 33 33 31 32 32 33 32 30 30 33
25 23 26 60 42 18 16 14 11 10 8 11 59 71 76 72 54 49 47 11 16 21 23 22 21 21 22 25 28 32 35 37 40 41 41 41 42 38 36 33 31 32 31
25 25 38 69 48 18 16 13 12 11 9 9 45 75 77 74 13 11 12 19 23 24 24 21 21 25 29 33 37 39 40 42 42 43 43 44 44 39 33 30 28 27 27
28 34 38 81 48 18 16 15 15 15 14 10 15 62 71 18 11 15 20 23 26 25 22 23 27 31 36 38 41 42 41 40 40 39 39 38 34 29 25 25 25 26 25
42 62 56 72 43 19 18 17 17 17 17 15 12 18 18 15 18 22 25 26 25 23 25 29 33 35 41 45 46 46 44 42 40 35 30 28 26 23 23 24 26 27 26
59 81 60 76 47 20 18 17 16 17 17 17 16 16 18 22 26 27 27 24 25 29 31 33 39 44 48 48 47 47 46 44 39 32 26 24 23 23 25 29 32 33 32
59 72 58 72 44 21 19 19 19 21 22 23 24 25 26 27 26 24 25 28 31 35 40 44 46 48 49 48 48 46 45 43 41 35 27 24 23 22 24 27 30 32 31
66 70 53 71 36 22 22 23 24 26 27 26 25 25 23 23 24 30 36 40 43 44 47 50 50 50 49 48 46 45 44 44 40 34 29 25 23 21 20 19 23 29 30
79 75 63 67 37 25 25 26 27 24 24 23 22 24 28 32 36 38 40 42 46 48 49 49 48 47 45 44 44 44 44 40 34 29 26 24 22 18 16 25 34 38 34
91 75 70 64 48 30 28 28 26 22 23 27 32 35 38 40 42 44 46 48 49 49 48 48 46 44 43 42 39 35 32 28 23 22 22 20 17 18 26 29 32 37 32
80 81 80 61 56 35 32 28 26 28 34 38 41 44 45 46 47 48 48 48 48 47 46 44 42 41 38 33 30 27 23 21 21 20 20 20 23 25 25 27 30 35 39
86 80 98 73 68 42 35 31 30 35 41 44 45 46 46 47 48 48 48 48 47 46 44 42 39 35 32 32 32 31 29 28 27 26 25 25 25 26 28 25 23 30 39
74 77 98 92 71 68 38 36 34 37 41 44 46 46 47 47 48 48 47 46 45 44 43 43 38 31 32 33 33 31 28 26 26 26 28 28 29 28 24 20 18 17 16
65 71 78 98 94 71 54 49 37 38 40 43 45 46 47 47 47 47 46 44 43 43 43 43 40 32 34 34 33 31 28 27 28 28 30 30 27 24 24 23 20 17 15
67 72 68 98 90 85 91 76 64 42 40 42 44 46 47 47 46 45 44 43 42 44 44 42 44 33 35 37 35 30 28 27 29 29 29 27 26 25 23 20 17 16 16
75 83 98 96 90 80 82 76 73 65 43 42 44 46 47 46 44 44 44 44 44 45 45 43 43 36 37 39 38 31 28 30 31 31 29 28 27 25 24 22 20 16 14
71 85 92 79 83 88 78 75 78 91 79 56 57 56 55 49 49 50 51 49 48 47 46 45 45 42 39 42 43 34 31 33 33 32 31 32 32 32 31 28 23 19 16
88 99 87 98 83 96 92 92 87 83 85 78 71 79 80 76 68 54 57 55 56 52 50 47 45 46 41 44 46 33 35 35 36 34 36 37 36 35 34 33 30 24 20
92 98 93 97 99 100 94 100 99 96 92 75 73 78 87 90 82 77 77 76 61 54 56 50 47 50 45 49 48 36 37 40 39 38 39 42 43 39 35 33 32 30 26
97 100 98 80 87 94 95 91 96 97 95 92 80 84 88 97 89 96 99 91 93 84 81 60 57 55 54 58 43 43 41 42 48 51 55 60 60 53 41 36 32 29 28
88 89 86 87 83 90 98 96 92 95 99 99 95 92 91 94 97 100 98 81 82 88 99 96 94 81 80 76 48 48 53 60 58 54 58 61 63 58 46 38 31 28 25
93 83 84 93 88 89 83 90 99 99 100 99 99 97 100 98 97 96 97 97 99 96 100 99 100 94 96 95 72 62 63 86 83 70 61 66 63 55 47 33 29 28 25
85 80 80 81 80 82 85 92 95 91 92 91 93 85 94 97 99 100 98 98 89 98 98 100 100 100 98 93 90 90 77 87 87 80 70 65 61 55 50 33 29 28 27

GFSSE_700_rhum_084.txt.gz
RH
36 25 20 17 16 23 15 12 11 11 10 10 8 8 10 47 62 74 63 95 84 77 61 24 10 14 17 18 17 16 15 15 15 16 16 16 16 16 16 16 16 16 16
31 21 22 20 16 18 14 12 12 11 9 7 6 6 21 52 57 62 98 98 84 71 35 11 15 19 18 18 17 16 16 16 16 17 17 17 18 18 18 19 19 20 19
30 23 22 46 18 17 14 13 12 10 7 6 5 29 61 50 64 66 93 83 68 43 12 15 19 18 18 18 18 17 18 19 22 25 26 26 26 25 25 26 26 26 28
35 25 24 54 21 19 15 14 13 9 7 9 20 58 58 62 59 61 78 71 40 12 15 20 19 19 18 18 19 21 25 29 30 29 29 28 27 26 27 27 27 26 27
34 27 28 62 34 20 15 14 12 8 12 52 57 54 54 59 68 75 74 52 12 16 21 21 20 19 18 21 25 28 31 33 34 36 37 35 31 28 25 24 22 21 21
30 38 43 76 72 25 16 14 11 9 18 63 73 76 77 65 71 68 57 12 17 22 22 21 19 20 24 29 32 33 36 38 37 38 36 33 29 25 23 23 23 21 20
30 60 62 72 67 30 17 13 11 9 15 63 82 81 85 62 43 42 13 20 24 24 22 21 24 27 31 34 36 38 35 35 34 34 32 30 27 23 23 24 24 23 22
44 56 60 81 74 32 18 13 12 11 10 57 78 85 92 20 12 14 22 25 27 24 22 25 29 32 36 39 40 40 38 34 30 27 26 25 23 23 25 28 30 30 27
69 66 68 85 78 36 19 15 15 14 11 23 72 83 73 12 16 24 27 28 25 24 27 31 33 38 42 44 42 41 38 36 33 29 25 23 22 23 25 28 29 29 26
86 84 73 82 86 32 32 22 18 17 15 12 35 55 15 17 23 27 28 25 26 30 31 34 41 46 47 47 46 44 41 40 36 30 24 21 20 20 20 20 20 24 29
99 98 91 91 93 40 33 29 19 18 17 15 16 18 18 24 27 28 24 27 30 34 40 46 49 50 49 47 45 44 42 39 35 29 24 22 20 18 15 19 29 34 36
96 99 98 98 97 44 28 32 20 20 19 19 19 23 27 28 26 25 29 35 42 46 48 50 51 50 48 45 44 42 39 34 28 24 22 20 18 16 20 27 30 33 36
70 100 98 98 98 47 28 32 30 26 26 26 27 27 27 25 26 36 41 42 44 48 50 50 47 46 43 43 41 35 29 24 21 20 18 17 18 22 26 26 27 31 35
74 82 100 99 99 56 31 31 39 30 29 28 25 24 26 32 36 39 43 46 48 49 49 47 45 42 40 39 36 32 29 25 23 22 21 22 23 24 25 27 25 24 23
75 66 82 98 98 66 33 34 34 35 28 27 27 32 36 41 44 47 48 49 49 49 48 46 43 40 37 32 32 31 30 27 25 24 24 25 26 27 28 23 20 20 20
74 85 78 90 100 83 43 35 36 37 33 31 35 40 44 46 48 48 49 49 49 48 47 44 42 41 34 32 32 31 30 29 28 27 28 28 28 26 23 23 22 21 18
90 82 73 98 100 84 64 48 37 33 36 39 39 43 45 46 48 48 48 49 49 47 45 43 42 42 34 34 34 32 32 31 30 29 29 29 27 26 25 24 21 18 17
95 84 94 91 93 98 87 67 41 38 36 38 41 44 45 46 47 48 48 48 47 46 44 43 43 44 39 35 37 37 34 32 32 32 30 29 28 27 25 24 23 22 20
83 76 82 87 84 90 93 80 76 47 40 42 44 45 45 46 47 48 48 46 44 43 43 44 45 43 44 36 38 41 40 35 32 34 32 31 29 30 30 30 29 27 24
88 74 86 94 99 100 83 96 87 66 66 44 42 46 48 50 52 49 47 44 44 44 45 47 48 47 45 43 38 40 46 36 33 34 34 33 33 35 34 33 32 31 30
97 86 90 98 100 100 83 98 84 84 92 84 53 48 49 49 58 57 54 57 52 52 54 54 52 49 46 46 40 41 47 39 35 36 36 37 37 40 41 42 38 33 31
98 97 97 99 97 98 95 96 90 80 76 69 86 82 74 77 70 70 81 75 68 66 70 67 59 55 51 48 48 46 48 42 38 39 42 46 51 59 60 58 50 40 34
100 99 100 99 98 99 100 98 98 81 84 74 73 88 90 98 93 86 95 98 93 87 92 88 80 67 63 60 55 60 52 42 41 44 52 57 58 58 58 59 57 47 37
100 99 99 100 99 99 98 99 97 96 90 78 84 98 95 91 92 97 100 100 97 100 99 99 99 94 89 84 83 68 54 45 43 47 47 58 65 61 63 64 58 49 35
89 91 96 97 94 98 100 97 99 98 98 100 100 90 96 100 94 98 98 99 99 100 100 98 100 90 99 99 98 98 95 65 58 54 57 68 71 72 67 62 56 51 40
96 96 98 99 99 96 85 98 100 100 98 98 100 97 99 100 99 100 100 98 99 98 98 97 93 98 100 100 100 99 98 98 96 84 81 83 89 75 66 61 56 45 33

GFSSE_700_rhum_087.txt.gz
RH
45 45 35 20 19 22 17 11 10 10 11 12 10 8 24 54 64 62 60 95 80 73 59 21 10 12 15 16 16 16 15 14 14 15 15 15 14 14 14 14 13 14 14
54 36 35 21 19 23 18 12 11 10 10 11 10 8 9 44 68 74 72 89 78 69 42 14 12 16 16 16 15 15 15 15 15 16 14 15 16 16 18 19 19 19 19
54 36 28 21 18 19 17 12 12 11 10 8 7 8 11 51 65 67 90 90 80 62 26 12 16 17 17 16 16 15 16 18 20 21 23 23 23 21 21 21 20 21 22
50 38 24 23 25 18 17 13 12 11 8 6 5 8 32 55 60 76 100 90 67 38 14 16 19 18 17 16 17 18 21 24 25 26 24 26 24 23 22 21 19 18 20
46 39 25 32 44 21 18 14 13 10 7 6 13 66 69 55 63 69 84 72 42 15 17 20 20 18 18 18 21 24 28 29 29 29 30 29 26 24 22 21 20 19 18
57 43 30 50 72 28 19 15 14 10 17 11 53 71 63 60 59 66 76 54 14 17 20 21 19 18 20 24 28 29 31 32 32 32 31 28 24 21 21 21 21 20 19
76 52 58 58 78 65 22 16 14 9 41 53 72 65 69 64 70 78 72 20 18 22 22 20 20 22 26 29 30 32 32 32 31 29 27 25 22 21 23 25 26 26 24
93 73 73 66 82 74 34 18 13 10 55 74 85 80 85 76 69 65 44 16 23 24 22 21 22 27 31 31 32 33 32 30 27 25 22 22 21 23 26 28 29 28 24
87 99 87 80 90 85 42 32 13 10 50 91 88 89 96 76 49 41 15 22 25 24 22 25 29 33 36 38 37 36 35 32 30 26 22 21 21 21 22 22 21 23 25
71 95 83 92 95 91 55 31 15 11 30 83 90 95 100 34 16 15 23 26 25 23 25 29 34 40 42 43 44 42 39 37 34 28 23 20 18 17 15 14 20 30 33
79 90 96 82 94 96 55 38 22 13 15 65 91 97 96 14 15 23 28 28 25 28 31 32 39 45 48 46 45 43 40 37 33 27 22 21 18 14 13 22 27 29 33
62 59 82 99 97 100 65 54 39 18 13 22 78 94 40 17 23 27 30 26 30 32 36 43 48 50 49 46 42 40 37 34 30 25 19 18 16 14 20 25 26 27 29
66 71 77 97 95 99 95 53 58 21 18 13 23 71 41 21 28 28 27 29 32 40 47 50 51 48 46 43 40 36 32 27 23 20 18 17 17 22 24 24 26 23 20
58 63 72 63 91 100 92 60 58 29 19 17 14 30 22 26 29 28 28 33 42 46 48 50 49 48 45 42 38 33 29 26 24 22 21 22 23 25 26 27 24 21 20
85 83 72 63 88 100 90 54 65 49 23 20 18 20 26 30 28 28 36 42 45 48 50 49 49 45 42 39 34 32 30 28 27 25 25 27 28 27 26 24 23 23 22
90 89 77 64 57 97 98 51 66 58 46 29 28 30 31 29 30 39 42 46 49 50 50 49 48 44 41 38 34 33 32 31 29 28 29 28 28 27 25 24 23 22 20
92 97 79 78 82 78 100 51 51 67 59 44 34 32 32 32 40 45 47 49 50 50 50 49 47 44 42 40 34 34 34 34 32 30 29 28 26 26 25 25 24 23 23
100 96 77 74 74 87 90 72 61 50 64 55 40 37 36 40 44 46 48 49 49 50 49 48 46 43 42 43 38 36 38 37 36 30 28 29 28 27 27 27 28 28 28
98 96 83 75 83 76 99 82 69 55 53 57 51 46 42 43 45 46 48 48 49 49 49 47 45 44 44 44 45 37 39 41 41 33 30 31 30 31 31 31 32 31 30
99 98 85 77 83 91 96 73 77 71 53 56 53 56 50 45 46 47 48 48 49 49 47 44 44 46 48 48 46 45 38 41 44 38 32 33 34 34 34 33 34 38 39
94 98 96 93 90 99 97 91 85 91 74 48 47 50 50 48 55 51 50 53 50 49 45 45 47 50 51 54 51 47 46 43 44 46 35 36 36 37 38 45 56 58 55
92 99 98 99 96 100 97 99 99 97 89 83 49 49 49 51 52 52 54 54 52 59 52 56 58 57 58 60 55 53 53 54 48 48 39 38 39 46 51 57 58 58 58
96 100 98 99 99 100 99 97 100 94 96 92 80 68 67 71 68 69 70 71 70 61 72 82 84 80 74 71 66 73 69 65 79 50 42 43 52 59 58 63 63 64 62
100 100 100 99 98 100 100 100 100 100 99 97 88 76 89 99 89 82 78 82 90 90 88 99 89 100 97 90 87 84 93 81 89 67 50 57 65 68 68 76 79 71 64
99 100 100 100 100 98 99 99 100 100 99 97 100 99 96 90 99 97 98 92 90 87 88 94 100 98 100 98 97 95 98 100 98 90 64 66 55 71 76 74 83 73 61
86 93 99 98 100 100 100 98 99 100 99 100 100 100 98 99 92 96 93 97 98 87 93 97 98 100 97 98 100 99 100 100 100 97 98 94 93 96 96 93 72 64 59

GFSSE_700_rhum_090.txt.gz
RH
52 48 50 47 26 18 16 13 10 11 13 28 21 45 28 57 66 54 62 88 76 72 63 35 11 9 14 15 15 15 14 13 13 13 13 13 12 11 11 12 12 13 14
54 58 44 40 27 19 16 12 10 10 11 12 11 13 27 54 66 58 57 91 79 71 61 27 10 14 16 15 14 14 14 14 13 13 13 14 15 15 17 17 18 18 18
52 58 54 36 27 20 18 13 10 10 10 11 11 10 12 46 56 72 66 87 78 68 50 17 14 16 16 15 14 14 14 14 14 16 18 18 18 18 18 18 17 17 17
53 56 55 35 26 22 18 15 12 10 10 10 10 9 7 40 66 69 78 86 84 69 34 13 16 17 16 15 15 16 17 18 20 21 18 21 21 18 16 15 15 15 16
55 55 47 32 27 29 19 16 13 12 10 8 7 12 26 41 65 68 77 92 80 48 18 16 18 17 16 17 18 20 22 23 22 23 25 23 19 18 17 17 16 15 16
59 53 46 33 49 51 22 18 14 13 9 7 12 41 53 59 55 68 90 86 60 23 15 18 18 17 16 19 22 25 26 27 30 28 25 22 20 20 20 20 20 20 17
62 60 51 50 73 78 34 20 15 13 12 8 58 78 78 75 57 63 65 73 42 15 20 20 18 17 19 23 28 29 29 28 28 26 25 22 20 21 24 25 25 22 19
61 64 62 62 70 75 68 27 17 12 40 24 69 78 80 72 59 58 66 62 18 18 22 20 19 20 23 27 30 32 31 28 25 21 21 20 20 23 25 25 24 22 21
66 64 70 64 74 77 78 46 18 12 59 65 78 80 81 76 70 74 69 41 16 23 23 21 24 28 29 30 33 34 33 30 28 21 20 19 20 20 20 17 17 24 30
66 66 72 90 78 93 91 63 22 12 50 75 85 87 92 91 76 73 59 16 23 24 23 25 30 33 35 37 38 39 37 33 30 23 19 18 17 15 13 15 26 30 32
58 69 70 73 92 81 88 74 34 14 30 83 87 92 96 96 72 58 23 19 25 24 24 29 33 39 43 44 43 41 38 34 31 24 22 18 17 14 13 23 26 26 27
64 72 67 66 89 98 92 88 48 25 12 74 93 95 93 98 45 20 17 25 27 25 27 32 37 44 47 47 44 42 37 35 30 21 20 18 17 15 20 24 24 24 20
73 66 65 63 61 90 95 96 83 41 13 25 90 97 100 70 17 14 23 27 26 26 32 36 43 48 49 47 44 42 35 30 23 19 19 18 17 20 23 24 26 22 19
59 68 67 72 87 71 99 100 100 70 26 13 49 97 100 79 16 19 26 29 26 30 34 46 50 50 47 46 42 40 35 30 26 22 23 23 23 24 25 26 23 22 21
56 64 72 76 81 77 61 96 97 93 56 19 13 50 99 77 18 24 31 28 28 33 44 49 50 49 50 46 42 39 34 32 30 26 26 26 26 26 26 24 22 23 22
58 74 89 88 80 82 65 83 100 99 74 24 18 14 32 65 21 29 33 27 32 42 47 49 51 51 49 44 43 39 34 33 33 29 27 28 26 26 25 24 24 23 22
84 91 95 91 76 78 100 70 93 100 97 47 22 17 16 37 25 31 29 28 38 45 50 51 51 50 49 46 42 39 35 34 35 34 30 26 27 27 26 26 26 26 27
82 90 98 93 77 91 91 90 75 87 97 98 40 24 22 23 30 33 30 38 46 49 51 51 51 50 49 45 43 43 37 36 38 37 32 29 29 28 28 30 30 30 29
75 85 84 93 92 99 98 92 88 71 77 97 93 38 30 31 35 33 36 44 48 50 50 50 50 50 48 45 44 44 44 38 38 43 42 33 32 31 32 34 33 32 32
69 79 90 87 88 97 98 98 99 84 83 78 96 82 43 37 38 37 42 46 48 49 49 50 50 49 47 46 46 47 46 45 42 40 45 45 32 33 34 36 35 38 50
71 72 67 94 84 98 98 99 100 99 63 62 82 94 74 55 41 42 45 46 48 48 49 51 49 47 44 48 50 51 51 49 48 46 46 48 38 35 37 38 44 51 54
68 67 72 94 98 96 99 98 97 99 95 62 62 72 82 91 65 51 49 51 51 50 51 51 50 50 52 59 64 61 59 59 56 52 52 51 43 39 40 47 53 59 65
72 69 85 80 94 95 98 100 99 96 99 96 76 69 76 79 65 56 56 65 63 52 52 53 56 61 59 63 80 80 75 70 74 70 79 61 46 46 49 56 64 70 74
67 67 67 95 95 96 94 100 100 99 98 98 99 72 65 69 80 65 68 72 63 65 68 67 79 81 84 72 91 94 97 96 92 89 84 73 52 54 62 67 62 64 78
60 64 87 90 100 100 95 99 98 99 100 95 99 100 90 77 85 91 94 89 87 82 96 86 90 94 99 98 99 99 98 99 100 99 91 93 74 70 74 60 81 86 87
80 76 75 89 97 98 100 100 99 100 100 100 99 100 99 96 97 99 100 98 87 84 92 98 87 84 95 95 93 98 100 100 100 100 100 100 98 96 87 76 82 80 66

GFSSE_700_rhum_093.txt.gz
RH
56 53 50 57 53 36 18 19 14 11 10 10 12 20 16 36 54 55 44 80 75 71 69 49 17 13 12 13 14 15 13 12 12 12 12 12 11 11 12 12 13 14 29
63 59 57 54 49 33 21 19 14 11 11 17 12 36 20 46 61 58 65 86 78 72 70 51 14 10 13 14 14 13 12 12 12 12 12 14 15 15 14 14 15 16 24
60 52 53 57 45 35 24 20 14 11 11 11 13 17 28 44 66 63 57 90 80 74 68 49 11 13 14 14 14 14 13 12 13 15 16 16 16 15 14 14 13 13 14
65 61 59 57 52 36 25 21 15 11 11 11 14 11 14 36 56 70 57 91 80 76 69 32 12 14 14 13 13 14 14 16 19 18 17 18 16 15 14 14 13 13 12
62 56 53 60 51 34 27 21 16 12 11 11 11 23 19 25 56 72 68 89 82 79 62 18 15 16 15 14 13 16 18 20 20 21 19 18 18 18 17 16 16 16 14
64 59 58 52 43 34 34 24 18 14 13 11 8 10 26 42 56 71 74 86 85 77 37 14 17 17 15 16 16 17 21 22 26 26 22 19 18 18 20 21 21 18 16
71 67 62 61 50 37 47 32 21 14 13 9 7 18 26 62 73 63 71 83 87 53 22 16 18 16 16 20 23 23 24 25 29 25 23 20 19 23 25 25 23 20 18
70 66 60 64 67 62 63 54 27 16 13 9 26 72 78 69 73 61 61 81 70 36 16 20 19 18 20 24 27 27 27 24 26 22 21 20 21 23 25 23 19 19 24
64 61 60 64 73 69 67 67 44 18 32 19 58 82 85 86 76 62 58 58 58 20 19 21 19 20 24 28 29 29 28 26 21 22 19 19 21 21 20 15 18 28 30
65 69 67 66 63 70 71 72 69 20 40 38 62 85 92 91 78 63 62 68 45 18 22 22 22 25 28 32 33 34 33 31 23 24 19 18 18 16 14 16 25 26 27
71 68 65 68 71 92 81 85 81 32 19 66 73 83 90 93 82 72 72 66 29 23 24 22 24 30 34 37 40 38 37 36 28 24 18 18 17 16 12 21 24 24 22
77 77 72 86 88 87 70 82 96 67 27 82 78 87 94 94 90 79 65 53 18 25 24 25 28 33 40 43 43 40 38 33 29 29 20 17 16 14 17 23 23 24 19
80 82 81 84 81 72 60 60 100 86 68 37 91 89 98 95 98 90 60 30 20 26 25 27 30 36 44 48 47 42 37 34 22 22 19 18 17 16 21 23 24 21 20
72 78 87 82 82 76 81 65 85 100 67 59 57 100 99 97 96 92 38 17 25 26 26 31 36 42 47 49 46 43 39 36 27 25 22 21 21 22 23 24 23 21 21
80 73 78 70 73 75 85 83 62 78 91 86 31 67 100 100 100 58 20 21 30 29 28 33 41 48 48 49 49 44 41 38 30 27 27 24 23 24 24 24 23 23 22
68 69 86 79 78 76 70 77 75 66 86 78 72 21 69 99 94 32 20 27 31 30 32 34 47 50 52 51 48 45 40 36 33 30 28 27 25 25 24 25 24 24 25
71 90 88 98 88 78 83 80 74 82 91 99 94 43 19 58 100 28 23 31 33 29 32 40 50 52 52 51 51 47 42 39 37 33 30 29 26 26 27 26 27 30 30
79 74 97 99 98 92 87 83 90 89 77 100 93 56 26 18 42 94 27 31 34 29 32 47 52 52 52 52 49 46 43 43 39 39 37 33 30 28 29 29 33 33 32
79 67 72 87 90 90 85 83 87 92 86 75 78 76 46 23 19 63 51 34 36 34 42 49 51 52 52 51 49 47 44 45 46 41 41 41 40 32 32 32 34 36 35
64 73 72 75 76 77 72 84 93 90 87 84 93 86 56 29 27 50 43 36 39 39 45 50 51 51 51 51 49 46 47 48 48 47 46 42 42 40 35 34 35 37 39
53 63 66 67 70 81 90 84 98 100 97 98 100 98 92 45 36 35 33 39 39 40 46 50 50 50 50 50 47 48 52 51 52 52 50 49 46 42 44 37 36 39 43
61 61 72 69 69 68 85 96 98 97 98 100 99 97 100 79 60 41 40 42 42 44 47 49 49 50 53 54 51 53 55 60 58 63 60 56 50 53 49 41 39 40 45
70 71 72 73 71 66 84 86 100 98 98 99 98 96 96 97 82 82 55 46 47 47 48 49 50 58 63 61 56 67 65 61 70 79 68 70 66 65 55 44 45 48 56
71 79 70 80 79 80 94 100 99 100 99 100 97 100 95 96 99 92 90 83 50 53 52 57 58 58 56 67 72 72 78 85 98 96 95 90 98 80 66 50 46 54 55
65 67 68 64 62 74 94 85 90 99 100 97 100 100 98 97 96 97 98 99 94 82 81 77 74 73 95 87 92 96 96 86 97 100 97 96 96 95 87 57 57 55 62
60 72 74 66 75 72 68 80 99 98 100 100 96 99 100 99 100 99 99 94 98 84 82 98 85 76 81 93 97 98 92 94 88 98 100 100 100 100 99 94 97 70 65

GFSSE_700_rhum_096.txt.gz
RH
56 53 51 51 54 54 46 22 19 19 12 13 19 22 9 16 24 44 42 49 77 71 63 57 38 11 10 11 12 12 11 12 11 11 11 10 10 11 12 13 15 44 38
62 56 53 56 56 52 44 24 20 16 12 12 12 14 16 21 40 52 48 62 79 73 66 66 41 9 12 12 11 11 11 11 12 11 10 13 14 14 14 14 14 26 52
61 58 55 57 55 54 43 28 21 16 12 15 24 25 29 34 49 59 56 84 83 75 70 62 35 11 12 12 12 12 12 12 12 15 15 15 14 13 12 12 11 11 12
62 62 56 57 60 58 49 33 24 18 12 12 28 22 40 36 56 66 59 66 86 77 69 57 20 13 14 12 12 13 13 14 17 17 17 16 14 12 12 12 11 10 11
63 62 59 57 57 60 53 37 27 19 13 12 12 40 24 36 45 67 65 58 78 74 74 51 15 15 14 13 13 14 16 18 18 19 18 16 15 14 14 14 14 13 12
67 64 62 59 55 54 48 37 31 22 14 13 12 31 44 34 41 65 68 68 84 80 71 36 15 16 14 14 15 16 21 23 22 23 20 18 16 16 17 18 16 15 14
72 71 64 62 64 56 46 43 37 26 16 13 13 12 46 43 49 63 68 72 83 83 69 26 16 18 16 16 17 19 22 24 24 24 21 19 18 21 22 21 17 16 19
69 74 73 67 63 63 60 50 48 32 19 14 11 9 33 37 68 76 68 68 71 85 50 20 19 18 17 19 21 22 27 26 24 24 22 20 20 23 23 19 15 18 24
66 58 65 68 63 64 69 68 66 53 24 15 11 39 54 55 78 86 73 73 77 74 35 19 21 19 19 23 26 25 25 26 23 20 20 20 21 20 18 13 17 25 26
73 76 76 74 68 70 71 75 75 68 46 26 22 61 77 83 86 88 72 74 73 63 26 22 22 22 23 26 28 30 26 26 25 20 19 20 19 18 14 12 22 23 24
69 67 80 76 74 73 74 70 79 84 66 26 43 74 90 91 94 94 69 72 70 49 21 24 23 24 29 30 32 32 31 29 28 24 21 18 18 16 12 14 22 22 20
63 73 78 82 80 77 89 85 92 94 85 33 27 70 89 99 100 93 71 70 74 37 23 25 24 26 30 34 35 35 34 31 30 25 21 17 17 14 12 19 21 22 19
66 64 86 93 92 90 93 94 67 79 94 59 20 62 81 93 99 96 79 79 72 34 24 26 26 28 32 39 43 41 37 33 29 25 24 18 15 14 16 20 22 21 20
67 60 73 83 92 98 93 87 72 62 81 91 32 72 87 93 94 94 93 87 68 28 25 26 30 34 37 42 46 46 42 36 32 29 22 21 19 18 20 23 23 21 20
60 69 73 81 84 90 86 68 79 65 71 87 79 65 91 97 91 91 89 97 66 25 27 27 31 34 40 47 50 46 45 41 32 32 29 26 24 22 25 25 23 23 22
63 59 64 68 78 89 85 85 85 76 63 54 76 71 84 93 99 100 97 99 38 29 30 30 33 35 43 51 52 50 48 43 36 35 32 28 26 26 26 25 25 25 27
60 58 54 61 63 86 95 98 89 84 71 60 58 72 65 85 100 100 100 73 30 38 36 35 35 37 48 52 51 51 47 43 39 35 34 31 29 28 27 28 27 29 32
62 66 62 56 69 86 84 93 90 87 76 73 61 85 69 64 80 97 97 86 74 42 35 36 37 40 51 53 54 52 50 46 41 38 36 35 34 30 29 30 29 33 35
64 70 72 60 54 72 100 100 94 86 82 88 81 84 85 67 50 47 85 68 37 44 38 36 39 44 52 54 53 53 50 46 44 45 40 36 37 39 37 32 32 34 36
66 63 62 72 68 63 69 97 90 77 85 93 86 87 80 82 64 42 23 68 65 38 42 38 41 46 52 53 53 52 50 47 45 46 48 47 47 41 38 41 37 34 36
50 38 30 55 62 65 75 91 90 86 97 94 95 96 78 79 84 86 38 20 94 47 41 38 40 46 51 53 52 51 50 47 48 56 58 52 50 47 46 45 42 40 37
27 25 17 32 56 60 71 75 88 93 93 88 98 99 96 90 90 83 48 24 54 71 41 43 43 47 51 52 51 51 50 51 53 54 58 62 64 52 52 51 49 46 42
25 20 43 66 60 73 77 79 75 94 95 100 98 100 100 100 99 82 47 32 52 50 40 43 44 47 50 51 52 55 57 56 59 61 61 74 74 65 63 66 60 52 47
45 35 48 75 75 78 82 77 80 91 94 99 98 100 100 100 98 98 64 44 42 41 43 44 46 50 53 55 60 70 67 62 69 64 82 83 86 90 88 88 78 66 53
64 45 61 74 69 75 78 68 74 81 99 96 98 99 100 100 100 97 99 94 73 57 60 60 54 58 60 63 74 78 88 92 97 90 97 84 88 94 99 92 99 92 69
59 53 66 74 72 73 71 72 79 81 80 82 86 98 100 100 100 100 100 99 100 97 86 92 75 75 71 83 92 94 90 94 98 99 99 97 95 98 100 100 99 99 98

GFSSE_700_rhum_099.txt.gz
RH
49 56 52 50 49 54 55 43 26 21 20 13 12 24 28 11 18 23 34 36 54 72 59 55 50 22 9 12 11 12 11 11 10 10 11 11 10 11 12 14 41 38 68
47 55 54 53 54 54 52 48 28 23 19 13 12 15 18 12 19 28 42 41 55 74 66 65 57 18 9 11 11 10 11 11 11 11 11 13 14 14 14 13 22 51 34
64 66 60 57 58 58 53 48 34 25 20 13 12 13 14 37 38 40 49 44 71 77 70 70 58 17 12 11 11 11 11 12 12 14 15 15 15 13 12 11 11 11 10
63 60 58 59 58 57 58 52 40 30 22 15 16 25 20 32 52 49 56 58 82 82 73 72 55 17 12 12 12 12 12 12 15 16 16 16 13 12 12 11 11 11 10
61 62 64 62 59 60 62 56 46 34 25 15 21 30 33 34 46 59 67 60 62 85 70 73 57 16 13 13 13 13 14 16 17 17 17 14 14 13 13 14 14 12 11
61 66 64 60 57 57 61 57 48 37 27 16 14 28 50 41 35 51 68 65 63 82 69 70 57 16 15 13 13 15 17 18 18 20 18 17 16 16 16 15 14 12 16
77 78 73 68 61 62 57 50 46 43 32 19 14 13 33 47 36 44 59 67 75 86 76 68 47 16 16 14 14 18 22 22 24 23 20 18 18 20 20 18 15 14 19
74 70 71 75 68 65 64 60 56 49 38 25 15 13 22 47 41 60 61 73 77 82 81 67 35 16 16 16 16 19 20 23 24 24 22 19 19 21 22 18 13 17 23
72 74 68 70 73 70 65 71 69 70 64 37 19 14 18 50 50 67 76 73 78 79 75 56 28 18 18 17 19 20 21 22 21 21 20 20 20 20 19 14 14 21 22
71 74 75 78 78 77 71 67 77 81 76 69 35 16 15 54 56 82 81 78 76 78 77 48 23 20 20 19 22 24 25 24 22 21 19 19 19 19 16 11 18 21 21
80 80 83 83 88 92 85 78 73 74 81 83 69 35 26 54 64 78 90 79 78 78 74 45 22 22 22 22 22 25 27 29 25 23 21 18 17 16 14 11 17 21 21
78 74 70 75 79 87 84 81 84 85 81 83 49 37 37 70 81 84 90 85 75 69 64 38 22 24 24 25 26 24 28 32 31 28 23 19 17 15 13 13 20 22 20
86 79 76 68 76 88 84 85 99 84 91 97 79 48 44 80 90 96 97 92 75 69 62 38 23 24 25 29 32 33 34 35 33 29 25 20 17 15 13 17 21 23 21
76 73 72 70 81 95 91 98 95 92 75 72 93 92 51 73 93 99 100 93 76 83 64 30 24 26 28 30 32 38 41 39 37 32 27 22 18 16 16 19 23 23 22
68 64 69 68 67 84 100 99 97 87 77 66 69 84 75 65 91 94 98 98 89 89 58 33 27 27 30 33 38 44 45 44 41 38 32 28 24 22 21 23 24 24 23
57 63 62 65 85 80 96 97 97 85 78 73 58 74 86 72 85 89 97 99 99 100 62 31 31 32 33 36 44 50 50 46 43 39 34 28 24 24 25 25 24 25 26
62 55 52 56 61 60 66 75 84 97 82 74 66 62 55 59 68 87 97 99 99 100 48 34 35 38 35 37 46 53 53 52 47 42 37 33 28 28 26 25 28 26 30
77 68 57 53 58 59 60 59 58 80 93 73 71 75 68 65 70 73 90 98 99 97 72 38 42 42 38 37 50 54 55 54 50 44 40 36 34 32 29 28 30 29 32
84 74 67 61 62 58 60 59 85 88 78 73 82 74 78 70 71 72 63 84 100 100 86 46 43 45 44 41 50 55 55 54 51 46 43 40 38 38 38 38 33 32 33
78 77 72 66 69 59 61 56 66 81 77 89 75 77 89 83 89 86 81 71 83 98 79 54 57 45 47 46 52 55 55 54 52 48 45 45 46 45 44 41 39 39 37
47 71 67 65 62 57 53 69 71 57 67 85 82 92 94 90 86 96 93 93 84 88 92 80 58 52 50 49 54 54 54 53 52 49 48 49 51 52 51 54 53 48 44
36 44 67 64 39 21 45 76 72 66 64 77 88 88 98 95 97 91 94 85 81 90 94 69 49 52 47 50 52 53 54 53 52 50 48 53 54 54 53 56 59 55 52
31 31 47 46 27 13 36 67 72 60 65 66 80 90 87 100 100 96 89 92 90 91 72 66 52 49 44 46 50 53 53 52 51 52 56 62 59 56 58 68 69 68 66
30 46 44 35 16 27 51 59 71 66 69 65 83 99 97 100 99 100 98 99 98 98 61 36 91 45 46 48 52 52 52 52 53 58 63 68 77 69 68 70 77 87 88
42 42 24 21 27 53 73 73 75 74 74 71 78 88 91 92 98 99 99 100 98 95 72 42 81 53 50 54 52 53 54 55 57 63 71 63 88 77 89 86 95 93 93
48 58 59 51 43 64 79 76 78 77 70 71 76 85 90 80 90 98 100 100 100 98 85 49 52 52 54 56 62 64 69 76 80 77 77 79 97 99 97 98 84 81 95

GFSSE_700_rhum_102.txt.gz
RH
47 48 61 58 51 51 53 53 44 30 23 20 14 17 33 24 14 26 27 31 39 64 67 61 63 47 9 10 11 10 10 10 10 10 11 11 11 15 23 47 66 71 94
45 46 60 56 56 57 55 52 46 33 26 21 14 16 21 27 13 19 28 40 49 73 67 64 63 50 9 10 10 10 10 10 10 10 11 12 14 14 16 38 64 35 22
55 59 63 62 61 61 59 54 47 38 30 24 15 12 14 14 23 21 34 44 43 74 74 70 67 50 10 11 10 10 10 10 11 12 14 14 13 12 10 10 10 9 9
63 71 71 65 61 59 59 57 52 43 35 26 19 16 20 20 42 45 40 48 57 79 78 74 71 50 12 12 11 10 10 11 13 15 15 14 11 10 10 10 10 10 10
57 53 57 56 60 63 62 64 57 50 40 30 22 24 44 39 35 51 44 52 64 74 82 72 73 49 14 12 11 11 11 13 16 17 17 13 11 11 11 12 11 10 13
62 58 60 61 61 58 59 64 61 55 46 34 21 43 62 70 49 36 42 59 63 76 81 70 74 53 16 14 12 13 13 15 16 17 16 15 14 13 14 13 12 13 18
80 76 72 69 66 62 58 56 56 56 50 38 23 16 21 60 60 41 43 56 66 67 75 74 70 50 17 15 14 14 16 17 18 20 19 17 16 17 16 15 13 13 18
79 78 76 74 71 66 64 62 59 57 56 43 30 18 15 30 55 47 62 61 69 72 76 76 71 47 18 16 15 16 18 20 21 21 20 18 18 19 19 16 12 15 19
73 71 74 75 77 73 66 64 64 66 70 64 41 22 16 43 53 52 67 67 74 77 79 75 68 42 19 17 18 18 20 21 21 20 20 19 19 19 18 15 11 17 20
74 71 73 76 78 74 76 72 72 72 75 76 72 51 21 15 68 69 64 82 79 88 86 70 73 53 21 19 18 21 21 21 22 21 20 19 19 18 17 13 12 18 19
77 81 78 79 83 83 82 83 85 86 79 73 69 72 56 24 32 60 58 88 84 85 86 78 68 52 25 20 20 22 24 24 23 22 21 19 18 17 16 12 11 17 19
70 86 92 92 93 93 90 91 90 91 81 75 68 66 53 44 39 64 62 89 89 83 84 76 62 44 25 19 21 26 28 29 28 26 23 20 17 16 15 13 13 19 20
70 76 83 88 92 88 89 96 89 84 88 84 78 71 55 55 55 64 71 75 94 86 82 69 56 38 24 21 21 26 31 35 35 31 27 22 18 16 14 13 16 19 21
63 82 78 78 84 88 96 98 95 96 96 87 86 94 76 59 65 77 86 97 98 94 83 77 56 34 25 24 23 25 32 37 39 36 31 25 20 17 15 15 19 22 22
65 68 74 68 72 75 79 99 98 99 99 89 73 64 80 88 81 71 87 83 89 95 82 85 50 33 26 25 26 28 34 41 40 40 36 32 27 24 22 21 23 24 22
64 69 65 67 67 72 70 83 100 100 100 95 80 70 61 77 82 76 71 84 94 94 89 91 43 32 32 29 27 32 38 43 45 43 40 36 30 26 23 26 26 25 24
61 66 68 67 64 63 70 81 85 92 94 95 92 79 69 63 61 79 76 79 88 96 96 93 77 35 36 34 35 34 40 46 48 48 44 39 33 30 28 27 27 27 27
88 71 72 61 57 57 58 62 65 67 72 66 82 88 70 66 66 67 59 66 83 95 87 100 89 41 35 39 40 41 45 53 52 51 48 42 37 34 31 31 29 30 30
98 97 82 73 58 54 53 58 54 53 53 55 68 66 67 65 71 69 68 67 77 88 91 96 98 75 42 45 47 47 49 55 56 54 52 46 42 37 36 38 37 34 32
87 96 96 91 73 64 55 53 51 46 49 49 56 49 78 82 71 64 74 74 85 90 94 100 99 100 78 53 56 53 55 57 57 55 53 49 45 44 43 41 40 42 42
51 86 93 85 81 70 60 54 49 43 58 66 66 64 73 72 68 78 86 93 95 94 88 81 99 100 96 83 67 60 55 55 56 55 54 51 48 46 49 49 48 50 53
28 65 88 84 76 67 60 58 60 60 67 76 64 51 70 74 76 84 88 91 98 97 98 94 91 98 96 80 70 64 60 55 56 54 54 52 49 48 52 53 53 54 57
23 49 58 72 72 64 47 23 18 28 58 73 75 68 68 73 81 92 82 100 97 99 98 99 100 99 100 99 87 60 62 50 59 54 53 53 51 52 57 57 58 60 62
27 23 44 54 61 66 60 49 18 14 44 58 64 65 66 61 70 93 87 98 100 99 99 99 100 98 98 88 66 56 58 56 53 52 54 53 53 56 58 62 72 68 74
42 37 43 44 57 56 52 34 15 34 55 64 65 62 58 65 84 89 91 76 96 98 99 99 100 97 97 99 66 57 58 54 54 55 53 53 56 64 74 73 68 63 82
60 57 56 55 54 57 42 19 22 58 66 72 73 71 69 66 72 84 87 79 73 87 96 100 100 100 99 97 94 97 65 55 55 57 59 58 68 79 80 74 76 82 88

GFSSE_700_rhum_105.txt.gz
RH
45 48 51 62 58 52 52 53 50 40 35 28 20 25 32 34 21 22 36 28 32 50 68 56 55 46 11 10 10 9 9 9 9 10 10 9 10 13 30 68 80 86 76
42 46 47 60 59 57 56 54 49 42 33 27 22 37 24 27 23 14 25 30 41 61 69 65 63 47 12 10 10 10 9 9 9 10 11 12 13 14 39 47 41 19 13
60 51 53 62 63 62 57 56 53 46 38 32 24 17 17 19 17 19 25 38 43 54 75 70 63 56 16 10 10 10 10 10 10 11 13 13 12 11 10 10 10 9 9
63 75 72 71 69 63 54 55 56 52 44 36 26 21 24 21 27 42 34 41 45 58 65 75 64 62 26 11 10 10 10 11 12 13 13 12 10 10 9 10 10 10 10
62 58 49 60 58 58 56 58 58 59 53 47 37 30 51 49 35 53 46 43 55 76 79 77 68 64 36 13 11 10 11 12 14 15 14 12 11 11 11 11 10 11 16
60 58 56 59 58 59 60 58 60 59 56 47 39 32 55 68 66 39 46 54 60 68 77 75 75 69 43 15 12 12 12 14 15 16 15 13 12 12 13 12 12 13 19
70 72 65 60 57 58 57 58 59 60 58 49 39 41 40 49 64 67 40 55 64 67 72 65 71 73 53 19 13 13 14 15 17 18 18 16 15 16 17 15 12 13 17
62 76 76 73 67 61 59 60 58 60 61 52 43 31 28 34 46 60 58 64 63 70 73 72 73 70 57 30 14 14 16 17 18 19 20 18 17 18 19 17 12 14 19
69 71 81 78 78 74 70 66 63 62 61 64 62 40 24 28 37 55 57 73 71 72 78 80 74 67 50 32 15 14 17 19 20 20 20 19 18 18 19 16 12 15 18
69 72 70 75 78 79 78 73 71 70 70 72 67 66 56 28 24 57 64 65 81 84 82 83 78 65 42 31 18 15 16 21 21 20 19 18 18 17 18 15 11 16 18
64 72 69 69 72 78 77 78 84 85 83 85 79 71 64 57 34 21 66 69 86 90 90 86 77 65 42 28 20 18 18 19 22 21 20 19 18 17 16 15 11 13 17
49 63 69 75 77 78 82 83 86 96 97 91 81 76 70 62 54 35 36 62 65 89 86 80 77 66 49 32 22 21 22 21 22 24 24 22 19 17 15 14 12 14 20
46 54 63 69 83 82 89 93 88 94 100 93 86 79 73 61 52 47 43 55 64 88 87 85 80 70 54 33 24 25 27 27 24 24 25 24 21 17 15 14 12 16 21
48 54 72 74 80 84 86 85 90 95 94 87 94 87 82 68 57 57 63 68 72 70 90 93 88 73 52 39 25 25 28 32 33 29 26 24 21 18 16 15 15 18 22
48 52 60 75 79 78 76 79 90 98 99 99 94 86 83 93 83 79 82 80 87 97 96 98 94 80 58 38 28 26 29 35 40 38 34 29 26 23 21 20 20 22 24
50 48 65 70 85 79 72 73 72 81 99 100 100 94 77 70 78 92 88 88 92 98 99 100 94 91 66 35 31 27 28 34 39 42 43 39 33 28 25 23 22 24 24
42 52 57 80 76 73 69 68 68 72 99 97 98 98 96 78 65 72 83 83 76 74 87 95 99 99 84 46 34 31 33 38 42 45 47 46 40 33 30 26 26 26 26
13 54 53 69 81 76 68 64 63 74 96 91 99 96 94 86 79 73 70 64 62 68 73 81 77 99 89 72 37 35 36 37 43 50 51 49 44 39 35 33 32 29 28
16 28 76 57 68 82 76 67 65 65 76 63 78 82 77 69 58 68 66 64 67 64 61 67 72 92 93 99 58 46 45 44 46 55 54 52 50 45 41 37 37 36 34
20 17 93 83 60 75 80 69 63 72 62 62 62 61 59 53 46 54 70 72 65 67 66 68 77 83 91 99 95 62 53 49 51 56 57 55 53 50 46 43 41 39 40
32 14 83 97 80 78 81 65 57 55 54 53 61 54 46 52 59 72 74 63 76 80 76 83 85 92 95 98 100 99 88 64 61 54 58 56 54 53 50 46 46 46 46
28 20 36 90 86 84 90 73 64 58 51 47 40 41 47 56 63 71 74 64 77 79 86 84 89 93 89 86 98 100 97 74 65 62 59 57 59 56 53 50 50 53 55
27 24 25 60 95 75 87 77 63 49 42 45 54 63 66 68 72 59 63 66 73 78 78 94 98 100 97 96 98 99 99 96 72 66 60 56 57 58 59 57 55 57 59
37 30 28 58 90 96 97 81 64 34 25 15 22 53 72 72 65 68 64 67 70 78 83 85 98 97 100 98 99 97 99 98 95 76 58 52 55 59 60 56 56 62 68
43 48 30 59 93 87 83 72 65 59 49 27 18 42 59 64 66 74 72 81 83 85 94 96 94 98 100 100 100 100 100 100 99 92 53 47 55 55 55 56 58 74 75
57 52 46 42 76 73 69 68 64 60 42 25 31 53 71 77 73 73 73 70 71 82 89 89 98 97 99 98 99 100 99 96 91 75 57 54 54 53 59 68 67 67 75

GFSSE_700_rhum_108.txt.gz
RH
42 47 48 54 60 55 54 53 49 57 56 49 26 40 38 41 38 24 28 30 28 46 66 53 58 45 13 8 8 8 8 9 9 9 9 9 13 31 52 78 92 86 50
40 44 46 53 59 55 57 55 51 44 38 34 51 38 27 40 41 20 23 26 35 47 67 61 59 46 14 10 9 8 9 9 10 10 11 15 37 46 60 73 61 22 11
50 46 48 54 62 60 60 54 53 52 44 36 33 66 25 23 21 19 25 32 44 46 70 69 56 53 22 10 10 9 10 10 11 12 13 13 12 13 13 11 10 9 9
64 72 69 66 68 66 62 53 54 54 54 48 35 26 31 26 20 35 30 40 45 50 73 69 65 65 45 12 10 10 10 11 13 14 14 12 10 10 10 10 10 10 11
64 65 60 70 74 64 62 57 52 53 56 54 46 32 34 56 35 46 46 42 50 76 86 80 67 69 59 24 11 10 11 13 15 15 14 12 11 11 12 12 12 14 17
44 56 52 53 64 65 63 65 64 60 58 56 50 39 42 66 61 44 49 47 58 80 88 74 66 66 56 39 13 11 11 13 16 17 15 14 13 13 14 13 12 16 20
46 48 48 55 64 65 64 67 63 60 59 60 57 49 50 52 62 71 63 51 63 69 83 74 65 65 56 38 18 12 12 14 17 18 18 16 15 15 17 15 13 14 18
55 41 55 64 64 64 58 59 62 62 61 62 61 46 36 31 45 60 69 54 62 65 81 73 68 66 58 38 21 15 13 14 16 19 21 19 17 18 19 17 13 14 18
55 64 67 73 74 72 70 70 61 65 64 64 65 59 43 34 36 42 57 62 72 67 76 81 75 65 60 40 23 18 16 16 16 18 20 20 19 18 19 18 14 14 18
58 60 71 73 76 76 72 74 74 72 72 69 69 71 59 31 24 35 53 63 66 81 76 84 81 70 61 43 28 20 19 20 20 19 18 18 20 19 19 18 14 14 17
68 61 62 71 75 74 77 77 77 77 78 78 75 70 64 58 41 22 35 68 69 81 87 88 85 79 61 44 35 23 20 23 24 22 20 18 17 18 18 18 14 12 16
44 50 57 64 69 69 70 76 78 79 84 88 86 83 78 70 60 49 43 48 75 74 91 89 82 80 68 48 38 26 22 22 25 26 24 22 19 17 16 16 15 12 16
44 44 47 54 61 70 72 75 76 78 86 99 92 90 83 76 67 57 52 60 53 66 71 90 84 83 76 58 37 29 25 23 23 24 28 27 23 19 16 14 14 13 15
30 43 49 50 59 65 70 74 80 86 94 95 98 92 86 81 72 62 53 60 63 74 71 94 92 88 90 64 43 31 26 26 26 26 27 29 28 24 19 16 15 14 17
13 36 48 50 55 68 73 85 85 87 87 91 99 92 90 86 84 70 65 70 71 80 80 86 97 97 95 82 50 35 28 28 29 31 31 31 31 30 28 23 20 18 19
9 7 24 44 50 58 76 84 82 88 90 87 98 93 95 87 89 96 84 75 77 87 96 96 95 96 94 96 69 37 32 30 31 34 38 36 34 32 31 30 26 25 24
16 13 9 10 38 50 56 75 80 79 78 82 91 96 100 88 83 84 88 90 90 85 92 96 96 93 89 100 89 44 36 34 34 35 38 44 42 37 32 31 30 27 28
25 26 23 12 11 38 54 63 82 74 73 83 97 100 98 94 92 85 80 77 76 76 79 80 78 86 90 97 95 76 42 42 41 39 39 44 46 47 41 36 34 33 31
14 14 24 18 14 24 49 73 75 72 70 74 92 95 96 98 97 90 68 67 68 65 66 66 66 71 70 84 95 92 91 53 44 43 41 47 52 52 49 46 40 37 36
18 15 11 22 19 32 44 65 80 68 72 76 83 72 74 93 95 79 66 53 53 66 63 63 67 69 71 69 72 100 99 96 83 48 45 44 53 54 53 52 47 43 40
20 18 17 22 27 77 62 52 78 74 71 78 78 81 90 96 98 86 62 56 58 66 60 59 64 69 76 74 88 92 93 98 94 62 69 44 54 57 57 56 53 48 46
28 38 32 35 26 86 99 70 71 80 75 81 88 75 71 68 65 80 76 73 83 70 57 56 70 73 81 82 83 90 93 90 90 94 92 51 60 62 68 60 57 53 49
32 43 47 38 22 63 95 96 96 93 85 78 76 70 69 77 84 76 74 80 68 75 55 68 77 73 86 86 90 97 95 82 84 90 90 95 88 70 64 69 60 57 55
55 40 39 36 34 39 96 97 100 93 88 74 66 70 80 81 82 83 79 75 75 72 57 62 79 79 90 95 92 89 99 99 96 98 100 98 91 82 67 60 60 60 59
70 64 49 45 40 39 90 98 97 97 100 88 76 71 44 42 68 78 79 72 71 67 59 65 76 85 87 90 94 100 100 99 100 99 98 97 99 76 72 66 63 65 63
74 70 55 48 40 65 99 97 99 93 94 74 47 34 26 29 47 57 56 60 59 62 72 78 76 84 89 87 98 100 100 100 98 100 98 94 92 99 73 61 62 62 62

GFSSE_700_rhum_111.txt.gz
RH
50 49 51 54 60 55 54 54 50 50 58 59 36 35 36 38 45 35 30 34 27 44 66 54 59 45 14 9 9 9 9 9 9 10 10 11 23 30 61 89 92 64 30
35 45 47 52 62 56 56 56 52 49 42 49 48 47 38 29 35 34 19 27 30 48 67 60 62 51 23 9 8 8 9 9 10 10 14 37 94 92 92 90 71 26 12
42 39 45 50 62 56 60 57 54 54 49 48 39 36 60 24 21 18 21 28 40 51 70 68 60 58 37 12 9 9 9 10 11 12 13 16 30 37 38 29 16 10 9
64 45 46 52 61 64 63 58 55 53 53 55 51 38 34 49 20 25 28 32 45 50 71 65 58 61 51 23 11 10 10 10 13 14 14 12 12 11 11 10 10 10 11
70 62 70 70 67 68 70 67 65 59 54 57 55 46 37 48 41 34 42 37 44 62 91 78 62 62 53 37 13 11 11 12 14 15 14 12 11 11 11 11 12 15 17
53 64 60 60 70 70 69 65 66 66 64 62 64 48 38 56 61 47 46 45 48 70 89 88 64 62 59 46 20 12 12 13 15 16 15 14 13 13 13 12 12 17 20
38 40 49 54 55 61 63 66 67 63 62 57 59 64 52 51 64 64 66 47 52 73 84 92 66 60 61 53 31 14 14 16 16 17 17 15 15 15 16 16 14 14 18
40 49 44 41 41 48 52 63 67 66 62 64 63 67 67 52 44 56 70 64 56 78 83 97 77 61 62 58 42 18 14 16 20 20 20 18 16 16 18 19 15 13 16
47 46 48 44 51 60 62 54 52 58 54 66 66 65 62 55 49 50 53 67 65 60 72 86 88 67 63 61 48 31 17 16 18 21 21 21 20 17 18 18 16 13 15
54 57 52 60 72 69 69 65 64 67 64 69 67 68 67 64 61 57 56 57 64 69 78 78 90 81 65 62 48 39 23 17 18 19 21 20 20 20 19 19 17 13 14
49 68 64 63 74 75 76 74 69 66 71 71 73 71 69 67 52 31 36 52 60 68 76 83 88 89 75 65 52 42 30 19 18 20 20 21 20 19 18 18 17 15 12
29 40 70 69 68 73 78 78 74 76 74 74 73 76 71 66 62 56 36 25 37 68 71 85 90 93 85 72 57 45 35 24 20 19 18 21 21 20 18 17 17 16 13
11 18 30 40 47 55 76 75 70 72 74 77 76 76 77 75 71 66 59 46 55 50 69 78 91 92 90 80 65 47 37 28 22 21 19 22 22 22 20 18 16 16 14
6 8 15 23 38 43 47 66 78 76 76 76 75 83 81 79 78 75 72 60 64 68 60 68 76 94 96 96 74 54 40 33 26 23 22 25 24 24 22 19 16 15 15
7 6 6 9 15 32 43 47 62 75 77 83 92 95 89 84 81 78 76 69 62 67 73 74 78 85 98 98 100 80 42 35 32 28 26 26 27 26 25 23 20 17 16
13 12 12 10 6 8 29 43 52 68 82 88 98 95 88 86 92 86 84 81 82 81 79 82 80 80 88 93 99 99 62 38 34 32 30 30 31 33 31 27 25 24 22
14 14 20 17 14 10 7 21 44 61 87 92 90 92 92 91 96 93 92 94 93 90 87 88 90 91 84 91 96 98 91 47 39 35 31 30 32 36 37 34 30 27 26
21 21 21 25 21 15 10 10 28 45 69 91 87 82 92 99 94 87 92 98 98 98 96 96 92 96 97 92 88 100 99 88 62 40 38 36 34 31 35 41 39 35 31
23 22 19 18 18 26 24 14 21 41 55 78 84 82 84 97 96 100 92 94 90 85 89 82 82 82 82 84 81 87 82 90 90 85 44 59 40 37 32 35 44 41 36
23 17 16 15 13 18 17 25 19 30 58 84 86 83 96 91 98 100 99 96 97 91 75 72 71 70 69 72 69 70 71 71 87 89 90 83 51 72 38 43 44 45 44
26 30 31 22 14 12 16 19 22 16 50 99 89 88 90 99 83 77 81 94 99 88 71 80 78 74 71 66 68 75 81 83 71 84 98 90 93 86 46 47 51 50 49
38 42 54 33 23 28 22 22 26 29 49 90 98 91 98 89 83 69 73 70 88 90 74 64 79 73 60 74 71 76 86 83 84 78 95 90 88 78 60 51 48 53 51
65 67 72 51 37 49 49 43 33 70 77 81 99 95 94 100 84 69 58 57 71 74 51 71 52 71 71 79 76 83 89 80 85 86 85 86 81 89 91 84 55 58 52
68 56 69 63 42 42 36 35 36 82 76 78 88 90 95 98 73 62 74 85 85 87 85 85 81 65 72 81 86 86 88 98 97 92 94 84 86 82 90 91 65 59 65
69 62 62 71 69 45 46 37 53 85 87 86 90 98 100 86 83 86 85 88 90 88 81 79 79 68 68 83 91 91 85 84 90 97 98 98 92 88 87 96 97 96 72
76 75 65 57 52 47 68 65 84 97 96 93 99 100 97 85 82 86 63 45 58 76 80 76 76 77 74 79 86 91 96 87 82 94 100 98 98 98 99 99 98 98 67

GFSSE_700_rhum_114.txt.gz
RH
48 49 58 60 61 56 54 53 53 51 58 61 40 37 36 28 30 34 26 32 28 45 64 56 64 46 14 9 8 8 9 10 10 10 11 14 19 35 69 79 71 31 20
35 48 50 53 61 58 56 55 55 52 49 52 54 47 48 25 20 23 16 22 29 48 66 62 64 59 30 10 9 8 9 9 10 11 14 62 79 94 94 93 74 24 12
38 30 46 48 63 60 58 58 56 55 55 58 60 43 45 56 19 16 18 19 31 50 69 68 64 62 48 17 10 9 9 9 11 12 24 40 71 81 91 66 33 11 10
42 32 40 48 53 63 60 61 58 56 55 58 61 66 39 59 42 17 28 22 33 53 63 68 63 62 56 36 11 9 10 11 12 13 13 13 20 26 21 12 10 10 11
53 45 52 47 57 58 64 68 63 60 57 55 58 58 63 46 58 29 35 33 35 53 85 77 64 61 57 52 21 10 10 12 13 14 13 11 11 11 11 11 11 14 17
51 67 63 70 70 67 64 70 65 63 60 62 60 58 54 53 60 50 42 43 39 54 86 92 68 61 56 53 42 13 11 12 14 14 16 13 12 11 12 12 12 15 19
45 49 58 62 63 67 69 65 63 62 64 63 56 60 66 58 64 64 55 46 42 56 87 96 76 60 58 54 48 28 13 13 15 17 15 15 14 13 13 14 14 13 16
35 37 35 41 48 52 58 61 55 63 64 63 58 58 59 62 56 63 66 70 52 58 82 91 97 71 58 57 51 40 19 13 14 15 16 19 17 16 16 16 16 13 13
25 32 44 38 38 41 36 42 54 62 57 51 52 60 62 62 62 54 52 59 69 59 74 83 89 93 65 58 54 45 31 16 14 15 16 19 19 18 19 20 18 15 13
24 38 51 52 42 38 53 56 57 60 52 53 55 60 65 62 58 56 54 57 63 68 65 73 74 93 81 61 60 49 40 25 16 15 13 17 18 19 19 19 19 16 14
19 20 30 46 54 55 72 74 71 64 64 65 65 64 68 68 66 64 54 53 55 60 68 76 80 84 89 74 68 57 45 34 22 18 15 16 16 17 18 18 18 17 15
8 11 19 26 49 54 55 72 73 77 75 70 72 71 69 68 67 66 59 39 30 44 58 68 79 86 88 83 76 66 50 40 29 21 17 18 17 18 17 17 17 17 16
5 5 6 10 22 38 56 64 60 69 80 74 74 77 75 72 70 67 65 60 46 30 30 59 73 82 91 91 84 75 58 46 40 28 20 21 20 20 20 18 17 16 15
6 6 6 5 5 9 21 32 43 49 60 66 72 77 78 76 75 73 74 71 68 58 52 50 62 74 87 96 89 87 72 52 45 37 27 23 23 22 21 21 19 17 15
8 8 8 8 8 8 6 7 20 38 45 57 70 74 74 70 66 81 81 81 71 68 61 68 61 68 77 80 96 94 92 76 53 40 38 26 24 26 25 25 23 21 18
9 9 10 11 11 11 10 9 7 10 32 44 58 66 77 81 74 89 92 89 86 76 76 71 77 77 82 87 87 99 98 100 78 64 44 37 27 26 27 27 26 26 24
11 14 17 17 14 13 13 15 12 10 9 24 42 59 71 93 92 88 87 96 84 89 88 85 86 88 86 84 84 84 95 92 99 89 55 47 36 29 26 28 30 30 29
24 24 22 21 20 20 20 18 18 16 10 11 32 48 65 88 99 94 84 97 97 90 87 95 98 97 97 99 96 98 87 96 99 98 97 78 55 39 34 33 34 35 33
19 18 18 19 19 20 20 18 17 22 19 11 20 46 60 84 94 90 87 84 88 83 88 98 98 99 97 98 97 99 98 91 87 90 87 91 89 84 42 36 38 34 38
25 22 22 24 22 17 16 15 16 18 22 21 17 28 57 72 88 84 82 91 74 78 95 81 95 97 97 97 97 94 90 83 77 77 75 87 100 98 60 66 46 59 43
27 29 28 25 28 34 32 30 20 14 16 17 24 25 43 76 96 99 90 80 87 89 98 99 97 92 87 96 94 88 80 75 78 82 84 81 77 89 95 83 66 84 55
37 35 34 35 42 44 49 46 28 20 15 15 18 35 54 86 98 100 90 91 90 81 92 82 82 94 78 77 92 79 75 68 76 80 84 78 80 80 96 97 84 86 67
38 34 40 46 46 44 54 40 40 40 26 28 23 25 44 84 92 68 99 92 73 69 49 82 88 82 78 82 86 85 78 69 71 80 88 88 87 89 87 93 96 87 87
43 50 54 54 49 59 63 48 35 37 43 42 39 44 40 77 80 85 100 84 74 69 54 76 88 84 92 78 83 83 75 73 90 95 87 82 83 83 90 88 87 89 92
47 58 63 48 45 60 72 67 65 46 47 50 63 62 67 71 92 92 99 77 70 55 53 66 77 82 84 86 85 92 79 85 88 96 82 76 83 72 86 85 94 94 96
54 58 75 63 47 42 49 59 76 74 82 73 87 84 85 98 83 98 91 88 80 83 82 84 86 91 87 86 84 85 89 86 83 82 86 81 80 74 91 100 86 92 99

GFSSE_700_rhum_117.txt.gz
RH
48 49 59 65 60 56 54 53 54 56 57 59 48 42 39 24 23 26 23 18 23 40 62 61 61 47 15 8 8 8 8 9 9 9 10 12 15 22 35 40 32 25 17
49 45 52 59 60 59 55 54 52 54 52 56 54 56 44 47 19 20 18 15 20 35 59 64 65 59 31 10 8 8 9 10 10 10 12 31 90 93 88 70 57 22 12
48 35 48 49 56 62 57 56 54 54 53 56 59 59 42 55 47 18 16 19 23 37 55 65 67 60 48 21 9 9 9 9 17 24 22 37 73 94 93 82 37 12 10
41 36 30 47 51 63 60 60 58 56 54 54 57 61 63 42 78 27 23 22 26 41 54 65 70 62 54 43 16 9 9 10 11 12 15 20 33 40 50 26 12 10 10
39 39 40 45 57 63 63 62 62 60 56 55 55 58 59 64 52 49 29 32 30 42 74 76 67 63 56 50 40 13 10 10 11 12 14 14 12 11 11 11 11 12 16
48 50 59 60 49 62 64 69 69 66 63 58 58 59 58 55 56 59 44 41 36 45 68 86 69 61 55 51 46 34 12 10 13 13 13 12 11 11 11 11 12 14 18
42 50 60 66 68 71 70 69 72 71 66 64 65 59 57 58 59 62 64 48 42 43 64 91 89 65 58 55 48 42 27 11 11 13 15 15 13 12 12 13 12 12 13
21 33 44 50 55 61 61 64 66 66 65 66 64 58 55 55 59 59 61 63 62 44 59 87 97 85 63 59 56 46 40 19 12 11 14 15 15 14 13 14 15 14 12
19 20 23 28 29 31 37 42 48 50 50 64 69 60 53 57 59 61 60 56 61 67 55 76 84 94 87 63 61 52 45 37 16 13 14 14 15 17 16 16 17 16 14
17 19 23 23 26 28 33 38 40 48 62 64 58 54 62 61 65 63 60 57 53 58 66 64 77 78 94 80 64 62 49 43 32 16 13 15 15 16 17 18 18 18 16
8 13 20 24 30 32 36 31 42 61 69 74 70 63 68 71 71 68 66 62 59 56 58 64 65 70 79 89 76 67 59 48 44 27 16 15 15 15 16 17 17 18 18
5 6 7 12 19 22 27 37 38 44 58 73 78 78 69 68 75 75 70 67 64 48 47 56 62 68 77 82 85 74 68 56 51 41 26 17 15 16 16 17 17 16 16
6 6 6 5 5 8 13 19 29 41 47 49 58 77 78 76 79 77 74 72 68 62 44 31 46 62 76 84 88 88 80 68 60 54 41 24 18 17 17 17 18 17 16
6 6 6 6 6 6 5 6 11 24 34 37 39 45 64 63 70 79 76 73 73 72 67 58 37 36 67 78 86 91 91 82 70 65 57 38 24 20 19 19 20 20 19
6 7 7 7 7 8 8 7 7 6 10 19 24 40 41 47 53 57 66 67 72 78 79 77 69 57 55 69 76 87 96 93 88 78 74 56 39 28 22 21 22 22 22
6 7 7 7 8 8 10 10 10 10 9 8 9 19 40 43 58 74 68 63 77 86 88 88 81 70 68 68 72 74 74 95 99 96 87 77 63 44 30 25 24 25 25
10 12 15 16 16 17 17 17 17 15 12 11 11 9 20 36 44 51 59 78 91 91 88 88 90 86 82 79 78 82 86 86 91 90 98 88 82 55 39 32 30 30 31
21 22 21 20 19 18 17 16 15 16 18 19 16 14 12 28 41 53 63 76 92 88 73 79 93 95 91 98 96 90 89 92 91 94 99 92 90 88 70 50 35 32 32
29 31 32 31 29 23 20 19 20 19 16 17 18 20 18 13 32 53 63 78 78 87 80 82 82 90 84 92 99 100 100 99 99 99 95 91 94 89 80 71 60 40 34
40 40 35 28 25 24 26 26 25 23 17 16 17 17 20 28 16 38 63 80 80 82 85 90 87 84 84 100 100 98 100 100 99 100 98 94 87 80 80 90 90 89 42
44 36 30 28 27 27 28 28 29 30 31 29 18 15 16 50 47 33 45 71 81 82 85 96 88 80 88 82 83 97 97 96 96 98 96 85 78 82 79 76 82 89 72
41 35 32 28 28 32 32 34 36 39 43 45 31 17 16 18 52 50 45 56 74 80 88 93 100 99 96 99 97 96 98 96 92 90 88 82 79 89 87 84 81 76 85
39 40 34 34 37 39 35 28 39 51 43 40 38 32 20 17 31 57 59 68 70 80 81 97 99 93 77 77 83 84 90 86 86 88 89 81 86 84 82 86 84 83 92
46 45 34 34 44 38 22 21 44 62 45 33 33 34 33 24 23 45 60 92 98 99 93 98 95 72 81 78 86 83 86 94 91 91 91 84 81 94 87 85 87 89 92
47 40 31 46 48 48 36 34 42 54 63 70 61 53 52 36 41 46 54 91 100 100 100 98 98 73 63 80 82 78 88 96 100 98 100 98 95 91 82 76 72 80 88
49 40 33 48 58 69 79 79 69 70 73 73 89 90 73 63 88 81 66 81 83 98 97 98 100 94 70 82 88 90 91 98 98 99 99 95 89 80 86 80 71 65 79

GFSSE_700_rhum_120.txt.gz
RH
47 54 53 69 68 62 55 54 55 56 63 65 57 43 42 34 27 26 26 19 24 29 52 60 64 57 25 8 7 7 7 8 8 8 8 10 11 13 14 16 16 20 17
43 43 51 61 69 63 56 55 54 52 54 56 56 58 50 48 39 21 20 16 19 28 44 58 63 60 45 16 8 7 7 8 8 9 10 17 66 72 52 59 32 20 12
47 44 48 53 57 67 61 58 57 53 54 54 57 59 64 48 60 38 18 18 20 28 41 58 65 59 48 39 15 8 8 8 8 10 14 37 82 81 66 66 38 15 10
41 39 38 46 52 62 67 61 60 59 55 57 58 58 59 58 50 74 23 25 21 31 51 59 74 62 54 45 34 14 8 8 9 12 16 22 40 38 44 36 14 10 10
34 40 42 39 50 58 70 67 62 62 60 57 56 56 57 59 61 55 48 30 26 32 62 68 72 63 56 49 42 30 12 8 9 12 12 13 14 15 14 10 10 10 12
34 42 47 61 58 55 63 65 69 69 69 68 62 60 59 57 55 54 60 44 38 33 48 80 78 65 59 53 46 38 29 10 8 10 13 12 12 10 9 10 10 10 14
28 36 48 63 68 80 72 69 68 70 72 70 66 68 67 59 57 58 59 66 49 41 42 68 85 72 62 57 52 48 38 23 9 9 11 12 12 11 11 11 11 11 12
18 19 30 50 58 68 71 76 78 77 73 68 67 66 65 61 58 59 63 61 66 62 45 55 89 90 71 60 58 54 43 37 18 10 10 11 12 12 12 12 13 13 12
16 17 17 21 34 44 43 48 47 53 58 64 59 57 69 63 54 55 62 66 62 66 70 56 74 94 93 80 62 60 50 42 34 15 12 11 12 14 13 12 13 14 15
14 16 16 17 17 18 20 24 31 36 40 46 49 71 73 63 61 60 62 64 62 58 61 70 64 76 88 90 85 63 61 49 43 31 15 13 12 13 13 15 15 15 15
6 7 9 11 13 15 17 19 24 29 31 50 62 69 73 75 72 72 70 69 67 62 58 58 68 70 70 75 92 81 66 62 51 45 28 16 13 13 13 14 15 16 16
6 6 6 6 6 7 8 11 13 19 26 34 48 66 77 76 76 76 76 77 74 71 70 60 56 60 65 68 81 90 82 67 63 53 44 27 18 15 14 14 14 14 14
6 6 6 6 6 6 5 5 5 7 11 19 31 44 62 74 77 79 75 78 81 77 74 71 56 40 52 66 75 86 92 82 72 65 55 44 30 20 17 17 16 16 16
6 6 6 6 6 6 6 6 6 6 6 8 14 28 38 48 54 72 70 65 73 81 80 80 76 64 38 36 66 84 90 92 84 76 69 56 45 34 22 19 19 18 18
6 6 6 6 6 6 7 7 7 8 7 7 7 10 17 34 43 43 53 55 63 76 80 74 82 86 81 60 45 63 82 90 95 88 81 74 60 48 36 28 22 21 22
6 6 6 7 9 10 9 10 10 10 10 10 10 10 8 11 37 52 53 46 51 64 63 58 67 84 87 84 64 61 68 78 89 95 91 87 83 67 49 43 32 26 27
10 12 16 17 20 20 19 19 19 19 19 19 19 17 14 12 9 33 52 58 50 45 52 54 83 90 90 85 84 74 78 75 78 85 89 93 91 82 76 53 43 35 29
23 25 26 27 28 30 31 31 30 27 23 19 17 17 19 19 15 12 34 53 64 64 64 72 85 94 90 86 94 96 93 90 84 89 91 95 95 84 88 75 52 62 43
26 26 27 30 32 30 26 23 23 23 22 20 18 19 19 19 21 20 14 40 65 66 72 76 76 80 81 87 83 92 88 98 99 99 99 95 92 96 100 87 86 81 67
30 30 33 36 32 28 26 22 20 20 22 26 26 26 22 18 20 22 22 15 41 67 72 82 78 80 82 84 82 76 87 94 96 96 100 100 100 98 87 98 91 88 66
30 32 37 36 33 30 25 24 26 28 31 35 39 41 37 29 19 18 21 23 15 35 58 73 88 81 69 84 88 79 73 86 92 94 100 98 98 100 100 94 88 85 85
29 36 40 38 37 32 28 29 31 21 18 22 36 46 49 45 32 20 17 33 28 26 50 67 77 87 92 93 93 87 97 82 82 96 96 100 98 97 97 98 91 90 88
27 39 43 42 35 28 37 39 24 26 26 39 58 47 36 38 40 31 19 32 61 49 52 61 76 78 86 100 98 100 91 73 74 84 86 97 96 98 96 96 100 97 92
32 40 42 40 27 33 42 39 44 49 45 38 46 62 62 51 37 33 31 20 32 62 55 58 79 90 99 100 96 99 82 75 67 76 81 86 95 97 97 99 96 100 95
38 42 41 39 30 37 48 46 58 61 66 67 60 72 80 66 55 54 34 27 23 60 75 75 98 100 97 99 97 91 90 84 75 88 90 95 100 98 99 97 99 98 98
46 49 46 41 34 44 46 48 52 68 59 74 80 82 85 80 87 98 82 67 42 48 68 96 99 99 100 94 97 98 96 92 92 95 84 87 99 97 99 100 100 100 99

GFSSE_700_rhum_126.txt.gz
RH
56 54 52 59 69 69 64 58 56 59 60 57 60 61 57 57 48 50 37 21 19 19 27 45 53 53 48 33 14 6 6 7 8 9 9 9 8 9 9 9 9 10 12
46 46 44 49 57 70 67 62 58 58 55 55 53 58 60 59 62 54 64 50 18 18 22 34 51 54 47 36 27 12 6 6 7 8 9 10 16 16 13 14 13 14 14
40 39 40 44 50 59 68 70 62 58 59 63 59 55 57 57 55 60 53 60 30 24 22 34 49 79 55 50 41 25 9 7 7 8 9 17 30 62 45 38 30 20 11
30 32 32 42 54 51 57 66 71 66 61 63 64 61 60 58 57 58 61 60 56 32 24 32 52 72 70 59 51 41 22 9 8 9 11 14 32 35 35 39 37 19 10
30 26 19 41 45 54 53 57 66 75 69 66 65 64 64 63 59 58 58 58 61 49 34 30 56 66 76 63 57 49 36 19 9 9 10 12 14 17 18 20 20 10 9
20 20 21 26 48 66 69 63 62 67 74 76 74 74 71 68 65 65 63 59 58 62 52 41 50 73 78 66 63 56 46 35 17 10 10 11 12 12 11 10 9 9 10
17 16 17 20 27 48 67 67 66 62 66 74 76 75 71 71 69 68 66 63 62 62 66 62 46 53 83 70 65 59 55 48 33 16 11 11 12 12 11 10 9 9 10
18 17 16 16 17 21 32 48 62 65 68 71 72 73 69 64 60 62 60 67 63 60 63 68 70 56 59 85 77 65 61 56 44 32 17 12 11 12 13 12 11 11 11
15 14 15 15 15 15 16 27 39 47 54 61 63 60 59 57 54 54 54 60 68 59 62 67 69 74 69 71 93 86 76 65 58 45 34 20 13 12 13 14 13 13 13
6 6 6 6 6 6 8 13 16 18 28 37 41 43 44 42 42 48 48 52 66 62 64 66 68 67 67 76 78 96 99 91 74 59 46 38 25 15 13 13 15 15 15
5 5 5 5 5 5 5 5 6 6 9 13 18 20 22 24 27 40 51 57 68 68 70 73 71 72 69 65 75 84 93 89 86 80 60 49 43 30 17 14 14 15 16
6 6 6 6 6 6 6 6 6 5 5 6 6 8 11 16 23 29 48 67 69 70 72 75 76 80 78 74 72 63 74 78 74 86 81 62 54 45 32 20 16 15 15
7 7 7 7 7 6 6 6 6 6 6 6 6 6 6 6 7 12 22 42 63 77 79 77 76 80 81 82 79 75 62 59 77 78 91 87 66 58 48 37 25 19 17
8 7 7 7 6 6 6 6 6 6 6 6 6 6 6 6 7 6 6 8 19 47 63 75 77 76 77 83 84 84 80 60 47 65 81 89 90 70 62 52 43 32 22
8 7 6 6 5 5 6 6 7 8 8 9 10 10 9 7 6 6 7 8 8 8 30 53 62 69 73 70 84 88 87 83 73 48 56 76 89 92 78 65 57 50 36
7 6 6 9 13 17 18 19 19 20 20 20 21 21 22 20 19 17 14 11 10 11 10 12 23 44 55 68 73 88 90 85 88 81 59 67 81 89 97 90 72 70 77
6 8 15 19 20 20 19 19 20 20 21 22 22 22 22 22 22 23 24 23 21 17 16 14 11 18 55 69 67 87 87 82 74 89 86 78 73 82 87 88 93 83 73
11 18 21 21 19 16 16 20 21 21 21 20 20 20 19 18 17 16 16 17 19 21 20 18 19 13 28 64 76 84 86 80 89 96 95 91 84 83 86 87 89 97 94
22 24 24 20 12 8 8 21 22 19 16 16 16 16 18 17 16 16 16 17 17 18 21 20 19 22 16 37 74 80 75 77 79 97 99 97 93 89 92 94 94 98 95
27 25 21 14 8 6 8 22 21 16 14 19 19 19 19 20 22 22 21 24 22 18 18 27 26 21 24 20 57 78 80 89 99 84 98 86 88 93 90 89 100 94 90
27 16 8 6 6 7 19 24 19 16 20 24 25 25 26 30 28 29 30 28 27 28 27 30 37 31 23 25 36 70 86 89 91 94 88 84 81 82 79 90 88 83 85
11 7 5 5 6 19 26 21 18 18 19 21 23 26 27 31 32 37 34 39 44 41 40 41 38 44 28 24 36 76 95 91 87 86 89 86 77 80 80 80 76 78 75
8 6 5 5 15 29 28 28 29 24 27 27 31 34 38 36 36 36 39 42 37 42 44 41 35 47 35 25 35 48 92 96 82 78 82 76 76 90 87 82 73 82 88
8 7 6 6 18 28 29 33 29 27 30 29 30 29 32 40 44 47 45 46 39 58 60 56 45 45 62 42 58 44 62 95 92 82 81 83 90 99 86 77 72 87 89
12 9 8 7 16 30 34 36 34 37 40 36 39 41 36 47 47 54 52 53 58 71 67 77 81 63 62 56 73 68 44 59 97 89 84 99 91 99 100 92 84 94 91
13 11 10 9 8 16 20 34 42 46 46 47 48 48 43 50 54 54 59 74 74 77 90 99 100 89 77 50 60 74 72 63 71 75 92 97 83 86 98 99 100 98 98

GFSSE_700_rhum_129.txt.gz
RH
55 54 51 54 61 69 65 61 58 57 56 53 56 53 58 58 57 58 56 63 36 18 19 30 39 50 47 35 25 9 6 6 7 8 9 9 9 9 10 12 12 12 13
44 49 48 46 48 58 71 65 61 58 59 59 60 60 58 57 57 56 59 54 55 28 20 22 39 56 52 48 41 24 9 7 7 8 8 9 12 13 12 13 16 18 18
34 37 38 43 44 48 57 68 68 64 60 59 61 62 59 59 58 55 54 57 59 48 28 23 33 64 78 57 50 41 23 9 8 9 10 14 44 66 55 29 26 22 16
32 28 27 34 36 43 50 55 59 66 67 65 63 64 62 61 60 56 55 56 55 57 47 30 34 56 80 74 59 52 39 22 10 9 11 16 80 42 33 35 38 32 13
30 28 25 22 48 52 47 49 53 58 64 68 68 67 66 66 66 63 61 61 58 55 57 50 36 52 70 79 65 58 50 40 24 11 10 13 17 20 23 23 27 24 11
18 18 17 18 22 41 55 76 67 61 62 68 71 74 73 71 67 67 61 63 62 57 57 63 57 43 50 74 75 61 54 48 40 24 12 11 12 13 13 13 12 11 10
18 18 17 16 18 24 34 55 63 62 60 57 61 68 71 70 68 66 64 59 56 61 56 56 62 64 54 61 77 72 63 54 50 39 24 13 11 12 13 12 11 10 10
17 17 17 16 16 16 17 23 32 48 60 57 63 66 68 67 67 64 60 57 55 52 60 51 52 60 69 64 71 82 78 63 55 50 40 27 15 13 13 13 13 12 12
11 8 8 8 8 10 13 15 16 19 30 40 45 49 52 52 50 48 48 48 52 51 57 61 54 54 62 68 71 75 88 88 72 57 52 41 30 17 14 14 14 14 14
6 5 5 5 5 5 5 5 6 7 11 15 17 20 22 25 28 30 30 33 38 41 47 61 61 62 61 61 61 68 79 93 91 97 70 54 46 35 21 16 15 15 16
5 5 5 5 6 6 6 6 6 5 5 5 6 7 7 8 10 13 17 21 27 44 53 58 66 64 68 67 65 63 66 73 78 90 95 91 58 50 40 26 17 16 16
5 6 6 6 7 7 6 6 6 6 6 6 6 6 6 6 6 6 6 8 14 22 48 65 64 67 68 69 73 74 74 70 63 67 76 83 95 63 53 44 30 19 17
8 8 8 7 7 7 7 7 6 6 6 6 6 6 6 6 6 6 6 6 6 8 14 30 47 63 72 74 72 77 79 78 72 64 62 77 81 97 70 56 47 35 24
9 9 8 8 7 7 6 6 6 5 5 6 6 6 6 5 6 6 6 6 7 7 7 8 23 45 62 75 78 74 80 84 82 74 59 52 73 84 100 80 59 52 41
9 8 8 7 6 6 7 9 12 14 15 16 16 16 16 16 17 17 17 15 14 13 12 10 9 9 17 43 67 81 74 79 88 88 78 54 53 70 86 98 84 68 60
8 8 6 7 11 16 19 18 18 17 17 17 16 17 18 18 18 18 20 22 24 24 22 20 19 17 14 10 14 46 68 76 79 90 88 84 62 60 64 83 94 90 80
8 7 9 16 20 21 19 13 9 11 16 18 18 17 17 16 16 16 16 16 16 16 15 15 16 18 21 20 17 11 17 53 79 92 96 88 88 79 76 75 84 90 96
7 9 16 20 20 19 14 8 6 7 16 19 17 15 14 14 15 16 15 15 14 14 15 16 17 17 16 16 20 20 15 23 72 93 98 85 76 89 86 81 78 81 91
12 18 21 21 19 13 7 4 4 11 19 15 14 16 17 18 17 17 18 19 19 21 23 23 21 20 18 16 19 21 20 17 48 84 94 86 83 84 95 91 84 84 88
22 24 21 15 7 4 4 5 14 21 16 14 14 16 18 19 19 19 21 22 24 26 28 30 30 29 27 26 19 16 23 22 27 71 86 85 77 75 96 98 99 96 98
25 21 14 7 4 4 5 18 25 21 20 15 15 18 19 19 19 20 23 27 30 34 34 32 31 30 30 34 34 29 30 28 24 43 85 88 78 77 85 82 97 98 97
23 18 9 5 4 4 6 19 22 24 22 20 20 24 19 18 21 28 35 36 36 38 40 39 45 41 41 42 40 54 49 40 33 31 86 99 95 100 93 100 99 92 88
24 16 10 8 5 5 7 20 25 22 22 24 29 30 26 27 25 30 34 38 42 43 45 48 53 55 52 50 43 58 69 75 54 41 70 98 98 99 98 99 93 92 90
22 17 15 8 6 6 6 15 18 14 22 29 34 36 38 38 33 32 37 39 40 42 42 45 49 56 69 69 58 64 72 93 82 67 57 75 94 99 99 86 88 97 95
22 17 10 8 7 7 6 6 6 11 17 30 38 39 31 39 43 44 45 45 41 38 45 56 64 63 79 77 91 72 74 97 99 71 56 53 68 78 78 79 81 99 97
16 12 11 10 10 9 8 7 7 11 25 34 29 13 17 32 42 46 48 37 16 13 12 20 63 76 86 98 80 86 77 81 98 81 60 50 50 74 91 81 88 99 99